ftp/pub/palmer/observations_modified/2019/October/original_files/AR191021_BASE.txt

Download

Sample DateTime	Unit Id	WS Avg 2min	WD Avg 2min	WGS 10min	WGD 10min	Air Temp	Rel Humidity	Dew Point	Pyranometer	Quantum	Air Pressure	Snow Level	Rainfall	PW Current	Visibility	CBase 1	CBase 2	CBase 3	Vert Vis
2019/10/21 00:00:00	BASE	22.91	16	29.94	12	-0.4	87	-2.3	0	0	977.7	NA	0.0000	UP	9999	0	0	0	3480
2019/10/21 00:01:00	BASE	23.25	15	29.94	12	-0.4	88	-2.2	0	0	977.7	NA	0.0000	UP	9999	0	0	0	4790
2019/10/21 00:02:00	BASE	23.34	14	29.94	12	-0.4	88	-2.1	0	0	977.8	NA	0.0000	UP	9999	0	0	0	6500
2019/10/21 00:03:00	BASE	23.81	15	29.94	12	-0.4	89	-2.0	0	0	977.7	NA	0.0000	UP	9999	0	0	0	7450
2019/10/21 00:04:00	BASE	25.01	17	29.94	12	-0.3	89	-2.0	0	0	977.7	NA	0.0000	UP	9999	0	0	0	4040
2019/10/21 00:05:00	BASE	25.10	19	27.93	18	-0.3	89	-1.9	0	0	977.7	NA	0.0000	UP	9999	0	0	0	7780
2019/10/21 00:06:00	BASE	24.49	18	27.93	18	-0.3	89	-1.9	0	0	977.7	NA	0.0000	UP	9999	0	0	0	8790
2019/10/21 00:07:00	BASE	23.25	18	27.93	18	-0.3	89	-1.9	0	0	977.9	NA	0.0000	UP	9999	5180	0	0	0
2019/10/21 00:08:00	BASE	22.63	19	27.93	18	-0.3	89	-1.9	0	0	977.9	NA	0.0000	UP	9999	5450	6890	0	0
2019/10/21 00:09:00	BASE	23.08	19	27.93	18	-0.3	89	-1.8	0	0	977.9	NA	0.0000	UP	9999	4630	5740	0	0
2019/10/21 00:10:00	BASE	23.50	20	27.93	18	-0.3	90	-1.8	0	0	977.8	NA	0.0000	UP	9999	3970	0	0	0
2019/10/21 00:11:00	BASE	24.45	22	27.93	18	-0.3	90	-1.8	0	0	977.8	NA	0.0000	UP	9999	4000	0	0	0
2019/10/21 00:12:00	BASE	24.53	23	27.93	18	-0.3	90	-1.8	0	0	977.8	NA	0.0000	UP	9999	5480	0	0	0
2019/10/21 00:13:00	BASE	24.29	21	27.93	18	-0.3	90	-1.8	0	0	977.9	NA	0.0000	UP	9999	5120	0	0	0
2019/10/21 00:14:00	BASE	23.67	21	27.32	19	-0.3	90	-1.7	0	0	977.9	NA	0.0000	UP	9999	4400	0	0	0
2019/10/21 00:15:00	BASE	23.38	20	27.06	20	-0.3	90	-1.7	0	0	977.9	NA	0.0000	UP	9999	5410	0	0	0
2019/10/21 00:16:00	BASE	24.05	20	27.06	20	-0.3	90	-1.7	0	0	977.9	NA	0.0000		9999	5250	0	0	0
2019/10/21 00:17:00	BASE	24.03	21	27.06	20	-0.3	90	-1.8	0	0	977.9	NA	0.0000		9999	4950	0	0	0
2019/10/21 00:18:00	BASE	24.00	22	27.06	20	-0.3	90	-1.8	0	0	977.9	NA	0.0000		9999	5050	0	0	0
2019/10/21 00:19:00	BASE	23.74	21	27.06	20	-0.3	89	-1.8	0	0	977.9	NA	0.0000		9999	0	0	0	7610
2019/10/21 00:20:00	BASE	23.86	21	26.70	22	-0.2	89	-1.8	0	0	977.8	NA	0.0000		9999	4990	0	0	0
2019/10/21 00:21:00	BASE	24.22	20	26.70	22	-0.2	89	-1.8	0	0	977.8	NA	0.0000		9999	0	0	0	7740
2019/10/21 00:22:00	BASE	24.27	20	26.49	17	-0.2	89	-1.8	0	0	977.8	NA	0.0000		9999	0	0	0	7680
2019/10/21 00:23:00	BASE	25.20	23	27.47	22	-0.2	89	-1.9	0	0	977.7	NA	0.0000		9999	4720	0	0	0
2019/10/21 00:24:00	BASE	26.05	23	28.76	19	-0.2	88	-1.9	0	0	977.6	NA	0.0000		9999	0	0	0	7280
2019/10/21 00:25:00	BASE	27.14	22	29.79	17	-0.2	88	-1.9	0	0	977.6	NA	0.0000	UP	9999	0	0	0	7220
2019/10/21 00:26:00	BASE	27.45	22	29.79	17	-0.2	88	-1.9	0	0	977.7	NA	0.0000	UP	9999	0	0	0	7250
2019/10/21 00:27:00	BASE	26.14	21	29.79	17	-0.2	88	-1.9	0	0	977.8	NA	0.0000	UP	9999	0	0	0	7150
2019/10/21 00:28:00	BASE	25.60	22	29.79	17	-0.1	88	-2.0	0	0	977.8	NA	0.0000	UP	9999	0	0	0	6790
2019/10/21 00:29:00	BASE	25.77	23	29.79	17	-0.1	87	-2.0	0	0	977.8	NA	0.0000	UP	9999	6230	0	0	0
2019/10/21 00:30:00	BASE	25.90	23	29.79	17	-0.1	87	-2.0	0	0	977.8	NA	0.0000	UP	9999	6140	0	0	0
2019/10/21 00:31:00	BASE	25.79	24	29.79	17	-0.1	87	-2.0	0	0	977.8	NA	0.0000	UP	9999	0	0	0	6860
2019/10/21 00:32:00	BASE	25.51	23	29.79	17	-0.1	87	-2.0	0	0	977.8	NA	0.0000	UP	9999	0	0	0	6760
2019/10/21 00:33:00	BASE	25.16	24	29.79	17	-0.1	87	-2.0	0	0	977.9	NA	0.0000	UP	9999	0	0	0	7090
2019/10/21 00:34:00	BASE	24.59	24	29.79	17	-0.1	87	-2.0	0	0	977.9	NA	0.0000	UP	9999	0	0	0	7510
2019/10/21 00:35:00	BASE	24.00	23	28.19	26	-0.1	87	-2.1	0	0	977.9	NA	0.0000	UP	9999	0	0	0	8370
2019/10/21 00:36:00	BASE	23.10	24	28.19	26	-0.2	87	-2.1	0	0	977.9	NA	0.0000	UP	9999	0	0	0	7380
2019/10/21 00:37:00	BASE	23.30	24	28.19	26	-0.2	87	-2.1	0	0	978.0	NA	0.0000	UP	9999	0	0	0	7220
2019/10/21 00:38:00	BASE	24.19	24	28.19	26	-0.2	87	-2.0	0	0	977.9	NA	0.0000	UP	9999	0	0	0	6430
2019/10/21 00:39:00	BASE	23.67	24	28.19	26	-0.2	88	-2.0	0	0	978.0	NA	0.0000	UP	9999	0	0	0	5770
2019/10/21 00:40:00	BASE	23.14	24	28.19	26	-0.2	88	-2.0	0	0	978.0	NA	0.0000	UP	9999	0	0	0	5410
2019/10/21 00:41:00	BASE	23.07	25	28.19	26	-0.2	88	-1.9	0	0	978.0	NA	0.0000	UP	9999	0	0	0	5710
2019/10/21 00:42:00	BASE	22.51	24	28.19	26	-0.2	88	-2.0	0	0	978.0	NA	0.0000	UP	9999	0	0	0	5610
2019/10/21 00:43:00	BASE	23.12	22	28.14	28	-0.2	88	-1.9	0	0	978.0	NA	0.0000	UP	9999	0	0	0	5580
2019/10/21 00:44:00	BASE	23.91	23	27.27	17	-0.2	88	-1.9	0	0	978.0	NA	0.0000	UP	9999	0	0	0	5380
2019/10/21 00:45:00	BASE	23.84	23	27.27	17	-0.2	89	-1.9	0	0	977.9	NA	0.0000	UP	9999	0	0	0	5150
2019/10/21 00:46:00	BASE	23.67	21	27.27	17	-0.2	89	-1.9	0	0	978.0	NA	0.0000	UP	9999	0	0	0	4890
2019/10/21 00:47:00	BASE	22.97	22	27.27	17	-0.2	89	-1.8	0	0	978.0	NA	0.0000	UP	9999	0	0	0	3250
2019/10/21 00:48:00	BASE	22.43	24	26.24	22	-0.2	89	-1.8	0	0	978.0	NA	0.0000	UP	7000	330	0	0	0
2019/10/21 00:49:00	BASE	22.22	26	26.39	22	-0.3	89	-1.8	0	0	978.0	NA	0.0000	-SN	5000	300	0	0	0
2019/10/21 00:50:00	BASE	22.98	26	29.73	24	-0.3	90	-1.8	0	0	977.9	NA	0.0000	-SN BR	4400	330	0	0	0
2019/10/21 00:51:00	BASE	23.62	24	29.73	24	-0.3	90	-1.7	0	0	977.9	NA	0.0000	-SN BR	4100	330	0	0	0
2019/10/21 00:52:00	BASE	22.64	25	29.73	24	-0.3	91	-1.7	0	0	978.0	NA	0.0000	-SN BR	3900	300	3940	0	0
2019/10/21 00:53:00	BASE	22.13	26	29.73	24	-0.3	91	-1.6	0	0	977.9	NA	0.0000	-SN BR	4200	330	0	0	0
2019/10/21 00:54:00	BASE	22.38	27	29.73	24	-0.3	91	-1.6	0	0	977.9	NA	0.0000	-SN BR	4200	330	0	0	0
2019/10/21 00:55:00	BASE	21.93	28	29.73	24	-0.3	92	-1.5	0	0	977.9	NA	0.0000	-SN BR	4000	330	0	0	0
2019/10/21 00:56:00	BASE	22.08	28	29.73	24	-0.4	92	-1.5	0	0	977.9	NA	0.0000	-SN BR	3500	330	0	0	0
2019/10/21 00:57:00	BASE	22.30	28	29.73	24	-0.4	93	-1.4	0	0	977.9	NA	0.0000	-SN BR	3700	0	0	0	3640
2019/10/21 00:58:00	BASE	22.87	30	29.73	24	-0.4	93	-1.4	0	0	977.9	NA	0.0000	-SN BR	3700	360	3120	0	0
2019/10/21 00:59:00	BASE	23.07	31	29.73	24	-0.4	93	-1.3	0	0	977.9	NA	0.0000	-SN BR	3900	330	0	0	0
2019/10/21 01:00:00	BASE	21.56	28	26.70	22	-0.4	94	-1.3	0	0	978.0	NA	0.0000	-SN BR	3700	0	0	0	3410
2019/10/21 01:01:00	BASE	20.60	27	26.08	30	-0.4	94	-1.3	0	0	977.9	NA	0.0000	-SN BR	3300	0	0	0	3410
2019/10/21 01:02:00	BASE	20.62	29	26.08	30	-0.4	94	-1.2	0	0	977.9	NA	0.0000	-SN BR	3300	260	0	0	0
2019/10/21 01:03:00	BASE	21.34	30	26.08	30	-0.4	94	-1.2	0	0	977.9	NA	0.0000	-SN BR	2700	0	0	0	3610
2019/10/21 01:04:00	BASE	22.00	30	25.72	29	-0.4	95	-1.2	0	0	977.8	NA	0.0000	-SN BR	2900	0	0	0	2660
2019/10/21 01:05:00	BASE	20.98	28	25.72	29	-0.4	95	-1.1	0	0	977.8	NA	0.0000	-SN BR	2900	260	0	0	0
2019/10/21 01:06:00	BASE	20.26	27	25.72	29	-0.4	95	-1.0	0	0	977.8	NA	0.0000	-SN BR	3600	0	0	0	2300
2019/10/21 01:07:00	BASE	20.73	29	25.72	29	-0.4	96	-1.0	0	0	977.8	NA	0.0000	-SN BR	3600	0	0	0	1840
2019/10/21 01:08:00	BASE	20.96	28	25.00	27	-0.4	96	-1.0	0	0	977.7	NA	0.0000	-SN BR	3400	0	0	0	1640
2019/10/21 01:09:00	BASE	20.94	28	24.80	26	-0.4	96	-0.9	0	0	977.7	NA	0.0000	-SN BR	3300	0	0	0	2590
2019/10/21 01:10:00	BASE	21.82	29	24.90	27	-0.4	97	-0.9	0	0	977.7	NA	0.0000	-SN BR	3000	0	0	0	3180
2019/10/21 01:11:00	BASE	23.70	29	27.57	20	-0.5	97	-0.9	0	0	977.6	NA	0.0000	-SN BR	3600	0	0	0	3380
2019/10/21 01:12:00	BASE	23.60	28	27.57	20	-0.5	98	-0.8	0	0	977.7	NA	0.0000	-SN BR	3500	0	0	0	5740
2019/10/21 01:13:00	BASE	23.41	28	27.57	20	-0.5	98	-0.7	0	0	977.6	NA	0.0000	-SN BR	3800	0	0	0	5940
2019/10/21 01:14:00	BASE	24.98	28	28.04	26	-0.4	99	-0.6	0	0	977.5	NA	0.0000	-SN BR	4400	0	0	0	5940
2019/10/21 01:15:00	BASE	26.41	25	28.71	24	-0.4	99	-0.5	0	0	977.4	NA	0.0000	-SN BR	5000	7090	0	0	0
2019/10/21 01:16:00	BASE	26.22	23	30.30	14	-0.3	100	-0.4	0	0	977.4	NA	0.0000	-SN BR	8000	6890	0	0	0
2019/10/21 01:17:00	BASE	26.65	23	30.76	22	-0.2	100	-0.3	0	0	977.3	NA	0.0000	-SN BR	9999	6860	0	0	0
2019/10/21 01:18:00	BASE	27.18	22	30.76	22	-0.1	100	-0.1	0	0	977.3	NA	0.0000	-SN BR	9999	6790	0	0	0
2019/10/21 01:19:00	BASE	27.20	22	30.76	22	-0.0	100	-0.0	0	0	977.2	NA	0.0000	-SN BR	9999	6860	0	0	0
2019/10/21 01:20:00	BASE	28.71	23	31.18	26	0.1	100	0.1	0	0	977.1	NA	0.0000	-SN BR	9999	6960	0	0	0
2019/10/21 01:21:00	BASE	28.34	23	31.18	26	0.2	100	0.1	0	0	977.2	NA	0.0000	-SN BR	9999	7320	0	0	0
2019/10/21 01:22:00	BASE	28.15	22	32.00	8	0.2	100	0.2	0	0	977.2	NA	0.0000	-SN BR	9000	7220	0	0	0
2019/10/21 01:23:00	BASE	29.60	22	32.31	22	0.3	99	0.2	0	0	977.1	NA	0.0000	-SN BR	6000	0	0	0	7350
2019/10/21 01:24:00	BASE	29.37	22	32.31	22	0.3	99	0.2	0	0	977.2	NA	0.0000	-SN BR	4200	0	0	0	7220
2019/10/21 01:25:00	BASE	27.26	24	32.31	22	0.3	98	0.1	0	0	977.3	NA	0.0000	-SN BR	4200	0	0	0	7120
2019/10/21 01:26:00	BASE	26.47	22	32.31	22	0.3	98	0.0	0	0	977.3	NA	0.0000	-SN BR	5000	0	0	0	6960
2019/10/21 01:27:00	BASE	26.68	21	32.31	22	0.3	97	-0.0	0	0	977.3	NA	0.0000	-SN BR	9000	0	0	0	6890
2019/10/21 01:28:00	BASE	25.39	23	32.31	22	0.3	97	-0.1	0	0	977.3	NA	0.0000	-SN BR	9999	0	0	0	7090
2019/10/21 01:29:00	BASE	26.55	22	32.31	22	0.3	97	-0.2	0	0	977.2	NA	0.0000	-SN BR	9999	0	0	0	6690
2019/10/21 01:30:00	BASE	28.37	22	32.31	22	0.3	97	-0.2	0	0	977.2	NA	0.0000	-SN BR	9999	0	0	0	6000
2019/10/21 01:31:00	BASE	29.32	21	32.67	18	0.3	97	-0.2	0	0	977.1	NA	0.0000	-SN BR	9999	0	0	0	5090
2019/10/21 01:32:00	BASE	29.46	21	32.67	18	0.3	97	-0.1	0	0	977.1	NA	0.0000	-SN BR	5000	0	0	0	4690
2019/10/21 01:33:00	BASE	28.35	21	32.67	18	0.3	97	-0.1	0	0	977.1	NA	0.0000	-SN BR	4400	0	0	0	4530
2019/10/21 01:34:00	BASE	28.76	21	32.67	18	0.3	97	-0.1	0	0	977.1	NA	0.0000	-SN BR	3100	0	0	0	4630
2019/10/21 01:35:00	BASE	28.61	22	32.67	18	0.4	97	-0.0	0	0	977.1	NA	0.0000	-SN BR	2700	0	0	0	4490
2019/10/21 01:36:00	BASE	28.61	23	32.67	18	0.4	97	-0.0	0	0	977.1	NA	0.0000	-SN BR	3400	0	0	0	4170
2019/10/21 01:37:00	BASE	28.71	22	32.67	18	0.4	97	-0.0	0	0	977.0	NA	0.0000	-SN BR	2900	0	0	0	4130
2019/10/21 01:38:00	BASE	27.07	22	32.67	18	0.4	97	0.0	0	0	977.2	NA	0.0000	-SN BR	2600	0	0	0	3840
2019/10/21 01:39:00	BASE	25.94	24	32.67	18	0.4	97	0.0	0	0	977.3	NA	0.0000	-SN BR	2900	0	0	0	3280
2019/10/21 01:40:00	BASE	25.53	24	32.67	18	0.3	98	0.0	0	0	977.3	NA	0.0000	-SN BR	2500	0	0	0	3450
2019/10/21 01:41:00	BASE	24.94	24	32.56	29	0.3	98	-0.0	0	0	977.2	NA	0.0000	-SN BR	3000	0	0	0	3580
2019/10/21 01:42:00	BASE	25.52	23	32.56	29	0.3	98	-0.0	0	0	977.2	NA	0.0000	-SN BR	2800	0	0	0	3350
2019/10/21 01:43:00	BASE	26.91	21	32.56	29	0.2	98	-0.0	0	0	977.1	NA	0.0000	-SN BR	2000	0	0	0	2360
2019/10/21 01:44:00	BASE	28.24	20	32.56	29	0.2	98	-0.0	0	0	977.0	NA	0.0000	-SN BR	1600	0	0	0	1870
2019/10/21 01:45:00	BASE	28.39	22	32.56	29	0.3	98	0.0	0	0	977.1	NA	0.0000	-SN BR	2500	0	0	0	1280
2019/10/21 01:46:00	BASE	27.15	25	30.71	17	0.3	99	0.1	0	0	977.2	NA	0.0000	-SN BR	2500	0	0	0	2030
2019/10/21 01:47:00	BASE	26.26	23	30.71	17	0.3	99	0.1	0	0	977.1	NA	0.0000	-SN BR	3400	0	0	0	3640
2019/10/21 01:48:00	BASE	25.79	24	30.71	17	0.3	99	0.2	0	0	977.2	NA	0.0000	-SN BR	3400	0	0	0	3250
2019/10/21 01:49:00	BASE	25.81	23	30.71	17	0.3	99	0.1	0	0	977.2	NA	0.0000	-SN BR	2900	0	0	0	3280
2019/10/21 01:50:00	BASE	25.67	22	30.71	17	0.3	99	0.1	0	0	977.2	NA	0.0000	-SN BR	3200	0	0	0	2690
2019/10/21 01:51:00	BASE	25.75	22	30.71	17	0.3	99	0.1	0	0	977.2	NA	0.0000	-SN BR	2800	330	0	0	0
2019/10/21 01:52:00	BASE	25.64	20	30.71	17	0.2	99	0.1	0	0	977.2	NA	0.0000	-SN BR	2900	0	0	0	3050
2019/10/21 01:53:00	BASE	25.65	19	30.71	17	0.2	99	0.1	0	0	977.1	NA	0.0000	-SN BR	3600	0	0	0	2400
2019/10/21 01:54:00	BASE	27.06	18	31.38	13	0.2	99	0.1	0	0	977.0	NA	0.0000	-SN BR	3900	330	0	0	0
2019/10/21 01:55:00	BASE	28.55	18	32.98	17	0.2	99	0.1	0	0	976.9	NA	0.0000	-SN BR	3200	0	0	0	2200
2019/10/21 01:56:00	BASE	28.88	18	32.98	17	0.2	99	0.1	0	0	976.9	NA	0.0000	-SN BR	3300	0	0	0	2720
2019/10/21 01:57:00	BASE	27.94	19	32.98	17	0.2	100	0.1	0	0	977.1	NA	0.0000	-SN BR	3500	0	0	0	2890
2019/10/21 01:58:00	BASE	28.77	21	32.98	17	0.2	100	0.2	0	0	976.9	NA	0.0000	-SN BR	3400	0	0	0	2560
2019/10/21 01:59:00	BASE	28.89	19	32.98	17	0.2	100	0.2	0	0	977.0	NA	0.0000	-SN BR	3900	0	0	0	2460
2019/10/21 02:00:00	BASE	27.57	18	32.98	17	0.2	100	0.2	0	0	977.0	NA	0.0000	-SN BR	3700	0	0	0	2170
2019/10/21 02:01:00	BASE	26.94	17	32.98	17	0.2	100	0.2	0	0	977.1	NA	0.0000	-SN BR	4400	0	0	0	1770
2019/10/21 02:02:00	BASE	27.45	17	33.85	14	0.2	100	0.2	0	0	977.0	NA	0.0000	-SN BR	3300	0	0	0	1870
2019/10/21 02:03:00	BASE	27.72	19	33.85	14	0.2	100	0.2	0	0	977.0	NA	0.0000	-SN BR	3300	0	0	0	1740
2019/10/21 02:04:00	BASE	26.99	18	33.85	14	0.2	100	0.2	0	0	977.0	NA	0.0000	-SN BR	3700	0	0	0	1610
2019/10/21 02:05:00	BASE	26.87	16	33.85	14	0.2	100	0.2	0	0	977.0	NA	0.0000	-SN BR	3400	0	0	0	1410
2019/10/21 02:06:00	BASE	27.52	16	33.85	14	0.2	100	0.2	0	0	976.8	NA	0.0000	-SN BR	2500	0	0	0	1180
2019/10/21 02:07:00	BASE	27.70	17	33.85	14	0.2	100	0.2	0	0	976.9	NA	0.0000	-SN BR	2000	0	0	0	1180
2019/10/21 02:08:00	BASE	28.47	18	34.11	22	0.2	100	0.2	0	0	976.7	NA	0.0000	-SN BR	1800	0	0	0	1250
2019/10/21 02:09:00	BASE	30.48	19	34.57	18	0.2	100	0.2	0	0	976.6	NA	0.0000	-SN BR	1800	0	0	0	1180
2019/10/21 02:10:00	BASE	31.41	19	34.57	14	0.1	100	0.1	0	0	976.5	NA	0.0000	-SN BR	1600	0	0	0	950
2019/10/21 02:11:00	BASE	31.92	18	34.78	20	0.1	100	0.1	0	0	976.4	NA	0.0000	-SN BR	2000	0	0	0	980
2019/10/21 02:12:00	BASE	32.37	20	34.83	20	0.1	100	0.1	0	0	976.3	NA	0.2540	-SN BR	6000	0	0	0	1020
2019/10/21 02:13:00	BASE	32.90	23	36.73	21	0.1	100	0.1	0	0	976.3	NA	0.0000	-SN BR	8000	0	0	0	1020
2019/10/21 02:14:00	BASE	33.49	21	36.73	21	0.1	100	0.1	0	0	976.2	NA	0.0000	-SN BR	5000	0	0	0	920
2019/10/21 02:15:00	BASE	33.68	20	36.73	21	0.1	100	0.1	0	0	976.2	NA	0.0000	-SN BR	3000	0	0	0	1050
2019/10/21 02:16:00	BASE	33.07	21	36.73	21	0.1	100	0.1	0	0	976.2	NA	0.0000	-SN BR	1600	0	0	0	1050
2019/10/21 02:17:00	BASE	31.21	21	36.73	21	0.1	100	0.1	0	0	976.3	NA	0.0000	-SN BR	1700	0	0	0	1380
2019/10/21 02:18:00	BASE	30.58	21	36.73	21	0.1	100	0.1	0	0	976.3	NA	0.0000	-SN BR	2400	0	0	0	1380
2019/10/21 02:19:00	BASE	30.29	23	36.73	21	0.1	100	0.1	0	0	976.3	NA	0.0000	-SN BR	2200	0	0	0	1510
2019/10/21 02:20:00	BASE	30.22	24	36.73	21	0.0	100	0.0	0	0	976.2	NA	0.0000	-SN BR	1800	0	0	0	1510
2019/10/21 02:21:00	BASE	30.71	23	36.73	21	0.0	100	0.0	0	0	976.1	NA	0.2540	-SN BR	1500	0	0	0	1540
2019/10/21 02:22:00	BASE	31.79	24	36.73	21	0.0	100	0.0	0	0	975.9	NA	0.0000	-SN BR	1700	0	0	0	1670
2019/10/21 02:23:00	BASE	32.02	24	36.42	21	0.0	100	0.0	0	0	976.0	NA	0.0000	-SN BR	1500	0	0	0	2170
2019/10/21 02:24:00	BASE	30.64	24	36.37	24	0.0	100	0.0	0	0	976.1	NA	0.0000	-SN BR	2000	0	0	0	2400
2019/10/21 02:25:00	BASE	29.98	25	36.37	24	0.1	100	0.1	0	0	976.1	NA	0.0000	-SN BR	1800	0	0	0	2460
2019/10/21 02:26:00	BASE	29.61	25	36.37	24	0.1	100	0.1	0	0	976.1	NA	0.0000	-SN BR	1800	0	0	0	2460
2019/10/21 02:27:00	BASE	30.70	23	36.37	24	0.1	100	0.1	0	0	976.0	NA	0.0000	-SN BR	2400	0	0	0	2330
2019/10/21 02:28:00	BASE	31.37	23	36.37	24	0.1	100	0.1	0	0	976.1	NA	0.0000	-SN BR	2100	0	0	0	3380
2019/10/21 02:29:00	BASE	31.04	21	36.37	24	0.2	100	0.2	0	0	976.0	NA	0.0000	-SN BR	2200	0	0	0	3310
2019/10/21 02:30:00	BASE	31.65	20	36.37	24	0.2	100	0.2	0	0	975.9	NA	0.0000	-SN BR	2200	0	0	0	2690
2019/10/21 02:31:00	BASE	32.14	21	36.37	24	0.2	100	0.2	0	0	975.9	NA	0.0000	-SN BR	2300	0	0	0	2490
2019/10/21 02:32:00	BASE	32.37	20	36.27	20	0.3	100	0.3	0	0	975.8	NA	0.0000	-SN BR	2700	0	0	0	2200
2019/10/21 02:33:00	BASE	32.98	19	36.27	20	0.3	100	0.3	0	0	975.8	NA	0.0000	-SN BR	1900	0	0	0	2530
2019/10/21 02:34:00	BASE	33.43	18	36.47	16	0.3	100	0.3	0	0	975.8	NA	0.0000	-SN BR	1600	0	0	0	2760
2019/10/21 02:35:00	BASE	32.58	17	36.47	16	0.4	100	0.4	0	0	975.9	NA	0.0000	-SN BR	2000	300	0	0	0
2019/10/21 02:36:00	BASE	32.16	20	36.47	16	0.4	100	0.4	0	0	975.7	NA	0.0000	-SN BR	1500	0	0	0	1800
2019/10/21 02:37:00	BASE	33.20	20	36.47	16	0.4	100	0.4	0	0	975.7	NA	0.0000	-SN BR	1400	0	0	0	2100
2019/10/21 02:38:00	BASE	32.81	18	36.47	16	0.4	100	0.4	0	0	975.7	NA	0.0000	-SN BR	1800	0	0	0	2130
2019/10/21 02:39:00	BASE	33.40	18	37.81	18	0.4	100	0.4	0	0	975.5	NA	0.0000	-SN BR	2100	0	0	0	2130
2019/10/21 02:40:00	BASE	35.55	19	38.74	17	0.5	100	0.5	0	0	975.5	NA	0.0000	-SN BR	2200	0	0	0	1940
2019/10/21 02:41:00	BASE	35.51	18	38.74	17	0.5	100	0.5	0	0	975.5	NA	0.0000	-SN BR	2300	0	0	0	1740
2019/10/21 02:42:00	BASE	33.22	17	38.74	17	0.5	100	0.5	0	0	975.6	NA	0.0000	-SN BR	2300	0	0	0	1800
2019/10/21 02:43:00	BASE	33.02	17	38.74	17	0.5	100	0.5	0	0	975.5	NA	0.0000	-SN BR	2200	0	0	0	1900
2019/10/21 02:44:00	BASE	34.80	18	38.74	17	0.5	100	0.5	0	0	975.4	NA	0.0000	-SN BR	2200	0	0	0	2430
2019/10/21 02:45:00	BASE	34.84	17	38.74	17	0.5	100	0.5	0	0	975.4	NA	0.0000	-SN BR	2700	0	0	0	1770
2019/10/21 02:46:00	BASE	33.73	16	38.74	17	0.6	100	0.6	0	0	975.4	NA	0.0000	-SN BR	2100	0	0	0	1540
2019/10/21 02:47:00	BASE	33.71	14	38.74	17	0.6	100	0.6	0	0	975.4	NA	0.2540	-SN BR	2500	0	0	0	2030
2019/10/21 02:48:00	BASE	34.50	14	38.74	17	0.6	100	0.6	0	0	975.3	NA	0.0000	-SN BR	2900	0	0	0	2030
2019/10/21 02:49:00	BASE	33.20	14	38.74	17	0.6	100	0.6	0	0	975.6	NA	0.0000	-SN BR	2800	0	0	0	2100
2019/10/21 02:50:00	BASE	32.92	13	38.63	21	0.7	100	0.6	0	0	975.4	NA	0.0000	-SN BR	3300	0	0	0	2000
2019/10/21 02:51:00	BASE	33.90	15	38.07	17	0.7	100	0.6	0	0	975.5	NA	0.0000	-SN BR	2400	0	0	0	2100
2019/10/21 02:52:00	BASE	33.64	16	38.07	17	0.7	100	0.6	0	0	975.4	NA	0.0000	-SN BR	2000	0	0	0	1970
2019/10/21 02:53:00	BASE	33.97	14	38.07	17	0.6	100	0.6	0	0	975.4	NA	0.0000	-SN BR	2000	0	0	0	2000
2019/10/21 02:54:00	BASE	34.99	13	41.00	17	0.6	100	0.6	0	0	975.2	NA	0.0000	-SN BR	2700	0	0	0	2030
2019/10/21 02:55:00	BASE	34.03	12	41.00	17	0.6	100	0.6	0	0	975.4	NA	0.0000	-SN BR	2700	0	0	0	1870
2019/10/21 02:56:00	BASE	33.65	12	41.00	17	0.6	100	0.6	0	0	975.3	NA	0.0000	-SN BR	2700	0	0	0	1510
2019/10/21 02:57:00	BASE	34.92	11	41.00	17	0.7	100	0.7	0	0	975.2	NA	0.0000	-SN BR	3100	0	0	0	1870
2019/10/21 02:58:00	BASE	35.92	11	41.05	8	0.7	100	0.7	0	0	975.2	NA	0.0000	-SN BR	3200	0	0	0	2000
2019/10/21 02:59:00	BASE	36.53	10	41.05	8	0.7	100	0.7	0	0	975.2	NA	0.0000	-SN BR	3200	0	0	0	1510
2019/10/21 03:00:00	BASE	35.44	10	41.05	8	0.8	100	0.8	0	0	975.4	NA	0.0000	-SN BR	2400	0	0	0	1210
2019/10/21 03:01:00	BASE	34.18	10	41.05	8	0.8	100	0.8	0	0	975.5	NA	0.0000	-SN BR	2600	0	0	0	1510
2019/10/21 03:02:00	BASE	34.63	9	41.05	8	0.8	100	0.8	0	0	975.4	NA	0.0000	-SN BR	3400	0	0	0	1380
2019/10/21 03:03:00	BASE	36.89	11	41.05	8	0.7	100	0.7	0	0	975.2	NA	0.0000	-SN BR	3000	0	0	0	1080
2019/10/21 03:04:00	BASE	38.45	13	41.88	15	0.7	100	0.7	0	0	975.2	NA	0.0000	-SN BR	2100	0	0	0	1080
2019/10/21 03:05:00	BASE	37.67	13	41.88	15	0.7	100	0.7	0	0	975.4	NA	0.0000	-SN BR	2300	0	0	0	920
2019/10/21 03:06:00	BASE	36.39	12	41.88	15	0.7	100	0.7	0	0	975.3	NA	0.0000	-SN BR	4600	0	0	0	950
2019/10/21 03:07:00	BASE	36.87	13	41.88	15	0.7	100	0.7	0	0	975.1	NA	0.0000	-SN BR	4100	0	0	0	850
2019/10/21 03:08:00	BASE	37.38	14	41.88	15	0.6	100	0.6	0	0	975.1	NA	0.2540	-SN BR	4900	0	0	0	1150
2019/10/21 03:09:00	BASE	35.82	15	41.88	15	0.6	100	0.6	0	0	975.3	NA	0.0000	-SN BR	M	0	0	0	1380
2019/10/21 03:10:00	BASE	34.93	15	41.88	15	0.5	100	0.5	0	0	975.3	NA	0.0000	-SN BR	M	0	0	0	1350
2019/10/21 03:11:00	BASE	35.71	13	41.88	15	0.5	100	0.5	0	0	975.3	NA	0.0000	-SN BR	9999	0	0	0	1540
2019/10/21 03:12:00	BASE	35.92	12	41.88	15	0.5	100	0.5	0	0	975.2	NA	0.0000	-SN BR	8000	0	0	0	1410
2019/10/21 03:13:00	BASE	36.59	15	41.88	15	0.5	100	0.5	0	0	975.1	NA	0.0000	-SN BR	4200	0	0	0	1350
2019/10/21 03:14:00	BASE	36.46	16	40.90	13	0.6	100	0.6	0	0	975.1	NA	0.0000	-SN BR	2100	0	0	0	1280
2019/10/21 03:15:00	BASE	34.85	14	40.90	13	0.6	100	0.6	0	0	975.2	NA	0.0000	-SN BR	2800	0	0	0	1120
2019/10/21 03:16:00	BASE	34.88	14	40.90	13	0.7	100	0.7	0	0	975.2	NA	0.0000	-SN BR	1900	0	0	0	1080
2019/10/21 03:17:00	BASE	35.24	14	40.90	13	0.8	100	0.8	0	0	975.2	NA	0.0000	-SN BR	2500	0	0	0	1150
2019/10/21 03:18:00	BASE	35.81	15	40.85	18	0.8	100	0.8	0	0	975.1	NA	0.0000	-SN BR	2100	0	0	0	850
2019/10/21 03:19:00	BASE	36.84	13	41.26	16	0.7	100	0.7	0	0	975.1	NA	0.0000	-SN BR	6000	0	0	0	920
2019/10/21 03:20:00	BASE	36.46	10	41.26	16	0.7	100	0.7	0	0	975.2	NA	0.0000	-SN BR	7000	0	0	0	950
2019/10/21 03:21:00	BASE	34.50	10	41.26	16	0.7	100	0.7	0	0	975.3	NA	0.0000	-SN BR	5000	0	0	0	850
2019/10/21 03:22:00	BASE	33.41	11	41.26	16	0.7	100	0.7	0	0	975.2	NA	0.0000	-SN BR	2400	0	0	0	690
2019/10/21 03:23:00	BASE	34.52	13	41.26	16	0.6	100	0.6	0	0	975.1	NA	0.0000	-SN BR	1600	0	0	0	690
2019/10/21 03:24:00	BASE	34.50	12	41.26	16	0.6	100	0.6	0	0	975.2	NA	0.0000	-SN BR	3800	0	0	0	690
2019/10/21 03:25:00	BASE	35.04	13	41.26	16	0.6	100	0.6	0	0	974.9	NA	0.0000	-SN BR	6000	0	0	0	690
2019/10/21 03:26:00	BASE	36.97	18	41.26	16	0.5	100	0.5	0	0	974.8	NA	0.0000	-SN BR	6000	0	0	0	750
2019/10/21 03:27:00	BASE	37.92	20	41.67	19	0.5	100	0.5	0	0	974.6	NA	0.0000	-SN BR	M	0	0	0	1080
2019/10/21 03:28:00	BASE	37.56	19	41.67	19	0.5	100	0.5	0	0	974.8	NA	0.0000	-SN BR	M	0	0	0	980
2019/10/21 03:29:00	BASE	37.45	15	41.67	19	0.4	100	0.4	0	0	974.7	NA	0.0000	-SN BR	9999	0	0	0	1180
2019/10/21 03:30:00	BASE	37.97	12	41.67	19	0.4	100	0.4	0	0	974.7	NA	0.2540	-SN BR	9999	0	0	0	1120
2019/10/21 03:31:00	BASE	37.84	11	41.67	19	0.4	100	0.4	0	0	974.7	NA	0.0000	-SN BR	9999	0	0	0	1210
2019/10/21 03:32:00	BASE	37.96	9	42.03	8	0.3	100	0.3	0	0	974.7	NA	0.0000	-SN BR	4500	0	0	0	1800
2019/10/21 03:33:00	BASE	38.14	10	42.03	8	0.3	100	0.3	0	0	974.8	NA	0.0000	-SN BR	2200	0	0	0	2070
2019/10/21 03:34:00	BASE	36.66	10	42.03	8	0.3	100	0.3	0	0	975.0	NA	0.0000	-SN BR	5000	0	0	0	1940
2019/10/21 03:35:00	BASE	36.54	11	42.03	8	0.3	100	0.3	0	0	974.8	NA	0.0000	-SN BR	4400	0	0	0	1640
2019/10/21 03:36:00	BASE	37.27	12	42.03	8	0.2	100	0.2	0	0	974.8	NA	0.0000	-SN BR	4200	0	0	0	1410
2019/10/21 03:37:00	BASE	37.10	12	42.03	8	0.2	100	0.2	0	0	974.8	NA	0.0000	-SN BR	4200	0	0	0	1670
2019/10/21 03:38:00	BASE	37.50	11	42.03	8	0.2	100	0.2	0	0	974.6	NA	0.0000	-SN BR	6000	0	0	0	2000
2019/10/21 03:39:00	BASE	37.74	11	42.03	8	0.2	100	0.2	0	0	974.7	NA	0.0000	-SN BR	5000	0	0	0	2000
2019/10/21 03:40:00	BASE	36.92	15	42.03	8	0.2	100	0.2	0	0	974.7	NA	0.0000	-SN BR	3400	0	0	0	2300
2019/10/21 03:41:00	BASE	36.61	15	42.29	9	0.3	100	0.3	0	0	974.6	NA	0.0000	-SN BR	3600	0	0	0	1870
2019/10/21 03:42:00	BASE	37.54	11	42.29	9	0.3	100	0.3	0	0	974.6	NA	0.0000	-SN BR	3400	0	0	0	1770
2019/10/21 03:43:00	BASE	39.14	11	43.57	9	0.3	100	0.3	0	0	974.4	NA	0.0000	-SN BR	3000	0	0	0	1710
2019/10/21 03:44:00	BASE	39.59	14	43.57	9	0.4	100	0.4	0	0	974.5	NA	0.0000	-SN BR	2900	0	0	0	1940
2019/10/21 03:45:00	BASE	38.88	14	43.57	9	0.4	100	0.4	0	0	974.4	NA	0.0000	-SN BR	2700	0	0	0	2430
2019/10/21 03:46:00	BASE	37.82	14	43.57	9	0.5	100	0.5	0	0	974.6	NA	0.0000	-SN BR	2300	0	0	0	1970
2019/10/21 03:47:00	BASE	38.13	15	43.57	9	0.5	100	0.5	0	0	974.4	NA	0.0000	-SN BR	4600	0	0	0	1840
2019/10/21 03:48:00	BASE	40.21	14	44.40	7	0.5	100	0.5	0	0	974.3	NA	0.0000	-SN BR	2300	0	0	0	1740
2019/10/21 03:49:00	BASE	40.28	13	44.40	7	0.5	100	0.5	0	0	974.3	NA	0.0000	-SN BR	1300	0	0	0	1510
2019/10/21 03:50:00	BASE	39.14	12	44.40	7	0.5	100	0.5	0	0	974.6	NA	0.0000	-SN BR	3400	0	0	0	1350
2019/10/21 03:51:00	BASE	38.15	11	44.40	7	0.5	100	0.5	0	0	974.6	NA	0.0000	-SN BR	3700	0	0	0	1250
2019/10/21 03:52:00	BASE	37.72	13	44.40	7	0.6	100	0.6	0	0	974.6	NA	0.0000	-SN BR	3000	0	0	0	1180
2019/10/21 03:53:00	BASE	39.84	14	45.32	10	0.6	100	0.6	0	0	974.3	NA	0.0000	-SN BR	2400	0	0	0	1120
2019/10/21 03:54:00	BASE	40.51	13	45.32	10	0.6	100	0.6	0	0	974.6	NA	0.0000	-SN BR	9999	0	0	0	920
2019/10/21 03:55:00	BASE	39.11	15	45.32	10	0.5	100	0.5	0	0	974.7	NA	0.0000	-SN BR	M	0	0	0	980
2019/10/21 03:56:00	BASE	38.18	17	45.32	10	0.5	100	0.5	0	0	974.8	NA	0.0000	-SN BR	M	0	0	0	1410
2019/10/21 03:57:00	BASE	37.81	15	45.32	10	0.5	100	0.5	0	0	974.8	NA	0.0000	-SN BR	9999	0	0	0	1540
2019/10/21 03:58:00	BASE	38.59	13	45.32	10	0.4	100	0.4	0	0	974.9	NA	0.0000	-SN	M	0	0	0	1440
2019/10/21 03:59:00	BASE	37.24	12	45.32	10	0.3	100	0.3	0	0	975.1	NA	0.0000	-SN	M	0	0	0	1180
2019/10/21 04:00:00	BASE	37.05	14	45.32	10	0.3	100	0.3	0	0	974.8	NA	0.0000	-SN	9999	0	0	0	1250
2019/10/21 04:01:00	BASE	38.28	15	46.45	19	0.3	100	0.3	0	0	975.0	NA	0.2540	-SN	9999	0	0	0	1570
2019/10/21 04:02:00	BASE	37.85	11	46.45	19	0.4	100	0.4	0	0	975.2	NA	0.0000	-SN	9000	0	0	0	1280
2019/10/21 04:03:00	BASE	37.55	10	46.45	19	0.4	100	0.4	0	0	975.1	NA	0.0000	-SN	3800	0	0	0	1050
2019/10/21 04:04:00	BASE	37.47	10	46.45	19	0.4	100	0.4	0	0	975.2	NA	0.0000	-SN	1900	0	0	0	980
2019/10/21 04:05:00	BASE	37.57	10	46.45	19	0.5	100	0.5	0	0	975.1	NA	0.0000	-SN	2200	0	0	0	1310
2019/10/21 04:06:00	BASE	38.52	11	46.45	19	0.5	100	0.5	0	0	975.1	NA	0.0000	-SN BR	4100	0	0	0	1080
2019/10/21 04:07:00	BASE	39.31	11	46.45	19	0.5	100	0.5	0	0	975.1	NA	0.0000	-SN BR	7000	0	0	0	1180
2019/10/21 04:08:00	BASE	39.01	11	46.45	19	0.5	100	0.5	0	0	975.1	NA	0.0000	-SN BR	9999	0	0	0	1670
2019/10/21 04:09:00	BASE	38.70	11	46.45	19	0.5	100	0.5	0	0	975.1	NA	0.0000	-SN BR	3600	0	0	0	1870
2019/10/21 04:10:00	BASE	39.11	9	46.45	19	0.5	100	0.5	0	0	975.1	NA	0.0000	-SN BR	1700	0	0	0	2300
2019/10/21 04:11:00	BASE	38.65	7	43.47	7	0.5	100	0.5	0	0	975.3	NA	0.0000	-SN BR	3400	0	0	0	2170
2019/10/21 04:12:00	BASE	38.10	8	43.47	7	0.5	100	0.5	0	0	975.3	NA	0.0000	-SN BR	3400	0	0	0	1870
2019/10/21 04:13:00	BASE	37.49	9	43.47	7	0.5	100	0.5	0	0	975.3	NA	0.0000	-SN BR	3500	0	0	0	1670
2019/10/21 04:14:00	BASE	38.51	9	43.47	8	0.5	100	0.5	0	0	975.1	NA	0.0000	-SN BR	3600	0	0	0	1670
2019/10/21 04:15:00	BASE	40.90	8	43.57	10	0.5	100	0.5	0	0	975.2	NA	0.0000	-SN BR	3500	0	0	0	1570
2019/10/21 04:16:00	BASE	40.15	9	43.57	10	0.6	100	0.6	0	0	975.3	NA	0.0000	-SN BR	3300	0	0	0	1570
2019/10/21 04:17:00	BASE	39.08	9	43.57	10	0.6	100	0.6	0	0	975.4	NA	0.0000	-SN BR	3100	0	0	0	1540
2019/10/21 04:18:00	BASE	37.76	9	43.57	10	0.6	100	0.6	0	0	975.4	NA	0.0000	-SN BR	3000	0	0	0	2170
2019/10/21 04:19:00	BASE	37.65	11	43.57	10	0.6	100	0.6	0	0	975.3	NA	0.0000	-SN BR	3100	0	0	0	2170
2019/10/21 04:20:00	BASE	39.05	12	43.57	10	0.6	100	0.6	0	0	975.3	NA	0.0000	-SN BR	2500	0	0	0	2000
2019/10/21 04:21:00	BASE	37.89	11	43.57	10	0.6	100	0.6	0	0	975.4	NA	0.0000	-SN BR	2300	0	0	0	2070
2019/10/21 04:22:00	BASE	37.35	10	43.57	10	0.6	100	0.6	0	0	975.4	NA	0.0000	-SN BR	3100	0	0	0	2070
2019/10/21 04:23:00	BASE	38.22	9	43.57	10	0.6	100	0.6	0	0	975.3	NA	0.0000	-SN BR	3600	260	0	0	0
2019/10/21 04:24:00	BASE	39.21	9	43.57	7	0.6	100	0.6	0	0	975.3	NA	0.0000	-SN BR	4000	0	0	0	1770
2019/10/21 04:25:00	BASE	39.57	8	43.57	7	0.6	100	0.6	0	0	975.3	NA	0.0000	-SN BR	5000	0	0	0	1770
2019/10/21 04:26:00	BASE	39.44	9	43.57	7	0.6	100	0.6	0	0	975.4	NA	0.0000	-SN BR	9000	330	0	0	0
2019/10/21 04:27:00	BASE	40.50	3	43.73	4	0.6	100	0.6	0	0	975.4	NA	0.0000	-SN BR	9999	430	0	0	0
2019/10/21 04:28:00	BASE	39.88	2	43.73	4	0.6	100	0.6	0	0	975.6	NA	0.0000	-SN BR	9999	360	0	0	0
2019/10/21 04:29:00	BASE	37.24	7	43.73	4	0.6	100	0.6	0	0	975.8	NA	0.0000	-SN BR	9999	360	0	0	0
2019/10/21 04:30:00	BASE	34.66	6	43.73	4	0.6	100	0.6	0	0	976.0	NA	0.0000	-SN BR	9999	330	0	0	0
2019/10/21 04:31:00	BASE	34.68	4	43.73	4	0.6	100	0.6	0	0	975.9	NA	0.0000	-SN BR	9999	0	0	0	1570
2019/10/21 04:32:00	BASE	36.41	4	43.73	4	0.6	100	0.6	0	0	975.9	NA	0.0000	-SN BR	9999	0	0	0	1610
2019/10/21 04:33:00	BASE	36.60	4	43.73	4	0.7	100	0.7	0	0	975.9	NA	0.0000	-SN BR	9999	0	0	0	1770
2019/10/21 04:34:00	BASE	36.20	4	43.73	4	0.6	100	0.6	0	0	975.9	NA	0.0000	-SN	7000	0	0	0	1770
2019/10/21 04:35:00	BASE	36.93	4	43.73	4	0.6	100	0.6	0	0	975.9	NA	0.2540	-SN	5000	0	0	0	1770
2019/10/21 04:36:00	BASE	35.94	4	43.73	4	0.6	100	0.6	0	0	976.1	NA	0.0000	-SN	9000	0	0	0	1840
2019/10/21 04:37:00	BASE	34.38	5	40.80	6	0.6	100	0.6	0	0	976.2	NA	0.0000	-SN BR	5000	0	0	0	1900
2019/10/21 04:38:00	BASE	34.24	5	39.87	2	0.6	100	0.6	0	0	976.3	NA	0.0000	-SN BR	3900	0	0	0	1900
2019/10/21 04:39:00	BASE	34.27	4	39.87	2	0.6	100	0.6	0	0	976.3	NA	0.0000	-SN BR	3900	0	0	0	1770
2019/10/21 04:40:00	BASE	33.85	4	39.87	2	0.6	100	0.6	0	0	976.4	NA	0.0000	-SN BR	4700	0	0	0	1710
2019/10/21 04:41:00	BASE	34.38	6	39.87	2	0.6	100	0.6	0	0	976.2	NA	0.0000	-SN BR	8000	0	0	0	1610
2019/10/21 04:42:00	BASE	34.64	5	39.87	2	0.6	100	0.6	0	0	976.5	NA	0.0000	-SN BR	4600	0	0	0	1710
2019/10/21 04:43:00	BASE	31.59	360	39.87	2	0.6	100	0.6	0	0	976.8	NA	0.0000	-SN BR	9000	0	0	0	1610
2019/10/21 04:44:00	BASE	30.96	353	39.87	2	0.6	100	0.6	0	0	976.7	NA	0.0000	-SN BR	9999	0	0	0	1570
2019/10/21 04:45:00	BASE	29.63	347	38.43	360	0.7	100	0.7	0	0	976.9	NA	0.0000	-SN BR	8000	360	0	0	0
2019/10/21 04:46:00	BASE	27.10	354	38.43	360	0.7	100	0.7	0	0	976.9	NA	0.0000	-SN BR	9999	330	0	0	0
2019/10/21 04:47:00	BASE	27.87	358	38.43	360	0.8	100	0.8	0	0	976.9	NA	0.0000	-SN BR	9999	300	0	0	0
2019/10/21 04:48:00	BASE	28.71	354	38.43	360	0.8	100	0.8	0	0	976.9	NA	0.2540	-SN BR	9999	0	0	0	1410
2019/10/21 04:49:00	BASE	28.17	354	38.17	6	0.8	100	0.8	0	0	977.0	NA	0.0000	-SN BR	9999	330	0	0	0
2019/10/21 04:50:00	BASE	28.42	354	38.17	6	0.8	100	0.8	0	0	977.0	NA	0.0000	-SN	9999	260	0	0	0
2019/10/21 04:51:00	BASE	29.79	352	36.42	351	0.9	100	0.9	0	0	977.0	NA	0.0000	-SN	9999	330	0	0	0
2019/10/21 04:52:00	BASE	29.17	348	36.42	351	0.9	100	0.9	0	0	977.1	NA	0.0000	-SN	9999	360	0	0	0
2019/10/21 04:53:00	BASE	28.67	347	36.42	351	0.9	100	0.9	0	0	977.1	NA	0.0000		9999	390	0	0	0
2019/10/21 04:54:00	BASE	28.38	354	36.42	351	0.9	100	0.9	0	0	977.2	NA	0.2540		9999	360	0	0	0
2019/10/21 04:55:00	BASE	29.62	357	36.42	351	0.9	100	0.9	0	0	977.0	NA	0.0000		9999	360	0	0	0
2019/10/21 04:56:00	BASE	32.05	353	36.42	351	0.9	100	0.9	0	0	977.1	NA	0.0000		9999	360	0	0	0
2019/10/21 04:57:00	BASE	30.30	351	36.42	351	0.9	100	0.9	0	0	977.3	NA	0.0000		9999	390	0	0	0
2019/10/21 04:58:00	BASE	29.01	350	36.42	351	0.9	100	0.9	0	0	977.3	NA	0.0000		9999	390	0	0	0
2019/10/21 04:59:00	BASE	29.31	352	36.42	351	0.9	100	0.9	0	0	977.4	NA	0.0000		9999	390	0	0	0
2019/10/21 05:00:00	BASE	29.32	354	36.83	353	0.9	100	0.9	0	0	977.3	NA	0.2540		9999	560	0	0	0
2019/10/21 05:01:00	BASE	29.22	353	36.83	353	0.9	100	0.9	0	0	977.5	NA	0.0000		9999	430	0	0	0
2019/10/21 05:02:00	BASE	29.08	350	36.83	353	0.9	100	0.9	0	0	977.5	NA	0.0000		9999	430	0	0	0
2019/10/21 05:03:00	BASE	28.12	347	36.83	353	0.9	100	0.9	0	0	977.7	NA	0.0000		9999	490	0	0	0
2019/10/21 05:04:00	BASE	26.54	347	36.83	353	0.8	100	0.8	0	0	977.7	NA	0.0000		9999	430	0	0	0
2019/10/21 05:05:00	BASE	27.45	351	36.83	353	0.8	100	0.8	0	0	977.6	NA	0.0000		9999	460	0	0	0
2019/10/21 05:06:00	BASE	27.90	351	36.83	353	0.8	100	0.8	0	0	977.7	NA	0.0000		9999	460	0	0	0
2019/10/21 05:07:00	BASE	27.32	351	36.83	353	0.7	100	0.7	0	0	977.6	NA	0.0000		9999	390	0	0	0
2019/10/21 05:08:00	BASE	27.66	351	36.83	353	0.7	100	0.7	0	0	977.6	NA	0.0000		9999	430	0	0	0
2019/10/21 05:09:00	BASE	27.34	354	36.83	353	0.7	100	0.7	0	0	977.7	NA	0.0000		9999	460	0	0	0
2019/10/21 05:10:00	BASE	26.31	353	33.08	355	0.7	100	0.7	0	0	977.8	NA	0.0000		9999	390	0	0	0
2019/10/21 05:11:00	BASE	26.53	351	33.08	355	0.7	100	0.7	0	0	977.7	NA	0.0000		9999	430	0	0	0
2019/10/21 05:12:00	BASE	27.56	351	32.31	349	0.7	100	0.7	0	0	977.8	NA	0.2540		9999	360	0	0	0
2019/10/21 05:13:00	BASE	27.01	349	32.00	346	0.7	100	0.7	0	0	977.9	NA	0.0000		9999	430	0	0	0
2019/10/21 05:14:00	BASE	25.70	351	32.00	346	0.7	100	0.7	0	0	977.9	NA	0.0000		9999	490	0	0	0
2019/10/21 05:15:00	BASE	27.25	357	32.00	346	0.7	100	0.7	0	0	977.8	NA	0.0000		9999	460	0	0	0
2019/10/21 05:16:00	BASE	27.40	354	32.00	346	0.7	100	0.7	0	0	978.1	NA	0.0000		9999	430	0	0	0
2019/10/21 05:17:00	BASE	25.76	346	32.00	346	0.7	100	0.7	0	0	978.2	NA	0.0000		9999	430	0	0	0
2019/10/21 05:18:00	BASE	25.18	346	31.59	344	0.7	100	0.7	0	0	978.3	NA	0.0000		9999	430	0	0	0
2019/10/21 05:19:00	BASE	24.89	346	31.59	344	0.6	100	0.6	0	0	978.3	NA	0.0000		9999	430	0	0	0
2019/10/21 05:20:00	BASE	25.92	344	31.59	344	0.6	100	0.6	0	0	978.3	NA	0.0000		9999	430	0	0	0
2019/10/21 05:21:00	BASE	25.89	343	31.59	344	0.6	100	0.6	0	0	978.4	NA	0.0000		9999	430	0	0	0
2019/10/21 05:22:00	BASE	25.67	342	31.59	344	0.6	100	0.6	0	0	978.4	NA	0.0000		9999	460	0	0	0
2019/10/21 05:23:00	BASE	25.83	342	31.59	344	0.6	100	0.6	0	0	978.5	NA	0.0000		9999	460	0	0	0
2019/10/21 05:24:00	BASE	24.75	343	31.59	344	0.6	100	0.6	0	0	978.5	NA	0.0000		9999	490	0	0	0
2019/10/21 05:25:00	BASE	24.33	345	29.48	345	0.6	100	0.6	0	0	978.5	NA	0.0000		9999	490	0	0	0
2019/10/21 05:26:00	BASE	24.41	342	29.48	345	0.6	100	0.6	0	0	978.7	NA	0.0000		9999	460	1180	0	0
2019/10/21 05:27:00	BASE	23.99	339	29.48	345	0.6	100	0.6	0	0	978.7	NA	0.0000		9999	560	0	0	0
2019/10/21 05:28:00	BASE	22.90	339	29.48	345	0.6	100	0.6	0	0	978.7	NA	0.0000		9999	490	0	0	0
2019/10/21 05:29:00	BASE	23.05	342	29.48	345	0.6	100	0.6	0	0	978.6	NA	0.0000		9999	520	0	0	0
2019/10/21 05:30:00	BASE	24.09	343	28.40	349	0.6	100	0.6	0	0	978.7	NA	0.0000		9999	460	0	0	0
2019/10/21 05:31:00	BASE	22.88	342	28.40	349	0.6	100	0.6	0	0	978.7	NA	0.0000		9999	460	0	0	0
2019/10/21 05:32:00	BASE	20.77	342	28.40	349	0.6	100	0.6	0	0	978.7	NA	0.0000		9999	430	0	0	0
2019/10/21 05:33:00	BASE	20.54	343	26.91	340	0.6	100	0.6	0	0	978.7	NA	0.0000		9999	460	0	0	0
2019/10/21 05:34:00	BASE	21.20	343	26.91	340	0.5	100	0.5	0	0	978.7	NA	0.0000		9999	460	0	0	0
2019/10/21 05:35:00	BASE	22.40	344	26.91	340	0.5	100	0.5	0	0	978.7	NA	0.0000		9999	460	0	0	0
2019/10/21 05:36:00	BASE	23.82	345	26.91	340	0.5	100	0.5	0	0	978.7	NA	0.0000		9999	590	0	0	0
2019/10/21 05:37:00	BASE	23.91	343	26.19	343	0.5	100	0.5	0	0	978.8	NA	0.0000		9999	460	0	0	0
2019/10/21 05:38:00	BASE	23.94	344	26.19	343	0.5	100	0.5	0	0	978.8	NA	0.0000		9999	460	0	0	0
2019/10/21 05:39:00	BASE	22.79	345	26.19	343	0.5	100	0.5	0	0	978.9	NA	0.0000		9999	460	0	0	0
2019/10/21 05:40:00	BASE	21.27	343	26.19	343	0.5	100	0.5	0	0	978.8	NA	0.0000		9999	460	0	0	0
2019/10/21 05:41:00	BASE	21.60	343	26.19	343	0.5	100	0.5	0	0	978.8	NA	0.0000		9999	490	0	0	0
2019/10/21 05:42:00	BASE	22.17	344	26.19	343	0.5	100	0.5	0	0	978.8	NA	0.0000		9999	460	0	0	0
2019/10/21 05:43:00	BASE	22.06	343	26.19	343	0.5	100	0.5	0	0	978.9	NA	0.0000		9999	460	0	0	0
2019/10/21 05:44:00	BASE	22.06	343	26.19	343	0.5	100	0.5	0	0	978.8	NA	0.0000		9999	460	0	0	0
2019/10/21 05:45:00	BASE	21.29	345	25.93	341	0.5	100	0.5	0	0	978.8	NA	0.0000		9999	460	0	0	0
2019/10/21 05:46:00	BASE	20.52	346	25.93	341	0.5	100	0.5	0	0	978.8	NA	0.0000		9999	460	0	0	0
2019/10/21 05:47:00	BASE	20.92	347	25.93	341	0.5	100	0.5	0	0	978.8	NA	0.0000		9999	520	0	0	0
2019/10/21 05:48:00	BASE	21.69	347	25.21	338	0.4	100	0.4	0	0	978.8	NA	0.0000		9999	460	0	0	0
2019/10/21 05:49:00	BASE	22.69	346	25.21	338	0.4	100	0.4	0	0	978.8	NA	0.0000		9999	430	0	0	0
2019/10/21 05:50:00	BASE	22.35	345	25.21	338	0.5	100	0.5	0	0	978.8	NA	0.0000		9999	460	0	0	0
2019/10/21 05:51:00	BASE	21.17	346	25.21	338	0.5	100	0.5	0	0	978.8	NA	0.0000		9999	460	0	0	0
2019/10/21 05:52:00	BASE	21.12	345	25.21	338	0.5	100	0.5	0	0	978.9	NA	0.0000		9999	520	0	0	0
2019/10/21 05:53:00	BASE	21.42	346	25.21	338	0.5	100	0.5	0	0	978.9	NA	0.0000		9999	520	0	0	0
2019/10/21 05:54:00	BASE	21.71	346	25.21	338	0.5	100	0.5	0	0	978.9	NA	0.0000		9999	520	0	0	0
2019/10/21 05:55:00	BASE	20.62	345	25.21	338	0.5	100	0.5	0	0	978.9	NA	0.0000		9999	520	0	0	0
2019/10/21 05:56:00	BASE	20.90	344	25.21	338	0.5	100	0.5	0	0	979.0	NA	0.0000		9999	520	0	0	0
2019/10/21 05:57:00	BASE	21.61	342	25.21	338	0.5	100	0.5	0	0	979.0	NA	0.0000		9999	520	0	0	0
2019/10/21 05:58:00	BASE	21.83	344	24.85	337	0.5	100	0.5	0	0	979.0	NA	0.0000		9999	560	0	0	0
2019/10/21 05:59:00	BASE	22.35	343	24.33	345	0.5	100	0.5	0	0	979.1	NA	0.0000		9999	560	0	0	0
2019/10/21 06:00:00	BASE	21.43	340	24.33	345	0.5	100	0.5	0	0	979.1	NA	0.0000		9999	560	0	0	0
2019/10/21 06:01:00	BASE	20.22	340	24.33	345	0.5	100	0.5	0	0	979.1	NA	0.0000		9999	620	0	0	0
2019/10/21 06:02:00	BASE	20.26	338	24.33	345	0.4	100	0.4	0	0	979.2	NA	0.0000		9999	590	0	0	0
2019/10/21 06:03:00	BASE	20.50	338	24.33	345	0.4	100	0.4	0	0	979.2	NA	0.0000		9999	560	0	0	0
2019/10/21 06:04:00	BASE	20.73	338	24.64	336	0.4	100	0.4	0	0	979.1	NA	0.0000		9999	590	0	0	0
2019/10/21 06:05:00	BASE	21.94	337	24.64	336	0.4	100	0.4	0	0	979.2	NA	0.0000		9999	560	0	0	0
2019/10/21 06:06:00	BASE	21.79	339	24.64	336	0.4	100	0.4	0	0	979.2	NA	0.0000		9999	690	0	0	0
2019/10/21 06:07:00	BASE	21.44	339	24.64	336	0.4	100	0.4	0	0	979.2	NA	0.0000		9999	520	0	0	0
2019/10/21 06:08:00	BASE	21.06	336	24.64	336	0.4	100	0.4	0	0	979.2	NA	0.0000		9999	560	0	0	0
2019/10/21 06:09:00	BASE	20.70	337	24.64	336	0.4	100	0.4	0	0	979.2	NA	0.0000		9999	560	0	0	0
2019/10/21 06:10:00	BASE	19.86	338	24.64	336	0.4	100	0.4	0	0	979.3	NA	0.0000		9999	520	0	0	0
2019/10/21 06:11:00	BASE	18.16	341	24.64	336	0.4	100	0.4	0	0	979.3	NA	0.0000		9999	590	0	0	0
2019/10/21 06:12:00	BASE	19.10	343	24.64	336	0.4	100	0.4	0	0	979.3	NA	0.0000		9999	590	0	0	0
2019/10/21 06:13:00	BASE	20.32	342	24.64	336	0.4	100	0.4	0	0	979.3	NA	0.0000		9999	560	0	0	0
2019/10/21 06:14:00	BASE	20.68	342	23.97	336	0.4	100	0.4	0	0	979.3	NA	0.0000		9999	590	0	0	0
2019/10/21 06:15:00	BASE	22.11	344	24.02	348	0.4	100	0.4	0	0	979.3	NA	0.0000		9999	690	0	0	0
2019/10/21 06:16:00	BASE	22.21	342	24.02	348	0.4	100	0.4	0	0	979.4	NA	0.0000		9999	620	0	0	0
2019/10/21 06:17:00	BASE	20.58	340	24.02	348	0.4	100	0.4	0	0	979.5	NA	0.0000		9999	590	0	0	0
2019/10/21 06:18:00	BASE	19.48	340	24.02	348	0.4	100	0.4	0	0	979.5	NA	0.0000		9999	590	0	0	0
2019/10/21 06:19:00	BASE	19.46	339	24.02	348	0.3	100	0.3	0	0	979.6	NA	0.0000		9999	720	0	0	0
2019/10/21 06:20:00	BASE	19.12	338	24.02	348	0.3	100	0.3	0	0	979.7	NA	0.0000		9999	790	0	0	0
2019/10/21 06:21:00	BASE	19.61	338	24.02	348	0.3	100	0.3	0	0	979.7	NA	0.0000		9999	690	0	0	0
2019/10/21 06:22:00	BASE	21.14	342	24.02	348	0.3	100	0.3	0	0	979.6	NA	0.0000		9999	720	0	0	0
2019/10/21 06:23:00	BASE	20.92	344	24.02	348	0.3	100	0.3	0	0	979.8	NA	0.0000		9999	660	0	0	0
2019/10/21 06:24:00	BASE	19.37	340	24.02	348	0.3	100	0.3	0	0	979.8	NA	0.0000		9999	750	0	0	0
2019/10/21 06:25:00	BASE	19.22	336	23.77	335	0.3	100	0.3	0	0	979.9	NA	0.0000		9999	790	0	0	0
2019/10/21 06:26:00	BASE	19.10	338	23.77	335	0.3	100	0.3	0	0	979.9	NA	0.0000		9999	750	0	0	0
2019/10/21 06:27:00	BASE	18.50	341	23.77	335	0.3	100	0.3	0	0	979.9	NA	0.0000		9999	790	0	0	0
2019/10/21 06:28:00	BASE	18.58	342	23.77	335	0.3	100	0.3	0	0	979.9	NA	0.0000		9999	750	0	0	0
2019/10/21 06:29:00	BASE	18.08	341	23.77	335	0.3	100	0.3	0	0	980.0	NA	0.0000		9999	750	0	0	0
2019/10/21 06:30:00	BASE	17.96	337	23.77	335	0.3	100	0.3	0	0	980.1	NA	0.0000		9999	720	0	0	0
2019/10/21 06:31:00	BASE	18.28	338	23.77	335	0.3	100	0.3	0	0	980.1	NA	0.0000		9999	790	0	0	0
2019/10/21 06:32:00	BASE	18.04	339	21.45	339	0.3	100	0.3	0	0	980.1	NA	0.0000		9999	820	0	0	0
2019/10/21 06:33:00	BASE	17.35	341	21.35	331	0.3	100	0.3	0	0	980.1	NA	0.0000		9999	790	0	0	0
2019/10/21 06:34:00	BASE	17.43	343	21.35	331	0.3	100	0.3	0	0	980.1	NA	0.0000		9999	790	0	0	0
2019/10/21 06:35:00	BASE	17.48	341	20.06	343	0.3	100	0.3	0	0	980.1	NA	0.0000		9999	750	0	0	0
2019/10/21 06:36:00	BASE	15.96	340	20.06	343	0.3	100	0.3	0	0	980.2	NA	0.0000		9999	750	0	0	0
2019/10/21 06:37:00	BASE	16.00	338	20.06	343	0.3	100	0.3	0	0	980.2	NA	0.0000		9999	750	0	0	0
2019/10/21 06:38:00	BASE	16.75	336	19.81	346	0.3	100	0.3	0	0	980.3	NA	0.0000		9999	790	0	0	0
2019/10/21 06:39:00	BASE	15.87	336	19.81	346	0.3	100	0.3	0	0	980.4	NA	0.0000		9999	790	0	0	0
2019/10/21 06:40:00	BASE	15.10	340	19.81	346	0.3	100	0.3	0	0	980.4	NA	0.0000		9999	660	0	0	0
2019/10/21 06:41:00	BASE	15.86	346	19.81	346	0.3	100	0.3	0	0	980.4	NA	0.0000		9999	750	0	0	0
2019/10/21 06:42:00	BASE	17.61	349	19.91	346	0.3	100	0.3	0	0	980.4	NA	0.0000		9999	720	0	0	0
2019/10/21 06:43:00	BASE	18.73	348	20.68	347	0.3	100	0.3	0	0	980.4	NA	0.0000		9999	720	0	0	0
2019/10/21 06:44:00	BASE	18.29	346	20.68	347	0.4	100	0.4	0	0	980.5	NA	0.0000		9999	690	0	0	0
2019/10/21 06:45:00	BASE	17.20	348	20.68	347	0.4	100	0.4	0	0	980.6	NA	0.0000		9999	690	0	0	0
2019/10/21 06:46:00	BASE	16.71	349	20.68	347	0.4	100	0.4	0	0	980.6	NA	0.0000		9999	690	0	0	0
2019/10/21 06:47:00	BASE	17.11	348	20.68	347	0.4	100	0.4	0	0	980.6	NA	0.0000		9999	690	0	0	0
2019/10/21 06:48:00	BASE	17.43	348	20.68	347	0.4	100	0.4	0	0	980.6	NA	0.0000		9999	720	0	0	0
2019/10/21 06:49:00	BASE	16.73	349	20.68	347	0.4	100	0.4	0	0	980.7	NA	0.0000		9999	660	0	0	0
2019/10/21 06:50:00	BASE	17.38	348	20.68	347	0.4	100	0.4	0	0	980.7	NA	0.0000		9999	720	0	0	0
2019/10/21 06:51:00	BASE	18.41	350	20.68	347	0.4	100	0.4	0	0	980.7	NA	0.0000		9999	690	0	0	0
2019/10/21 06:52:00	BASE	17.16	353	20.68	347	0.4	100	0.4	0	0	980.8	NA	0.0000		9999	720	0	0	0
2019/10/21 06:53:00	BASE	15.71	353	20.11	347	0.4	100	0.4	0	0	980.8	NA	0.0000		9999	660	0	0	0
2019/10/21 06:54:00	BASE	14.95	353	20.11	347	0.4	100	0.4	0	0	980.8	NA	0.0000		9999	690	0	0	0
2019/10/21 06:55:00	BASE	14.58	353	20.11	347	0.4	100	0.4	0	0	980.8	NA	0.0000		9999	720	0	0	0
2019/10/21 06:56:00	BASE	14.69	351	20.11	347	0.5	100	0.5	0	0	980.9	NA	0.0000		9999	660	0	0	0
2019/10/21 06:57:00	BASE	14.58	351	20.11	347	0.5	100	0.5	0	0	980.9	NA	0.0000		9999	850	0	0	0
2019/10/21 06:58:00	BASE	13.93	353	20.11	347	0.5	100	0.5	0	0	980.9	NA	0.0000		9999	790	0	0	0
2019/10/21 06:59:00	BASE	14.35	355	19.70	355	0.5	100	0.5	0	0	980.9	NA	0.0000		9999	620	0	0	0
2019/10/21 07:00:00	BASE	14.81	355	19.55	351	0.5	100	0.5	0	0	980.9	NA	0.0000		9999	820	0	0	0
2019/10/21 07:01:00	BASE	15.17	358	17.90	351	0.5	100	0.5	0	0	980.9	NA	0.0000		9999	720	0	0	0
2019/10/21 07:02:00	BASE	16.32	359	18.31	1	0.5	100	0.5	0	0	980.9	NA	0.0000		9999	980	0	0	0
2019/10/21 07:03:00	BASE	16.71	357	19.14	353	0.5	100	0.5	0	0	980.9	NA	0.0000		9999	750	0	0	0
2019/10/21 07:04:00	BASE	16.85	360	19.14	353	0.5	100	0.5	0	0	980.9	NA	0.0000		9999	850	0	0	0
2019/10/21 07:05:00	BASE	16.69	2	19.14	353	0.5	100	0.5	0	0	980.9	NA	0.0000		9999	950	0	0	0
2019/10/21 07:06:00	BASE	16.50	2	19.14	353	0.5	100	0.5	0	0	980.9	NA	0.0000		9999	520	0	0	0
2019/10/21 07:07:00	BASE	16.31	2	19.14	353	0.5	100	0.5	0	0	980.9	NA	0.0000		9999	920	0	0	0
2019/10/21 07:08:00	BASE	16.18	2	19.14	353	0.5	100	0.5	0	0	980.9	NA	0.0000		9999	750	0	0	0
2019/10/21 07:09:00	BASE	16.72	2	19.14	353	0.5	100	0.5	0	0	981.0	NA	0.0000		9999	1020	0	0	0
2019/10/21 07:10:00	BASE	17.03	358	19.14	353	0.5	100	0.5	0	0	981.0	NA	0.0000		9999	920	0	0	0
2019/10/21 07:11:00	BASE	16.82	358	19.14	353	0.5	100	0.5	0	0	980.9	NA	0.0000		9999	920	0	0	0
2019/10/21 07:12:00	BASE	16.93	359	19.14	353	0.5	100	0.5	0	0	980.9	NA	0.0000		9999	920	0	0	0
2019/10/21 07:13:00	BASE	17.92	357	20.06	360	0.5	100	0.5	0	0	980.9	NA	0.0000		9999	920	0	0	0
2019/10/21 07:14:00	BASE	18.29	0	20.06	360	0.5	100	0.5	0	0	980.9	NA	0.0000		9999	750	0	0	0
2019/10/21 07:15:00	BASE	17.70	4	20.06	360	0.5	100	0.5	0	0	980.9	NA	0.0000		9999	660	0	0	0
2019/10/21 07:16:00	BASE	17.38	4	20.06	360	0.4	100	0.4	0	0	980.9	NA	0.0000		9999	560	0	0	0
2019/10/21 07:17:00	BASE	17.03	1	20.06	360	0.4	100	0.4	0	0	980.9	NA	0.0000		9999	1210	0	0	0
2019/10/21 07:18:00	BASE	16.19	0	20.06	360	0.4	100	0.4	0	0	980.9	NA	0.0000		9999	690	0	0	0
2019/10/21 07:19:00	BASE	16.10	3	20.06	360	0.4	100	0.4	0	0	980.9	NA	0.0000		9999	690	0	0	0
2019/10/21 07:20:00	BASE	17.45	3	20.06	360	0.4	100	0.4	0	0	980.9	NA	0.0000		9999	850	0	0	0
2019/10/21 07:21:00	BASE	18.23	3	20.06	360	0.4	100	0.4	0	0	980.9	NA	0.0000		9999	950	0	0	0
2019/10/21 07:22:00	BASE	17.78	3	20.06	360	0.4	100	0.4	0	0	981.0	NA	0.0000		9999	890	0	0	0
2019/10/21 07:23:00	BASE	17.47	360	19.45	3	0.4	100	0.4	0	0	981.0	NA	0.0000		9999	660	0	0	0
2019/10/21 07:24:00	BASE	16.73	358	19.24	4	0.4	100	0.4	0	0	981.0	NA	0.0000		9999	790	0	0	0
2019/10/21 07:25:00	BASE	16.25	1	19.24	4	0.4	100	0.4	0	0	981.0	NA	0.0000		9999	890	0	0	0
2019/10/21 07:26:00	BASE	15.81	1	19.24	4	0.4	100	0.4	0	0	981.0	NA	0.0000		9999	950	0	0	0
2019/10/21 07:27:00	BASE	15.48	356	19.24	4	0.4	100	0.4	0	0	981.0	NA	0.0000		9999	1020	0	0	0
2019/10/21 07:28:00	BASE	16.41	354	19.24	4	0.4	100	0.4	0	0	981.0	NA	0.0000		9999	1150	0	0	0
2019/10/21 07:29:00	BASE	18.25	349	22.28	1	0.4	100	0.4	0	0	980.9	NA	0.0000		9999	920	0	0	0
2019/10/21 07:30:00	BASE	19.65	345	22.28	1	0.4	100	0.4	0	0	980.9	NA	0.0000		9999	850	0	0	0
2019/10/21 07:31:00	BASE	19.88	350	22.28	1	0.4	100	0.4	0	0	980.9	NA	0.0000		9999	920	0	0	0
2019/10/21 07:32:00	BASE	19.16	351	22.28	1	0.4	100	0.4	0	0	981.0	NA	0.0000		9999	980	0	0	0
2019/10/21 07:33:00	BASE	18.37	353	22.28	1	0.4	100	0.4	0	0	981.0	NA	0.0000		9999	1510	0	0	0
2019/10/21 07:34:00	BASE	16.66	350	22.28	1	0.5	100	0.5	0	0	981.0	NA	0.0000		9999	1150	1670	0	0
2019/10/21 07:35:00	BASE	13.58	343	22.28	1	0.5	100	0.5	0	0	981.1	NA	0.0000		9999	1250	11780	0	0
2019/10/21 07:36:00	BASE	11.71	342	22.28	1	0.5	100	0.5	0	0	981.2	NA	0.0000		9999	11750	0	0	0
2019/10/21 07:37:00	BASE	11.36	343	22.28	1	0.4	100	0.4	0	0	981.2	NA	0.0000		9999	1640	11780	0	0
2019/10/21 07:38:00	BASE	12.09	347	22.28	1	0.4	100	0.4	0	0	981.2	NA	0.0000		9999	950	0	0	0
2019/10/21 07:39:00	BASE	12.91	347	21.30	350	0.4	100	0.4	0	0	981.2	NA	0.0000		9999	11780	0	0	0
2019/10/21 07:40:00	BASE	13.86	344	21.30	350	0.3	100	0.3	0	0	981.2	NA	0.0000		9999	1710	0	0	0
2019/10/21 07:41:00	BASE	14.76	344	20.63	353	0.3	100	0.3	0	0	981.1	NA	0.0000		9999	1050	11780	0	0
2019/10/21 07:42:00	BASE	15.82	352	21.30	18	0.3	100	0.3	0	0	981.1	NA	0.0000		9999	0	0	0	0
2019/10/21 07:43:00	BASE	17.96	7	21.30	18	0.4	100	0.4	0	0	981.0	NA	0.0000		9999	0	0	0	0
2019/10/21 07:44:00	BASE	19.92	15	22.84	14	0.4	100	0.4	0	0	981.0	NA	0.0000		9999	0	0	0	0
2019/10/21 07:45:00	BASE	22.00	20	24.38	22	0.4	100	0.4	0	0	980.9	NA	0.0000		9999	0	0	0	0
2019/10/21 07:46:00	BASE	22.99	24	25.21	28	0.5	100	0.5	0	0	980.9	NA	0.0000		9999	0	0	0	0
2019/10/21 07:47:00	BASE	21.65	27	25.21	28	0.5	100	0.5	0	0	980.9	NA	0.0000		9999	0	0	0	0
2019/10/21 07:48:00	BASE	21.52	26	25.93	19	0.6	100	0.6	0	0	980.8	NA	0.0000		9999	0	0	0	0
2019/10/21 07:49:00	BASE	22.37	25	25.93	19	0.6	100	0.6	0	0	980.9	NA	0.0000		9999	0	0	0	0
2019/10/21 07:50:00	BASE	22.15	26	25.93	19	0.6	100	0.6	0	0	980.9	NA	0.0000		9999	0	0	0	0
2019/10/21 07:51:00	BASE	21.54	26	25.93	19	0.7	100	0.7	0	0	981.0	NA	0.0000		9999	0	0	0	0
2019/10/21 07:52:00	BASE	20.99	25	25.93	19	0.7	100	0.7	0	0	981.0	NA	0.0000		9999	0	0	0	0
2019/10/21 07:53:00	BASE	20.71	25	25.93	19	0.7	100	0.7	0	0	980.9	NA	0.0000		9999	0	0	0	0
2019/10/21 07:54:00	BASE	21.02	24	25.93	19	0.7	100	0.7	0	0	980.9	NA	0.0000		9999	0	0	0	0
2019/10/21 07:55:00	BASE	20.52	24	25.93	19	0.7	100	0.7	0	0	981.0	NA	0.0000		9999	0	0	0	0
2019/10/21 07:56:00	BASE	19.69	25	25.93	19	0.8	100	0.8	0	0	981.0	NA	0.0000		9999	0	0	0	0
2019/10/21 07:57:00	BASE	19.43	25	25.93	19	0.8	100	0.8	0	0	981.0	NA	0.0000		9999	0	0	0	0
2019/10/21 07:58:00	BASE	18.93	23	23.87	31	0.8	100	0.8	0	0	981.0	NA	0.0000		9999	0	0	0	0
2019/10/21 07:59:00	BASE	19.32	22	23.87	31	0.8	100	0.8	0	0	981.0	NA	0.0000		9999	0	0	0	0
2019/10/21 08:00:00	BASE	19.24	23	23.87	31	0.8	100	0.8	0	0	981.0	NA	0.0000		9999	0	0	0	0
2019/10/21 08:01:00	BASE	18.76	25	23.66	26	0.8	100	0.8	0	0	981.0	NA	0.0000		9999	0	0	0	0
2019/10/21 08:02:00	BASE	19.44	27	23.66	26	0.8	100	0.8	0	0	981.0	NA	0.0000		9999	0	0	0	0
2019/10/21 08:03:00	BASE	20.16	27	23.66	26	0.9	100	0.9	0	0	981.0	NA	0.0000		9999	11680	0	0	0
2019/10/21 08:04:00	BASE	20.78	26	23.41	20	0.9	100	0.9	0	0	980.9	NA	0.0000		9999	11610	0	0	0
2019/10/21 08:05:00	BASE	21.32	24	23.92	29	1.0	100	1.0	0	0	981.0	NA	0.0000		9999	11550	0	0	0
2019/10/21 08:06:00	BASE	21.58	24	23.92	29	1.0	100	1.0	0	0	980.9	NA	0.0000		9999	11450	0	0	0
2019/10/21 08:07:00	BASE	22.60	26	24.90	27	1.1	100	1.0	0	0	980.9	NA	0.0000		9999	11290	0	0	0
2019/10/21 08:08:00	BASE	22.80	26	24.90	27	1.1	100	1.1	0	0	980.9	NA	0.0000		9999	11250	0	0	0
2019/10/21 08:09:00	BASE	22.79	26	25.41	24	1.1	99	1.0	0	0	980.9	NA	0.0000		9999	11060	0	0	0
2019/10/21 08:10:00	BASE	22.59	26	25.41	24	1.2	99	1.0	0	0	980.9	NA	0.0000		9999	10990	0	0	0
2019/10/21 08:11:00	BASE	22.45	27	25.83	25	1.2	98	0.9	0	0	980.9	NA	0.0000		9999	10730	0	0	0
2019/10/21 08:12:00	BASE	23.17	27	25.83	25	1.2	97	0.8	0	0	980.9	NA	0.0000		9999	10660	0	0	0
2019/10/21 08:13:00	BASE	22.28	28	25.83	25	1.2	97	0.7	0	0	980.9	NA	0.0000		9999	10530	0	0	0
2019/10/21 08:14:00	BASE	21.11	28	25.83	25	1.2	96	0.7	0	0	980.9	NA	0.0000		9999	10400	0	0	0
2019/10/21 08:15:00	BASE	20.62	28	25.83	25	1.2	96	0.7	0	0	980.9	NA	0.0000		9999	10400	0	0	0
2019/10/21 08:16:00	BASE	20.31	29	25.83	25	1.3	96	0.7	0	0	980.9	NA	0.0000		9999	10370	0	0	0
2019/10/21 08:17:00	BASE	20.67	31	25.83	25	1.3	95	0.6	0	0	980.9	NA	0.0000		9999	10270	0	0	0
2019/10/21 08:18:00	BASE	20.54	30	25.83	25	1.3	95	0.6	0	0	980.9	NA	0.0000		9999	10270	0	0	0
2019/10/21 08:19:00	BASE	20.39	30	25.83	25	1.3	95	0.6	0	0	980.9	NA	0.0000		9999	10270	0	0	0
2019/10/21 08:20:00	BASE	21.25	30	25.83	25	1.4	94	0.5	0	0	980.9	NA	0.0000		9999	10300	0	0	0
2019/10/21 08:21:00	BASE	21.48	30	24.23	31	1.4	94	0.5	0	0	980.9	NA	0.0000		9999	10270	0	0	0
2019/10/21 08:22:00	BASE	20.35	30	24.02	29	1.4	93	0.4	0	0	981.0	NA	0.0000		9999	10240	0	0	0
2019/10/21 08:23:00	BASE	19.99	28	24.02	29	1.4	93	0.4	0	0	980.9	NA	0.0000		9999	10240	0	0	0
2019/10/21 08:24:00	BASE	21.29	29	24.69	31	1.4	93	0.4	0	0	980.9	NA	0.0000		9999	10200	0	0	0
2019/10/21 08:25:00	BASE	21.94	30	24.69	31	1.5	92	0.3	0	0	980.9	NA	0.0000		9999	10140	0	0	0
2019/10/21 08:26:00	BASE	22.64	29	24.69	31	1.5	92	0.3	0	0	980.9	NA	0.0000		9999	10170	0	0	0
2019/10/21 08:27:00	BASE	22.27	30	24.69	31	1.5	91	0.2	0	0	981.0	NA	0.0000		9999	10140	0	0	0
2019/10/21 08:28:00	BASE	21.43	31	24.69	31	1.5	91	0.2	0	0	981.0	NA	0.0000		9999	10140	0	0	0
2019/10/21 08:29:00	BASE	22.55	33	25.31	27	1.5	91	0.1	0	0	981.0	NA	0.0000		9999	10140	0	0	0
2019/10/21 08:30:00	BASE	23.04	32	25.31	27	1.4	91	0.2	0	0	981.0	NA	0.0000		9999	10140	0	0	0
2019/10/21 08:31:00	BASE	22.94	31	25.31	33	1.4	91	0.2	0	0	981.0	NA	0.0000		9999	10140	0	0	0
2019/10/21 08:32:00	BASE	23.28	32	25.31	33	1.4	92	0.2	0	0	981.0	NA	0.0000		9999	10070	0	0	0
2019/10/21 08:33:00	BASE	23.27	34	25.88	36	1.4	92	0.2	0	0	981.0	NA	0.0000		9999	10170	0	0	0
2019/10/21 08:34:00	BASE	23.20	36	25.88	36	1.4	92	0.2	0	0	981.0	NA	0.0000		9999	9380	0	0	0
2019/10/21 08:35:00	BASE	23.11	37	25.88	36	1.4	92	0.2	0	0	980.9	NA	0.0000		9999	10070	0	0	0
2019/10/21 08:36:00	BASE	23.11	38	25.88	36	1.4	92	0.2	1	0	980.9	NA	0.0000		9999	9060	10240	0	0
2019/10/21 08:37:00	BASE	22.41	37	25.88	36	1.4	92	0.3	1	0	980.9	NA	0.0000		9999	8600	10300	0	0
2019/10/21 08:38:00	BASE	21.83	37	25.88	36	1.4	92	0.3	2	0	981.0	NA	0.0000		9999	8500	0	0	0
2019/10/21 08:39:00	BASE	22.51	36	25.88	36	1.4	92	0.3	2	0	980.9	NA	0.0000		9999	10370	0	0	0
2019/10/21 08:40:00	BASE	23.19	37	25.88	36	1.5	92	0.2	2	0	980.9	NA	0.0000		9999	8530	0	0	0
2019/10/21 08:41:00	BASE	23.24	38	25.88	36	1.5	91	0.2	3	0	981.0	NA	0.0000		9999	10430	0	0	0
2019/10/21 08:42:00	BASE	22.33	37	25.88	36	1.5	91	0.2	3	0	981.0	NA	0.0000		9999	9350	0	0	0
2019/10/21 08:43:00	BASE	21.65	37	25.83	40	1.5	91	0.2	3	0	981.0	NA	0.0000		9999	10470	0	0	0
2019/10/21 08:44:00	BASE	21.87	38	25.83	40	1.6	90	0.2	4	0	981.0	NA	0.0000		9999	10400	0	0	0
2019/10/21 08:45:00	BASE	21.23	39	25.83	40	1.6	90	0.1	4	0	981.0	NA	0.0000		9999	8240	0	0	0
2019/10/21 08:46:00	BASE	20.53	39	25.46	43	1.6	90	0.1	4	0	981.0	NA	0.0000		9999	10830	0	0	0
2019/10/21 08:47:00	BASE	20.23	39	25.46	43	1.6	89	0.0	4	0	981.0	NA	0.0000		9999	10760	0	0	0
2019/10/21 08:48:00	BASE	19.64	38	25.46	43	1.7	89	-0.0	5	0	981.0	NA	0.0000		9999	9710	0	0	0
2019/10/21 08:49:00	BASE	20.03	39	25.46	43	1.7	88	-0.1	5	0	981.1	NA	0.0000		9999	8960	0	0	0
2019/10/21 08:50:00	BASE	20.44	39	25.46	43	1.7	87	-0.1	5	0	981.1	NA	0.0000		9999	11060	0	0	0
2019/10/21 08:51:00	BASE	20.50	40	25.00	35	1.8	87	-0.2	5	0	981.1	NA	0.0000		9999	9320	0	0	0
2019/10/21 08:52:00	BASE	20.92	41	25.00	35	1.8	86	-0.3	6	0	981.1	NA	0.0000		9999	8530	10730	0	0
2019/10/21 08:53:00	BASE	20.86	39	25.00	35	1.9	85	-0.4	6	0	981.2	NA	0.0000		9999	8240	0	0	0
2019/10/21 08:54:00	BASE	20.66	38	23.15	31	1.9	84	-0.5	7	0	981.2	NA	0.0000		9999	8370	9380	0	0
2019/10/21 08:55:00	BASE	20.88	40	23.25	42	1.9	83	-0.6	7	0	981.2	NA	0.0000		9999	8040	10170	0	0
2019/10/21 08:56:00	BASE	21.03	40	23.25	42	2.0	82	-0.7	8	0	981.2	NA	0.0000		9999	8530	0	0	0
2019/10/21 08:57:00	BASE	20.52	41	23.25	42	2.0	82	-0.8	8	0	981.2	NA	0.0000		9999	8200	0	0	0
2019/10/21 08:58:00	BASE	20.18	40	23.25	42	2.0	81	-0.9	8	0	981.2	NA	0.0000		9999	8790	0	0	0
2019/10/21 08:59:00	BASE	19.90	39	23.25	42	2.0	80	-1.0	9	0	981.3	NA	0.0000		9999	9020	0	0	0
2019/10/21 09:00:00	BASE	19.91	40	24.18	40	2.0	80	-1.1	9	0	981.2	NA	0.0000		9999	8400	0	0	0
2019/10/21 09:01:00	BASE	20.40	39	24.18	40	2.0	79	-1.2	9	0	981.2	NA	0.0000		9999	8530	0	0	0
2019/10/21 09:02:00	BASE	19.89	39	24.18	40	2.0	79	-1.2	9	0	981.2	NA	0.0000		9999	10860	0	0	0
2019/10/21 09:03:00	BASE	19.31	40	24.18	40	2.1	78	-1.3	9	0	981.2	NA	0.0000		9999	7910	0	0	0
2019/10/21 09:04:00	BASE	19.70	39	24.18	40	2.1	78	-1.3	10	0	981.2	NA	0.0000		9999	9350	0	0	0
2019/10/21 09:05:00	BASE	19.65	41	24.18	40	2.2	78	-1.3	10	0	981.2	NA	0.0000		9999	8010	0	0	0
2019/10/21 09:06:00	BASE	19.61	41	24.18	40	2.2	77	-1.4	11	0	981.2	NA	0.0000		9999	10340	0	0	0
2019/10/21 09:07:00	BASE	19.78	41	24.18	40	2.3	77	-1.4	12	0	981.2	NA	0.0000		9999	7970	0	0	0
2019/10/21 09:08:00	BASE	19.82	41	24.18	40	2.3	76	-1.5	13	0	981.2	NA	0.0000		9999	8170	0	0	0
2019/10/21 09:09:00	BASE	20.70	40	24.18	40	2.3	76	-1.5	14	0	981.2	NA	0.0000		9999	8240	9220	0	0
2019/10/21 09:10:00	BASE	20.77	37	23.15	39	2.3	75	-1.6	15	0	981.2	NA	0.0000		9999	9840	0	0	0
2019/10/21 09:11:00	BASE	19.93	39	23.15	39	2.3	75	-1.6	16	0	981.2	NA	0.0000		9999	8010	0	0	0
2019/10/21 09:12:00	BASE	19.74	40	23.15	39	2.3	75	-1.7	16	0	981.2	NA	0.0000		9999	9710	0	0	0
2019/10/21 09:13:00	BASE	20.58	40	23.30	38	2.3	75	-1.6	17	0	981.2	NA	0.0000		9999	8430	0	0	0
2019/10/21 09:14:00	BASE	20.41	40	23.30	38	2.4	75	-1.6	17	0	981.2	NA	0.0000		9999	9880	0	0	0
2019/10/21 09:15:00	BASE	19.25	38	23.30	38	2.3	75	-1.6	17	0	981.2	NA	0.0000		9999	10040	0	0	0
2019/10/21 09:16:00	BASE	19.93	38	23.30	31	2.3	75	-1.6	17	0	981.2	NA	0.0000		9999	10170	0	0	0
2019/10/21 09:17:00	BASE	20.74	38	23.30	31	2.3	75	-1.6	17	0	981.3	NA	0.0000		9999	10560	0	0	0
2019/10/21 09:18:00	BASE	20.51	37	23.30	31	2.3	76	-1.6	17	0	981.2	NA	0.0000		9999	10600	0	0	0
2019/10/21 09:19:00	BASE	20.08	35	23.30	31	2.3	76	-1.6	16	0	981.3	NA	0.0000		9999	9420	0	0	0
2019/10/21 09:20:00	BASE	19.98	33	23.30	31	2.3	76	-1.5	15	0	981.3	NA	0.0000		9999	8500	0	0	0
2019/10/21 09:21:00	BASE	19.95	33	23.30	31	2.3	76	-1.5	15	0	981.4	NA	0.0000		9999	8140	0	0	0
2019/10/21 09:22:00	BASE	19.78	32	23.30	31	2.2	76	-1.6	15	0	981.4	NA	0.0000		9999	9380	0	0	0
2019/10/21 09:23:00	BASE	20.73	33	23.30	31	2.2	76	-1.6	16	0	981.4	NA	0.0000		9999	9550	0	0	0
2019/10/21 09:24:00	BASE	21.13	36	23.30	31	2.2	76	-1.6	16	0	981.4	NA	0.0000		9999	9450	0	0	0
2019/10/21 09:25:00	BASE	20.50	35	23.30	31	2.3	76	-1.6	16	0	981.4	NA	0.0000		9999	8560	0	0	0
2019/10/21 09:26:00	BASE	20.22	34	23.00	40	2.3	76	-1.6	16	0	981.4	NA	0.0000		9999	9060	0	0	0
2019/10/21 09:27:00	BASE	20.10	35	23.00	40	2.3	75	-1.6	16	0	981.4	NA	0.0000		9999	8500	0	0	0
2019/10/21 09:28:00	BASE	19.95	39	23.00	40	2.4	75	-1.7	17	0	981.4	NA	0.0000		9999	9290	0	0	0
2019/10/21 09:29:00	BASE	20.62	39	23.20	40	2.4	75	-1.7	18	0	981.4	NA	0.0000		9999	9250	0	0	0
2019/10/21 09:30:00	BASE	20.56	39	23.20	40	2.4	74	-1.7	19	0	981.4	NA	0.0000		9999	8860	0	0	0
2019/10/21 09:31:00	BASE	19.00	38	23.20	40	2.4	74	-1.7	20	0	981.5	NA	0.0000		9999	8760	0	0	0
2019/10/21 09:32:00	BASE	18.99	37	23.20	40	2.5	74	-1.7	22	0	981.5	NA	0.0000		9999	9650	0	0	0
2019/10/21 09:33:00	BASE	20.16	36	23.20	40	2.5	74	-1.7	24	0	981.5	NA	0.0000		9999	9090	0	0	0
2019/10/21 09:34:00	BASE	20.41	36	23.20	40	2.6	73	-1.7	26	0	981.5	NA	0.0000		9999	7510	0	0	0
2019/10/21 09:35:00	BASE	19.23	35	23.20	40	2.6	73	-1.8	28	0	981.5	NA	0.0000		9999	0	0	0	0
2019/10/21 09:36:00	BASE	18.21	35	23.20	40	2.6	72	-1.9	28	0	981.5	NA	0.0000		9999	10010	0	0	0
2019/10/21 09:37:00	BASE	17.61	36	23.20	40	2.6	72	-2.0	28	0	981.5	NA	0.0000		9999	10470	0	0	0
2019/10/21 09:38:00	BASE	16.58	35	23.20	40	2.6	72	-2.0	28	0	981.5	NA	0.0000		9999	10300	0	0	0
2019/10/21 09:39:00	BASE	16.33	31	22.07	37	2.5	72	-2.1	28	0	981.5	NA	0.0000		9999	10040	0	0	0
2019/10/21 09:40:00	BASE	17.05	31	22.07	37	2.4	72	-2.1	28	0	981.5	NA	0.0000		9999	10240	0	0	0
2019/10/21 09:41:00	BASE	17.48	30	22.07	37	2.4	73	-2.0	28	0	981.4	NA	0.0000		9999	10170	0	0	0
2019/10/21 09:42:00	BASE	18.17	29	21.71	36	2.3	73	-2.0	28	0	981.3	NA	0.0000		9999	10240	0	0	0
2019/10/21 09:43:00	BASE	18.65	32	21.71	36	2.3	74	-1.9	28	0	981.2	NA	0.0000		9999	9290	0	0	0
2019/10/21 09:44:00	BASE	18.97	35	21.30	28	2.3	74	-1.9	29	0	981.2	NA	0.0000		9999	10010	0	0	0
2019/10/21 09:45:00	BASE	18.83	37	21.30	28	2.3	74	-1.8	29	0	981.2	NA	0.0000		9999	9910	0	0	0
2019/10/21 09:46:00	BASE	18.58	36	21.30	28	2.4	74	-1.8	30	0	981.1	NA	0.0000		9999	8960	0	0	0
2019/10/21 09:47:00	BASE	19.60	35	21.81	32	2.4	74	-1.8	30	0	981.1	NA	0.0000		9999	8990	0	0	0
2019/10/21 09:48:00	BASE	20.36	35	21.81	32	2.5	73	-1.8	30	0	981.0	NA	0.0000		9999	9150	0	0	0
2019/10/21 09:49:00	BASE	19.73	35	21.81	32	2.6	73	-1.8	31	0	981.1	NA	0.0000		9999	8990	0	0	0
2019/10/21 09:50:00	BASE	18.58	37	21.81	32	2.6	73	-1.8	31	0	981.0	NA	0.0000		9999	8730	0	0	0
2019/10/21 09:51:00	BASE	18.14	41	21.81	32	2.6	72	-1.8	31	0	981.0	NA	0.0000		9999	8790	0	0	0
2019/10/21 09:52:00	BASE	18.24	44	21.81	32	2.7	72	-1.8	31	0	980.9	NA	0.0000		9999	9510	0	0	0
2019/10/21 09:53:00	BASE	18.80	43	21.81	32	2.7	72	-1.9	30	0	980.8	NA	0.0000		9999	9840	0	0	0
2019/10/21 09:54:00	BASE	19.45	40	21.81	32	2.7	72	-1.8	29	0	980.8	NA	0.0000		9999	7150	8530	0	0
2019/10/21 09:55:00	BASE	19.91	42	21.81	32	2.7	72	-1.8	28	0	980.8	NA	0.0000		9999	7780	0	0	0
2019/10/21 09:56:01	BASE	18.94	42	21.81	32	2.8	72	-1.8	26	0	980.8	NA	0.0000		9999	8690	0	0	0
2019/10/21 09:57:00	BASE	17.97	38	22.28	33	2.8	71	-1.9	25	0	980.7	NA	0.0000		9999	8300	0	0	0
2019/10/21 09:58:01	BASE	18.66	37	22.28	37	2.8	71	-1.9	24	0	980.6	NA	0.0000		9999	7810	0	0	0
2019/10/21 09:59:00	BASE	19.51	41	22.28	37	2.8	72	-1.8	24	0	980.6	NA	0.0000		9999	6040	0	0	0
2019/10/21 10:00:00	BASE	20.40	43	23.05	35	2.7	72	-1.8	24	0	980.5	NA	0.0000		9999	6760	0	0	0
2019/10/21 10:01:01	BASE	20.46	41	23.05	35	2.7	73	-1.7	24	0	980.4	NA	0.0000		9999	5680	0	0	0
2019/10/21 10:02:00	BASE	19.43	40	23.05	35	2.7	73	-1.7	24	0	980.4	NA	0.0000		9999	4430	0	0	0
2019/10/21 10:03:00	BASE	18.68	41	23.05	35	2.7	73	-1.6	25	0	980.4	NA	0.0000		9999	5150	0	0	0
2019/10/21 10:04:00	BASE	21.04	40	27.52	37	2.7	74	-1.5	27	0	980.2	NA	0.0000		9999	4790	0	0	0
2019/10/21 10:05:01	BASE	23.12	39	27.52	37	2.7	74	-1.5	29	0	980.2	NA	0.0000		9999	3350	0	0	0
2019/10/21 10:06:00	BASE	23.84	35	27.88	28	2.8	74	-1.5	30	0	980.1	NA	0.0000		9999	4040	0	0	0
2019/10/21 10:07:00	BASE	25.14	36	27.88	28	2.9	73	-1.4	31	0	980.1	NA	0.0000		9999	3510	0	0	0
2019/10/21 10:08:01	BASE	23.76	39	27.88	28	3.0	73	-1.4	30	0	980.3	NA	0.0000		9999	4400	0	0	0
2019/10/21 10:09:00	BASE	22.48	38	27.88	28	3.1	72	-1.4	30	0	980.3	NA	0.0000		9999	4490	0	0	0
2019/10/21 10:10:00	BASE	23.81	37	27.88	28	3.1	72	-1.5	29	0	980.2	NA	0.0000		9999	3970	0	0	0
2019/10/21 10:11:00	BASE	26.14	35	29.73	27	3.2	71	-1.5	27	0	980.1	NA	0.0000		9999	0	0	0	750
2019/10/21 10:12:00	BASE	26.66	33	29.73	27	3.2	71	-1.5	24	0	980.3	NA	0.0000		9999	0	0	0	1210
2019/10/21 10:13:00	BASE	23.72	35	29.73	27	3.2	71	-1.5	21	0	980.6	NA	0.0000		9999	0	0	0	1870
2019/10/21 10:14:00	BASE	21.34	36	29.73	27	3.1	72	-1.5	19	0	980.7	NA	0.0000		9999	0	0	0	2920
2019/10/21 10:15:00	BASE	20.27	36	29.73	27	3.1	72	-1.5	19	0	980.8	NA	0.0000		9999	0	0	0	2300
2019/10/21 10:16:00	BASE	19.41	37	29.73	27	3.0	72	-1.4	20	0	980.9	NA	0.0000	UP	9999	0	0	0	2100
2019/10/21 10:17:00	BASE	19.13	39	29.73	27	3.0	73	-1.4	21	0	980.9	NA	0.0000	UP	9999	0	0	0	2170
2019/10/21 10:18:00	BASE	18.39	39	29.73	27	2.9	74	-1.3	22	0	981.0	NA	0.0000	UP	9999	0	0	0	2170
2019/10/21 10:19:00	BASE	17.68	38	29.73	27	2.8	75	-1.2	22	0	981.0	NA	0.0000	UP	9999	0	0	0	2850
2019/10/21 10:20:00	BASE	17.08	40	29.73	27	2.7	76	-1.1	22	0	981.0	NA	0.0000	UP	9999	0	0	0	3080
2019/10/21 10:21:00	BASE	17.71	38	28.91	26	2.7	77	-1.0	23	0	981.0	NA	0.0000	UP	9999	0	0	0	2790
2019/10/21 10:22:00	BASE	18.17	38	23.92	42	2.6	77	-0.9	24	0	981.0	NA	0.0000	UP	6000	0	0	0	2760
2019/10/21 10:23:00	BASE	17.58	38	23.92	42	2.6	78	-0.9	26	0	981.1	NA	0.0000	-SN	6000	0	0	0	2690
2019/10/21 10:24:00	BASE	16.82	39	21.66	44	2.5	78	-0.9	25	0	981.0	NA	0.0000	-SN	6000	0	0	0	3080
2019/10/21 10:25:00	BASE	16.75	43	21.66	44	2.4	79	-0.8	24	0	981.0	NA	0.0000	-SN	6000	0	0	0	3410
2019/10/21 10:26:00	BASE	17.01	46	21.66	44	2.3	80	-0.8	25	0	981.0	NA	0.0000	-SN	8000	0	0	0	3180
2019/10/21 10:27:00	BASE	16.73	49	21.35	40	2.2	81	-0.7	27	0	981.0	NA	0.0000	-SN	9999	0	0	0	3120
2019/10/21 10:28:00	BASE	17.24	51	21.35	40	2.2	82	-0.6	30	0	980.9	NA	0.0000	-SN	9999	0	0	0	3050
2019/10/21 10:29:00	BASE	17.65	53	21.35	40	2.1	83	-0.5	33	0	980.9	NA	0.0000	-SN	9999	0	0	0	2950
2019/10/21 10:30:00	BASE	17.57	55	21.35	40	2.1	84	-0.4	36	0	980.9	NA	0.0000	-SN	9999	0	0	0	3120
2019/10/21 10:31:00	BASE	17.66	55	21.35	40	2.1	85	-0.2	38	0	980.8	NA	0.0000	-SN	9999	0	0	0	3120
2019/10/21 10:32:00	BASE	18.27	55	21.35	40	2.1	85	-0.2	39	0	980.8	NA	0.0000	-SN	9999	3120	0	0	0
2019/10/21 10:33:00	BASE	18.52	55	19.91	51	2.1	86	-0.1	40	0	980.8	NA	0.0000	-SN	9999	3310	0	0	0
2019/10/21 10:34:00	BASE	17.78	55	19.91	51	2.1	86	-0.0	42	0	980.8	NA	0.0000	-SN	9999	4100	0	0	0
2019/10/21 10:35:00	BASE	17.35	57	19.91	51	2.1	86	0.0	46	0	980.8	NA	0.0000	-SN	9999	2760	0	0	0
2019/10/21 10:36:00	BASE	17.78	60	19.91	51	2.1	87	0.1	48	0	980.7	NA	0.0000	-SN	9999	4360	0	0	0
2019/10/21 10:37:00	BASE	18.02	58	19.91	51	2.1	87	0.2	47	0	980.7	NA	0.0000	-SN	9999	4230	0	0	0
2019/10/21 10:38:00	BASE	18.43	55	20.11	54	2.1	87	0.2	47	0	980.5	NA	0.0000	-SN	9999	0	0	0	5410
2019/10/21 10:39:00	BASE	19.37	53	23.10	56	2.2	87	0.2	46	0	980.6	NA	0.0000	-SN	9999	0	0	0	3310
2019/10/21 10:40:00	BASE	19.63	53	23.10	56	2.2	87	0.3	46	0	980.7	NA	0.0000	-SN	9999	0	0	0	3940
2019/10/21 10:41:00	BASE	19.02	54	23.10	56	2.2	87	0.4	50	0	980.7	NA	0.0000	-SN	9999	0	0	0	3540
2019/10/21 10:42:00	BASE	18.65	53	23.10	56	2.2	88	0.4	50	0	980.7	NA	0.0000	-SN	9999	0	0	0	2790
2019/10/21 10:43:00	BASE	18.07	51	23.10	56	2.2	88	0.4	51	0	980.7	NA	0.0000	-SN	9999	0	0	0	2760
2019/10/21 10:44:00	BASE	18.06	51	23.10	56	2.2	89	0.5	53	0	980.7	NA	0.0000	-SN	9999	0	0	0	2300
2019/10/21 10:45:00	BASE	18.02	54	23.10	56	2.2	89	0.6	52	0	980.8	NA	0.0000	-SN	9999	5410	0	0	0
2019/10/21 10:46:00	BASE	17.46	55	23.10	56	2.2	90	0.6	52	0	980.7	NA	0.0000	-SN	9999	5380	0	0	0
2019/10/21 10:47:00	BASE	17.20	54	23.10	56	2.1	90	0.7	53	0	980.7	NA	0.0000	-SN	9999	5540	0	0	0
2019/10/21 10:48:00	BASE	16.71	54	23.10	56	2.1	91	0.8	53	0	980.8	NA	0.0000	-SN	9999	5610	0	0	0
2019/10/21 10:49:00	BASE	16.81	55	21.35	53	2.1	91	0.9	50	0	980.7	NA	0.0000	-SN	9999	5710	0	0	0
2019/10/21 10:50:00	BASE	16.90	53	21.35	53	2.1	92	0.9	45	0	980.7	NA	0.0000	-SN	9999	0	0	0	2560
2019/10/21 10:51:00	BASE	17.27	52	21.35	53	2.1	92	1.0	41	0	980.7	NA	0.0000	-SN	9999	0	0	0	2130
2019/10/21 10:52:00	BASE	17.83	52	20.58	57	2.1	93	1.1	41	0	980.7	NA	0.0000	-SN	9000	0	0	0	1970
2019/10/21 10:53:00	BASE	17.37	53	20.58	57	2.1	93	1.1	44	0	980.8	NA	0.0000	-SN	9999	0	0	0	4300
2019/10/21 10:54:00	BASE	17.13	51	19.96	46	2.1	93	1.2	50	0	980.8	NA	0.0000	-SN	9999	0	0	0	4530
2019/10/21 10:55:00	BASE	17.79	49	20.73	35	2.1	94	1.2	60	0	980.8	NA	0.0000	-SN	9999	0	0	0	3310
2019/10/21 10:56:00	BASE	17.71	47	20.73	35	2.1	94	1.2	63	0	980.8	NA	0.0000	-SN	9999	0	0	0	2850
2019/10/21 10:57:00	BASE	16.77	43	20.73	35	2.1	94	1.3	61	0	980.8	NA	0.0000	-SN	9999	0	0	0	2530
2019/10/21 10:58:00	BASE	15.72	41	20.73	35	2.1	94	1.3	59	0	980.9	NA	0.0000	-SN	9999	0	0	0	1480
2019/10/21 10:59:00	BASE	15.25	39	20.73	35	2.2	94	1.3	58	0	980.8	NA	0.0000	-SN	9999	0	0	0	1250
2019/10/21 11:00:00	BASE	15.77	35	21.09	37	2.2	94	1.3	61	0	980.8	NA	0.0000	-SN	9999	0	0	0	4690
2019/10/21 11:01:00	BASE	18.36	34	23.51	42	2.2	94	1.3	61	0	980.6	NA	0.0000	-SN	9999	0	0	0	4690
2019/10/21 11:02:01	BASE	22.28	28	27.11	17	2.2	94	1.3	53	0	980.4	NA	0.0000	-SN	9999	0	0	0	4790
2019/10/21 11:03:01	BASE	25.89	23	31.79	24	2.1	94	1.3	47	0	980.2	NA	0.0000	-SN	9999	0	0	0	3380
2019/10/21 11:04:01	BASE	27.89	24	33.64	29	2.1	94	1.2	45	0	980.2	NA	0.0000	-SN SQ	9999	0	0	0	2820
2019/10/21 11:05:01	BASE	27.77	22	33.64	29	2.0	94	1.2	45	0	980.1	NA	0.0000	-SN	7000	0	0	0	2660
2019/10/21 11:06:01	BASE	27.48	22	33.64	29	2.0	94	1.1	37	0	980.1	NA	0.0000	-SN BR	3500	0	0	0	2530
2019/10/21 11:07:01	BASE	27.41	24	33.64	29	1.9	94	1.1	34	0	980.2	NA	0.0000	-SN BR	2700	0	0	0	2200
2019/10/21 11:08:01	BASE	29.67	25	35.29	27	1.8	95	1.1	40	0	979.9	NA	0.0000	-SN BR	2900	330	0	0	0
2019/10/21 11:09:01	BASE	32.13	24	36.11	24	1.8	95	1.1	43	0	979.9	NA	0.0000	-SN BR	2400	0	0	0	2400
2019/10/21 11:10:01	BASE	31.90	24	36.11	24	1.8	96	1.1	44	0	979.9	NA	0.0000	-SN BR	2100	750	0	0	0
2019/10/21 11:11:00	BASE	30.65	25	36.11	24	1.7	96	1.2	47	0	980.0	NA	0.0000	-SN BR	2000	330	0	0	0
2019/10/21 11:12:01	BASE	30.18	24	36.11	24	1.7	96	1.2	48	0	980.0	NA	0.0000	-SN BR	2200	300	0	0	0
2019/10/21 11:13:00	BASE	29.99	23	36.11	24	1.7	97	1.3	47	0	980.0	NA	0.0000	-SN BR	2300	300	0	0	0
2019/10/21 11:14:00	BASE	29.69	26	36.11	24	1.7	97	1.3	46	0	980.1	NA	0.0000	-SN BR	2100	300	0	0	0
2019/10/21 11:15:00	BASE	30.54	29	36.11	24	1.7	98	1.4	47	0	980.0	NA	0.0000	-SN BR	1700	200	0	0	0
2019/10/21 11:16:00	BASE	30.97	30	36.11	24	1.7	98	1.4	50	0	980.1	NA	0.0000	-SN BR	1400	260	0	0	0
2019/10/21 11:17:01	BASE	30.45	31	36.11	24	1.7	99	1.5	55	0	980.1	NA	0.0000	-SN BR	1500	300	0	0	0
2019/10/21 11:18:01	BASE	29.44	31	36.11	24	1.7	99	1.5	60	0	980.1	NA	0.0000	-SN BR	1600	330	0	0	0
2019/10/21 11:19:00	BASE	29.59	30	35.70	32	1.6	99	1.6	63	0	980.0	NA	0.0000	-SN BR	1800	300	0	0	0
2019/10/21 11:20:00	BASE	30.58	27	35.70	32	1.6	100	1.6	63	0	980.0	NA	0.0000	-SN BR	1400	260	0	0	0
2019/10/21 11:21:00	BASE	31.06	28	35.70	32	1.6	100	1.6	57	0	979.9	NA	0.0000	-SN BR	1500	300	0	0	0
2019/10/21 11:22:00	BASE	32.86	30	39.35	29	1.6	100	1.6	55	0	979.8	NA	0.0000	-SN BR	1100	260	0	0	0
2019/10/21 11:23:00	BASE	32.18	29	39.35	29	1.5	100	1.5	59	0	980.1	NA	0.2540	-SN BR	1200	0	0	0	1480
2019/10/21 11:24:00	BASE	29.94	28	39.35	29	1.5	100	1.5	63	0	980.1	NA	0.0000	-SN BR	0900	0	0	0	1670
2019/10/21 11:25:00	BASE	29.51	30	39.35	29	1.5	100	1.5	70	0	980.1	NA	0.0000	-SN BR	0800	0	0	0	1440
2019/10/21 11:26:00	BASE	30.70	32	39.35	29	1.4	100	1.4	71	0	980.0	NA	0.0000	-SN BR	0800	0	0	0	1670
2019/10/21 11:27:00	BASE	31.67	32	39.35	29	1.4	100	1.4	73	0	980.1	NA	0.0000	+SN BR	0600	0	0	0	1570
2019/10/21 11:28:00	BASE	30.37	32	39.35	29	1.3	100	1.3	79	0	980.1	NA	0.0000	+SN BR	0450	0	0	0	1510
2019/10/21 11:29:00	BASE	27.57	33	39.35	29	1.3	100	1.3	93	0	980.3	NA	0.0000	SN FG	0650	0	0	0	1440
2019/10/21 11:30:01	BASE	27.15	37	39.35	29	1.3	100	1.3	110	0	980.2	NA	0.2540	SN FG	0650	0	0	0	1840
2019/10/21 11:31:01	BASE	28.91	37	39.35	29	1.3	100	1.3	98	0	980.1	NA	0.0000	SN FG	0800	230	0	0	0
2019/10/21 11:32:01	BASE	28.34	36	34.78	37	1.3	100	1.3	91	0	980.1	NA	0.0000	SN FG	1300	0	0	0	1440
2019/10/21 11:33:01	BASE	28.09	36	34.78	37	1.3	100	1.3	87	0	980.1	NA	0.0000	SN FG	1200	0	0	0	1670
2019/10/21 11:34:00	BASE	28.87	37	34.78	37	1.3	100	1.3	83	0	980.0	NA	0.0000	SN FG	1400	0	0	0	2000
2019/10/21 11:35:00	BASE	29.02	40	34.78	37	1.2	100	1.2	89	0	980.0	NA	0.0000	SN FG	1400	230	0	0	0
2019/10/21 11:36:01	BASE	29.05	40	33.90	32	1.2	100	1.2	105	0	980.0	NA	0.0000	SN FG	1500	260	0	0	0
2019/10/21 11:37:00	BASE	29.39	37	33.08	41	1.2	100	1.2	113	0	979.9	NA	0.0000	SN BR	1500	230	0	0	0
2019/10/21 11:38:00	BASE	28.71	36	33.08	41	1.2	100	1.2	117	0	980.0	NA	0.0000	-SN BR	1400	0	0	0	2130
2019/10/21 11:39:00	BASE	27.61	38	33.08	41	1.2	100	1.2	127	0	980.1	NA	0.0000	-SN BR	1500	230	0	0	0
2019/10/21 11:40:00	BASE	27.29	40	33.08	41	1.2	100	1.2	129	0	980.1	NA	0.0000	-SN BR	1800	300	0	0	0
2019/10/21 11:41:00	BASE	28.26	40	33.08	41	1.3	100	1.3	135	0	980.0	NA	0.0000	-SN BR	1600	0	0	0	1900
2019/10/21 11:42:00	BASE	28.20	41	33.08	41	1.3	100	1.3	128	0	980.1	NA	0.0000	-SN BR	1200	260	0	0	0
2019/10/21 11:43:00	BASE	27.02	43	33.08	41	1.3	100	1.3	119	0	980.0	NA	0.0000	-SN BR	1700	300	0	0	0
2019/10/21 11:44:00	BASE	27.25	41	33.08	41	1.3	100	1.3	110	0	979.9	NA	0.2540	-SN BR	1900	300	0	0	0
2019/10/21 11:45:00	BASE	27.15	38	33.08	41	1.3	100	1.3	101	0	979.9	NA	0.0000	-SN BR	1900	330	0	0	0
2019/10/21 11:46:00	BASE	26.60	36	32.26	38	1.3	100	1.3	105	0	979.9	NA	0.0000	-SN BR	2000	0	0	0	2850
2019/10/21 11:47:00	BASE	27.11	35	32.26	38	1.3	100	1.3	106	0	979.9	NA	0.0000	-SN BR	2300	330	0	0	0
2019/10/21 11:48:00	BASE	26.43	34	32.26	38	1.3	100	1.3	107	0	979.9	NA	0.0000	-SN BR	2500	360	0	0	0
2019/10/21 11:49:00	BASE	26.77	34	32.26	38	1.3	100	1.3	112	0	979.7	NA	0.0000	-SN BR	2900	360	0	0	0
2019/10/21 11:50:00	BASE	26.85	34	32.26	38	1.4	100	1.4	121	0	979.7	NA	0.0000	-SN BR	2200	330	0	0	0
2019/10/21 11:51:00	BASE	27.23	35	32.56	44	1.4	100	1.4	124	0	979.6	NA	0.0000	-SN BR	2000	0	0	0	2950
2019/10/21 11:52:00	BASE	28.92	37	32.56	44	1.4	100	1.4	125	0	979.6	NA	0.0000	-SN BR	2000	0	0	0	2820
2019/10/21 11:53:01	BASE	27.20	37	32.56	44	1.4	100	1.4	124	0	979.7	NA	0.0000	-SN BR	2100	360	0	0	0
2019/10/21 11:54:00	BASE	27.67	38	32.56	44	1.4	100	1.4	125	0	979.6	NA	0.0000	-SN BR	1700	0	0	0	3150
2019/10/21 11:55:00	BASE	29.86	38	33.34	37	1.4	100	1.4	113	0	979.6	NA	0.0000	-SN BR	1700	0	0	0	3380
2019/10/21 11:56:00	BASE	28.07	35	33.34	37	1.4	100	1.4	107	0	979.6	NA	0.0000	-SN BR	2000	0	0	0	3350
2019/10/21 11:57:00	BASE	25.99	33	33.34	37	1.4	100	1.4	107	0	979.6	NA	0.0000	-SN BR	2000	300	0	0	0
2019/10/21 11:58:00	BASE	26.29	32	33.34	37	1.4	100	1.4	102	0	979.6	NA	0.0000	-SN BR	2100	300	0	0	0
2019/10/21 11:59:00	BASE	28.96	32	34.11	37	1.4	100	1.4	97	0	979.4	NA	0.0000	-SN BR	1700	300	0	0	0
2019/10/21 12:00:00	BASE	30.08	32	34.11	37	1.4	100	1.4	87	0	979.5	NA	0.0000	-SN BR	1700	300	0	0	0
2019/10/21 12:01:00	BASE	28.37	31	34.11	37	1.4	100	1.4	83	0	979.5	NA	0.0000	-SN BR	1600	260	0	0	0
2019/10/21 12:02:00	BASE	28.64	29	34.11	37	1.4	100	1.4	74	0	979.4	NA	0.0000	-SN BR	1700	330	0	0	0
2019/10/21 12:03:00	BASE	29.19	29	34.11	37	1.4	100	1.4	78	0	979.4	NA	0.0000	-SN BR	2000	300	0	0	0
2019/10/21 12:04:00	BASE	29.49	30	34.11	37	1.4	100	1.4	81	0	979.4	NA	0.0000	-SN BR	2100	330	0	0	0
2019/10/21 12:05:00	BASE	29.52	32	34.11	37	1.4	100	1.4	84	0	979.5	NA	0.0000	-SN BR	1800	260	0	0	0
2019/10/21 12:06:00	BASE	29.68	32	34.11	37	1.4	100	1.4	91	0	979.3	NA	0.0000	-SN BR	1400	200	0	0	0
2019/10/21 12:07:00	BASE	29.45	30	34.11	37	1.4	100	1.4	99	0	979.4	NA	0.2540	-SN BR	1300	300	0	0	0
2019/10/21 12:08:00	BASE	28.64	30	34.11	37	1.5	100	1.5	104	0	979.4	NA	0.0000	-SN BR	2300	360	0	0	0
2019/10/21 12:09:00	BASE	29.98	32	36.27	35	1.5	100	1.5	109	0	979.2	NA	0.0000	-SN BR	1500	260	0	0	0
2019/10/21 12:10:01	BASE	30.92	33	36.27	35	1.5	100	1.5	121	0	979.3	NA	0.0000	-SN BR	1200	230	0	0	0
2019/10/21 12:11:01	BASE	30.67	33	36.27	35	1.5	100	1.5	121	0	979.2	NA	0.0000	-SN BR	1200	260	19850	0	0
2019/10/21 12:12:01	BASE	29.69	33	36.27	35	1.5	100	1.5	119	0	979.3	NA	0.0000	-SN BR	1300	300	0	0	0
2019/10/21 12:13:01	BASE	28.48	32	36.27	35	1.4	100	1.4	113	0	979.3	NA	0.0000	-SN BR	1900	0	0	0	4330
2019/10/21 12:14:01	BASE	28.99	31	36.27	35	1.4	100	1.4	107	0	979.2	NA	0.0000	-SN BR	2200	330	0	0	0
2019/10/21 12:15:01	BASE	29.75	32	36.27	35	1.4	100	1.4	101	0	979.3	NA	0.0000	-SN BR	2000	330	0	0	0
2019/10/21 12:16:01	BASE	29.83	31	36.27	35	1.4	100	1.4	97	0	979.3	NA	0.0000	-SN BR	2000	0	0	0	3900
2019/10/21 12:17:00	BASE	28.99	31	36.27	35	1.4	100	1.4	95	0	979.4	NA	0.0000	-SN BR	1800	300	0	0	0
2019/10/21 12:18:00	BASE	28.97	33	36.27	35	1.4	100	1.4	93	0	979.4	NA	0.0000	-SN BR	1700	330	0	0	0
2019/10/21 12:19:00	BASE	30.43	33	34.78	34	1.4	100	1.4	86	0	979.4	NA	0.0000	-SN BR	1800	300	0	0	0
2019/10/21 12:20:00	BASE	30.93	31	34.78	30	1.4	100	1.4	78	0	979.4	NA	0.0000	-SN BR	1800	330	0	0	0
2019/10/21 12:21:00	BASE	29.77	29	34.78	30	1.4	100	1.4	77	0	979.5	NA	0.0000	-SN BR	1800	0	0	0	4860
2019/10/21 12:22:00	BASE	28.25	27	34.78	30	1.4	100	1.4	84	0	979.4	NA	0.0000	-SN BR	2200	0	0	0	4530
2019/10/21 12:23:00	BASE	26.81	25	34.78	30	1.4	100	1.4	94	0	979.5	NA	0.0000	-SN BR	2200	0	0	0	4170
2019/10/21 12:24:00	BASE	27.37	26	36.11	27	1.4	100	1.4	104	0	979.5	NA	0.0000	-SN BR	2800	330	0	0	0
2019/10/21 12:25:00	BASE	29.85	30	36.11	27	1.4	100	1.4	108	0	979.4	NA	0.0000	-SN BR	2000	0	0	0	3640
2019/10/21 12:26:01	BASE	29.07	27	36.11	27	1.4	100	1.4	110	0	979.5	NA	0.0000	-SN BR	2300	360	0	0	0
2019/10/21 12:27:00	BASE	27.38	26	36.11	27	1.4	100	1.4	111	0	979.5	NA	0.0000	-SN BR	3000	0	0	0	3310
2019/10/21 12:28:00	BASE	28.06	28	36.11	27	1.4	100	1.4	111	0	979.4	NA	0.0000	-SN BR	3500	0	0	0	3310
2019/10/21 12:29:00	BASE	27.73	26	36.11	27	1.4	100	1.4	109	0	979.5	NA	0.0000	-SN BR	3300	360	0	0	0
2019/10/21 12:30:00	BASE	27.62	26	36.11	27	1.4	100	1.4	107	0	979.4	NA	0.0000	-SN BR	3900	0	0	0	2690
2019/10/21 12:31:00	BASE	28.73	25	36.11	27	1.4	100	1.4	99	0	979.3	NA	0.0000	-SN BR	2900	300	0	0	0
2019/10/21 12:32:00	BASE	28.73	25	36.11	27	1.4	100	1.4	91	0	979.4	NA	0.0000	-SN BR	2600	330	0	0	0
2019/10/21 12:33:00	BASE	29.07	29	36.11	27	1.4	100	1.4	98	0	979.4	NA	0.0000	-SN BR	2200	330	0	0	0
2019/10/21 12:34:00	BASE	29.04	28	35.14	29	1.4	100	1.4	104	0	979.4	NA	0.0000	-SN BR	2000	330	0	0	0
2019/10/21 12:35:00	BASE	26.70	27	34.26	33	1.4	100	1.4	118	0	979.6	NA	0.0000	-SN BR	1500	260	0	0	0
2019/10/21 12:36:00	BASE	25.81	27	34.26	33	1.4	100	1.4	130	0	979.4	NA	0.0000	-SN BR	1400	260	0	0	0
2019/10/21 12:37:00	BASE	28.89	27	34.26	33	1.4	100	1.4	144	0	979.2	NA	0.2540	-SN BR	1300	260	0	0	0
2019/10/21 12:38:00	BASE	30.18	30	34.26	33	1.3	100	1.3	154	0	979.3	NA	0.0000	-SN BR	1200	230	0	0	0
2019/10/21 12:39:00	BASE	28.92	31	34.26	33	1.3	100	1.3	155	0	979.3	NA	0.0000	-SN BR	1500	260	0	0	0
2019/10/21 12:40:00	BASE	28.54	30	34.26	33	1.3	100	1.3	154	0	979.0	NA	0.0000	-SN BR	1800	300	0	0	0
2019/10/21 12:41:00	BASE	28.63	29	34.26	33	1.3	100	1.3	160	0	979.2	NA	0.0000	-SN BR	1600	230	0	0	0
2019/10/21 12:42:00	BASE	27.37	28	34.26	33	1.3	100	1.3	168	0	979.5	NA	0.0000	-SN BR	1900	300	0	0	0
2019/10/21 12:43:00	BASE	26.53	29	33.44	23	1.3	100	1.3	180	0	979.4	NA	0.0000	-SN BR	2000	260	0	0	0
2019/10/21 12:44:00	BASE	27.46	30	33.44	23	1.3	100	1.3	184	0	979.3	NA	0.0000	-SN BR	2000	330	0	0	0
2019/10/21 12:45:00	BASE	28.55	30	33.44	23	1.3	100	1.3	184	0	979.2	NA	0.0000	-SN BR	2100	0	0	0	1610
2019/10/21 12:46:00	BASE	29.60	32	33.49	29	1.3	100	1.3	174	0	979.2	NA	0.0000	-SN BR	2100	0	0	0	1510
2019/10/21 12:47:00	BASE	29.72	33	33.80	28	1.3	100	1.3	200	0	979.2	NA	0.0000	-SN BR	3300	0	0	0	3150
2019/10/21 12:48:00	BASE	29.78	33	35.03	37	1.3	100	1.3	205	0	979.2	NA	0.0000	-SN BR	3100	0	0	0	1840
2019/10/21 12:49:00	BASE	28.90	33	35.03	37	1.3	100	1.3	202	0	979.2	NA	0.0000	-SN BR	5000	0	0	0	1940
2019/10/21 12:50:01	BASE	28.12	31	35.03	37	1.3	100	1.3	188	0	979.2	NA	0.0000	-SN BR	4400	5120	0	0	0
2019/10/21 12:51:01	BASE	28.29	30	35.03	37	1.3	100	1.3	161	0	979.2	NA	0.0000	-SN BR	5000	0	0	0	1800
2019/10/21 12:52:01	BASE	28.07	31	35.03	37	1.3	100	1.3	158	0	979.2	NA	0.0000	-SN BR	3800	0	0	0	3480
2019/10/21 12:53:01	BASE	28.63	29	35.24	18	1.3	100	1.3	200	0	979.1	NA	0.0000	-SN BR	5000	0	0	0	2950
2019/10/21 12:54:01	BASE	28.55	25	35.24	18	1.3	100	1.3	251	0	979.1	NA	0.0000	-SN BR	4200	330	0	0	0
2019/10/21 12:55:01	BASE	26.62	27	35.24	18	1.3	100	1.3	276	0	979.2	NA	0.0000	-SN BR	3000	0	0	0	2490
2019/10/21 12:56:01	BASE	26.17	30	35.24	18	1.3	100	1.3	274	0	979.2	NA	0.0000	-SN BR	9000	330	0	0	0
2019/10/21 12:57:00	BASE	26.61	29	35.24	18	1.3	100	1.3	279	0	979.2	NA	0.0000	-SN BR	9000	360	0	0	0
2019/10/21 12:58:01	BASE	26.79	29	35.24	18	1.3	100	1.3	278	0	979.1	NA	0.0000	-SN BR	5000	4760	0	0	0
2019/10/21 12:59:01	BASE	27.13	30	35.24	18	1.4	100	1.4	283	0	979.2	NA	0.0000	-SN BR	2700	4720	0	0	0
2019/10/21 13:00:00	BASE	26.41	31	35.24	18	1.4	100	1.4	280	0	979.2	NA	0.0000	-SN BR	9000	4760	0	0	0
2019/10/21 13:01:00	BASE	26.51	31	35.24	18	1.4	100	1.4	272	0	979.1	NA	0.0000	-SN BR	7000	8300	0	0	0
2019/10/21 13:02:00	BASE	28.03	31	35.24	18	1.4	100	1.4	274	0	979.1	NA	0.0000	-SN BR	7000	4690	0	0	0
2019/10/21 13:03:00	BASE	28.29	31	32.10	33	1.4	100	1.4	271	0	979.1	NA	0.0000	-SN BR	6000	21460	0	0	0
2019/10/21 13:04:00	BASE	27.49	30	32.10	33	1.4	100	1.4	272	0	979.1	NA	0.0000	-SN BR	8000	4790	0	0	0
2019/10/21 13:05:00	BASE	27.45	29	32.10	33	1.4	100	1.4	284	0	979.1	NA	0.0000	-SN BR	9000	0	0	0	1480
2019/10/21 13:06:00	BASE	28.66	31	32.67	31	1.4	100	1.4	273	0	979.0	NA	0.0000	-SN BR	7000	8100	0	0	0
2019/10/21 13:07:00	BASE	29.22	30	33.18	27	1.5	100	1.5	252	0	979.0	NA	0.0000	-SN BR	4400	7940	0	0	0
2019/10/21 13:08:00	BASE	27.71	28	33.18	27	1.5	100	1.5	247	0	979.1	NA	0.0000	-SN BR	8000	5540	8010	0	0
2019/10/21 13:09:00	BASE	25.54	28	33.18	27	1.5	100	1.5	233	0	979.2	NA	0.0000	-SN BR	5000	7970	0	0	0
2019/10/21 13:10:00	BASE	24.71	29	33.18	27	1.5	100	1.5	229	0	979.2	NA	0.0000	-SN BR	9999	390	5050	0	0
2019/10/21 13:11:00	BASE	24.54	32	33.18	27	1.5	100	1.5	216	0	979.3	NA	0.0000	-SN BR	7000	0	0	0	2070
2019/10/21 13:12:00	BASE	25.16	30	33.18	27	1.5	100	1.5	224	0	979.1	NA	0.0000	-SN BR	6000	0	0	0	1280
2019/10/21 13:13:00	BASE	26.52	29	33.18	27	1.5	100	1.5	231	0	979.2	NA	0.0000	-SN BR	2800	0	0	0	2130
2019/10/21 13:14:00	BASE	27.56	28	33.18	27	1.5	100	1.5	232	0	979.1	NA	0.0000	-SN BR	7000	0	0	0	1410
2019/10/21 13:15:00	BASE	27.03	27	33.18	27	1.5	100	1.5	230	0	979.2	NA	0.0000	-SN BR	5000	8070	0	0	0
2019/10/21 13:16:00	BASE	25.56	29	33.18	27	1.5	100	1.5	223	0	979.2	NA	0.0000	-SN BR	7000	0	0	0	1610
2019/10/21 13:17:00	BASE	25.87	28	32.56	28	1.5	100	1.5	205	0	979.1	NA	0.0000	-SN BR	7000	0	0	0	1540
2019/10/21 13:18:00	BASE	26.67	30	32.56	28	1.5	100	1.5	190	0	979.1	NA	0.0000	-SN BR	6000	0	0	0	1770
2019/10/21 13:19:00	BASE	28.25	30	32.56	28	1.5	100	1.5	179	0	979.0	NA	0.0000	-SN BR	4900	5870	0	0	0
2019/10/21 13:20:00	BASE	28.73	29	32.56	28	1.5	100	1.5	170	0	979.0	NA	0.0000	-SN BR	5000	0	0	0	1670
2019/10/21 13:21:00	BASE	28.01	30	32.56	28	1.5	100	1.5	163	0	979.0	NA	0.0000	-SN BR	5000	7810	0	0	0
2019/10/21 13:22:00	BASE	27.37	30	32.56	28	1.5	100	1.5	159	0	979.1	NA	0.0000	-SN BR	4600	0	0	0	1570
2019/10/21 13:23:00	BASE	27.08	31	32.41	35	1.5	100	1.5	153	0	979.0	NA	0.0000	-SN BR	3900	0	0	0	2260
2019/10/21 13:24:00	BASE	28.26	30	33.34	28	1.5	100	1.5	152	0	978.9	NA	0.0000	-SN BR	2800	0	0	0	1900
2019/10/21 13:25:00	BASE	29.30	30	33.34	28	1.5	100	1.5	144	0	978.9	NA	0.0000	-SN BR	4400	0	0	0	1940
2019/10/21 13:26:00	BASE	30.04	31	34.88	31	1.4	100	1.4	136	0	978.8	NA	0.0000	-SN BR	2400	0	0	0	2030
2019/10/21 13:27:00	BASE	29.85	31	34.88	31	1.4	100	1.4	131	0	978.9	NA	0.0000	-SN BR	2800	0	0	0	2130
2019/10/21 13:28:00	BASE	29.53	30	34.88	31	1.4	100	1.4	124	0	978.9	NA	0.0000	-SN BR	2200	0	0	0	2300
2019/10/21 13:29:00	BASE	29.04	29	34.88	31	1.4	100	1.4	114	0	978.9	NA	0.0000	-SN BR	2000	0	0	0	2260
2019/10/21 13:30:00	BASE	27.86	28	34.88	31	1.4	100	1.4	102	0	978.9	NA	0.2540	-SN BR	2000	360	0	0	0
2019/10/21 13:31:01	BASE	26.78	29	34.88	31	1.4	100	1.4	93	0	979.0	NA	0.0000	-SN BR	2400	260	0	0	0
2019/10/21 13:32:00	BASE	27.11	30	34.88	31	1.3	100	1.3	97	0	978.9	NA	0.0000	-SN BR	2100	260	0	0	0
2019/10/21 13:33:00	BASE	29.11	30	34.88	31	1.3	100	1.3	96	0	978.9	NA	0.0000	-SN BR	1500	230	0	0	0
2019/10/21 13:34:00	BASE	28.52	32	34.88	31	1.3	100	1.3	98	0	979.0	NA	0.0000	-SN BR	1200	0	0	0	2230
2019/10/21 13:35:00	BASE	26.34	30	34.88	31	1.3	100	1.3	93	0	978.9	NA	0.0000	-SN BR	0750	0	0	0	1800
2019/10/21 13:36:00	BASE	26.24	29	33.90	30	1.3	100	1.3	90	0	979.0	NA	0.0000	-SN BR	0900	260	22740	0	0
2019/10/21 13:37:00	BASE	27.33	30	33.90	30	1.3	100	1.3	86	0	979.0	NA	0.0000	-SN BR	0600	0	0	0	2070
2019/10/21 13:38:00	BASE	26.97	29	33.18	27	1.3	100	1.3	85	0	979.1	NA	0.0000	-SN BR	0700	0	0	0	1940
2019/10/21 13:39:00	BASE	26.96	29	32.77	28	1.2	100	1.2	87	0	979.0	NA	0.0000	+SN BR	0750	200	0	0	0
2019/10/21 13:40:00	BASE	27.52	30	32.77	28	1.2	100	1.2	94	0	979.0	NA	0.0000	+SN BR	0550	0	0	0	1380
2019/10/21 13:41:00	BASE	26.76	29	32.77	28	1.2	100	1.2	92	0	979.0	NA	0.0000	SN FG	0550	0	0	0	1250
2019/10/21 13:42:00	BASE	26.25	27	32.77	28	1.2	100	1.2	94	0	978.9	NA	0.2540	SN FG	0600	200	0	0	0
2019/10/21 13:43:00	BASE	25.18	29	32.77	28	1.2	100	1.2	111	0	979.1	NA	0.0000	+SN FG	0500	0	0	0	1120
2019/10/21 13:44:00	BASE	23.25	29	32.77	28	1.2	100	1.2	125	0	979.1	NA	0.0000	+SN FG	0700	0	0	0	1510
2019/10/21 13:45:00	BASE	23.23	27	32.77	28	1.2	100	1.2	119	0	979.0	NA	0.0000	+SN FG	1200	230	0	0	0
2019/10/21 13:46:00	BASE	23.96	28	32.77	28	1.2	100	1.2	106	0	979.0	NA	0.0000	SN FG	1100	200	0	0	0
2019/10/21 13:47:00	BASE	24.68	30	32.77	28	1.2	100	1.2	104	0	978.9	NA	0.0000	SN FG	0900	0	0	0	1280
2019/10/21 13:48:00	BASE	24.55	29	32.77	28	1.2	100	1.2	106	0	979.0	NA	0.0000	SN FG	0700	200	0	0	0
2019/10/21 13:49:00	BASE	25.73	27	34.62	27	1.2	100	1.2	105	0	978.8	NA	0.0000	SN FG	1000	200	0	0	0
2019/10/21 13:50:00	BASE	28.22	27	34.62	27	1.2	100	1.2	96	0	978.8	NA	0.0000	SN FG	0750	260	0	0	0
2019/10/21 13:51:00	BASE	29.21	29	36.06	35	1.2	100	1.2	94	0	978.6	NA	0.2540	SN FG	0600	0	0	0	1120
2019/10/21 13:52:00	BASE	29.18	29	36.06	35	1.2	100	1.2	98	0	978.6	NA	0.0000	SN FG	0550	0	0	0	1510
2019/10/21 13:53:00	BASE	28.19	27	36.06	35	1.2	100	1.2	103	0	978.7	NA	0.0000	SN FG	0800	0	0	0	1900
2019/10/21 13:54:00	BASE	28.50	27	36.06	35	1.2	100	1.2	101	0	978.6	NA	0.0000	SN FG	1300	230	0	0	0
2019/10/21 13:55:00	BASE	29.00	26	36.06	35	1.2	100	1.2	102	0	978.6	NA	0.0000	SN FG	1800	260	0	0	0
2019/10/21 13:56:00	BASE	29.97	24	37.76	23	1.2	100	1.2	109	0	978.4	NA	0.0000	-SN BR	2100	300	0	0	0
2019/10/21 13:57:00	BASE	29.08	24	37.76	23	1.2	100	1.2	112	0	978.6	NA	0.0000	-SN BR	1700	300	0	0	0
2019/10/21 13:58:00	BASE	29.62	24	37.76	23	1.2	100	1.2	113	0	978.4	NA	0.0000	SN BR	1800	230	0	0	0
2019/10/21 13:59:00	BASE	31.23	23	37.76	23	1.2	100	1.2	112	0	978.4	NA	0.0000	SN BR	1900	260	0	0	0
2019/10/21 14:00:00	BASE	31.19	23	37.76	23	1.2	100	1.2	114	0	978.2	NA	0.0000	-SN BR	2000	300	0	0	0
2019/10/21 14:01:00	BASE	33.03	22	37.76	23	1.2	100	1.2	113	0	977.8	NA	0.0000	-SN BR	1900	260	0	0	0
2019/10/21 14:02:00	BASE	31.83	22	37.76	23	1.2	100	1.2	114	0	978.3	NA	0.0000	-SN BR	1900	260	0	0	0
2019/10/21 14:03:00	BASE	29.93	23	37.76	23	1.3	100	1.3	115	0	978.3	NA	0.0000	-SN BR	1800	260	0	0	0
2019/10/21 14:04:00	BASE	30.31	23	37.76	23	1.2	100	1.2	118	0	978.3	NA	0.0000	-SN BR	1800	300	0	0	0
2019/10/21 14:05:00	BASE	31.05	24	37.76	23	1.2	100	1.2	124	0	978.1	NA	0.0000	-SN BR	1900	260	0	0	0
2019/10/21 14:06:00	BASE	31.45	25	36.32	20	1.2	100	1.2	127	0	978.1	NA	0.0000	-SN BR	1700	300	0	0	0
2019/10/21 14:07:00	BASE	30.75	25	36.32	20	1.2	100	1.2	126	0	978.2	NA	0.0000	-SN BR	1700	300	0	0	0
2019/10/21 14:08:00	BASE	30.04	24	36.32	20	1.2	100	1.2	121	0	978.2	NA	0.2540	-SN BR	2000	330	0	0	0
2019/10/21 14:09:00	BASE	31.64	25	36.94	21	1.3	100	1.3	117	0	978.0	NA	0.0000	-SN BR	1800	330	0	0	0
2019/10/21 14:10:00	BASE	33.43	25	36.94	21	1.3	100	1.3	113	0	978.0	NA	0.0000	-SN BR	1600	300	0	0	0
2019/10/21 14:11:00	BASE	32.06	23	36.94	21	1.3	100	1.3	109	0	978.1	NA	0.0000	-SN BR	1400	300	0	0	0
2019/10/21 14:12:00	BASE	30.94	21	36.94	21	1.3	100	1.3	105	0	978.1	NA	0.0000	-SN BR	1700	260	0	0	0
2019/10/21 14:13:00	BASE	31.03	20	36.94	21	1.3	100	1.3	104	0	978.1	NA	0.0000	-SN BR	1400	200	0	0	0
2019/10/21 14:14:00	BASE	30.53	20	36.94	21	1.3	100	1.3	104	0	978.1	NA	0.0000	-SN BR	1400	0	0	0	1710
2019/10/21 14:15:00	BASE	31.02	21	36.94	21	1.2	100	1.2	107	0	978.0	NA	0.0000	-SN BR	1500	0	0	0	1670
2019/10/21 14:16:00	BASE	30.97	24	36.94	21	1.2	100	1.2	112	0	978.2	NA	0.0000	-SN BR	1500	0	0	0	1670
2019/10/21 14:17:00	BASE	30.94	26	36.94	21	1.2	100	1.2	119	0	978.0	NA	0.0000	-SN BR	1400	200	0	0	0
2019/10/21 14:18:00	BASE	32.29	25	36.94	21	1.2	100	1.2	126	0	977.8	NA	0.0000	-SN BR	1100	230	0	0	0
2019/10/21 14:19:00	BASE	31.79	25	36.89	24	1.2	100	1.2	132	0	978.0	NA	0.0000	-SN BR	1200	260	0	0	0
2019/10/21 14:20:00	BASE	30.84	24	35.91	27	1.2	100	1.2	131	0	978.0	NA	0.0000	-SN BR	1500	300	0	0	0
2019/10/21 14:21:00	BASE	30.67	21	35.91	27	1.3	100	1.3	132	0	977.9	NA	0.0000	-SN BR	1600	300	0	0	0
2019/10/21 14:22:00	BASE	30.62	20	35.91	27	1.3	100	1.3	129	0	977.8	NA	0.0000	-SN BR	1800	260	0	0	0
2019/10/21 14:23:00	BASE	30.04	22	35.91	27	1.3	100	1.3	123	0	977.9	NA	0.0000	-SN BR	1700	260	0	0	0
2019/10/21 14:24:00	BASE	28.83	22	35.91	27	1.3	100	1.3	119	0	977.9	NA	0.0000	-SN BR	2000	260	0	0	0
2019/10/21 14:25:00	BASE	29.28	22	35.91	27	1.3	100	1.3	120	0	977.8	NA	0.2540	-SN BR	1500	260	0	0	0
2019/10/21 14:26:00	BASE	29.69	24	35.91	27	1.3	100	1.3	120	0	977.8	NA	0.0000	-SN BR	1700	300	0	0	0
2019/10/21 14:27:00	BASE	31.12	23	36.83	24	1.3	100	1.3	130	0	977.6	NA	0.0000	-SN BR	1500	330	0	0	0
2019/10/21 14:28:00	BASE	33.88	23	36.83	18	1.4	100	1.4	137	0	977.5	NA	0.0000	-SN BR	1600	300	0	0	0
2019/10/21 14:29:00	BASE	33.57	24	36.83	18	1.4	100	1.4	146	0	977.6	NA	0.0000	-SN BR	2000	300	0	0	0
2019/10/21 14:30:00	BASE	31.40	25	36.83	18	1.4	100	1.4	158	0	977.6	NA	0.0000	-SN BR	2200	750	0	0	0
2019/10/21 14:31:00	BASE	31.31	25	36.83	18	1.4	100	1.4	169	0	977.4	NA	0.0000	-SN BR	2100	300	0	0	0
2019/10/21 14:32:00	BASE	31.90	24	36.83	18	1.4	100	1.4	171	0	977.5	NA	0.0000	-SN BR	2100	300	0	0	0
2019/10/21 14:33:00	BASE	31.57	24	36.83	18	1.4	100	1.4	170	0	977.4	NA	0.0000	-SN BR	1900	330	0	0	0
2019/10/21 14:34:00	BASE	30.48	26	36.83	18	1.4	100	1.4	171	0	977.6	NA	0.0000	-SN BR	2000	330	0	0	0
2019/10/21 14:35:00	BASE	29.04	27	36.83	18	1.4	100	1.4	169	0	977.4	NA	0.0000	-SN BR	2100	300	0	0	0
2019/10/21 14:36:00	BASE	31.04	27	38.43	28	1.5	100	1.5	164	0	977.2	NA	0.0000	-SN BR	1900	1020	0	0	0
2019/10/21 14:37:00	BASE	30.93	29	38.43	28	1.4	100	1.4	157	0	977.6	NA	0.0000	-SN BR	2000	300	0	0	0
2019/10/21 14:38:00	BASE	29.49	28	38.43	28	1.4	100	1.4	154	0	977.5	NA	0.2540	-SN BR	1800	330	0	0	0
2019/10/21 14:39:00	BASE	30.22	28	38.43	28	1.4	100	1.4	149	0	977.5	NA	0.0000	-SN BR	1900	330	0	0	0
2019/10/21 14:40:00	BASE	30.31	30	38.43	28	1.4	100	1.4	146	0	977.5	NA	0.0000	-SN BR	2300	300	0	0	0
2019/10/21 14:41:00	BASE	31.58	29	38.43	28	1.4	100	1.4	145	0	977.3	NA	0.0000	-SN BR	2000	300	0	0	0
2019/10/21 14:42:00	BASE	32.77	28	38.43	28	1.4	100	1.4	146	0	977.3	NA	0.0000	-SN BR	1600	0	0	0	2530
2019/10/21 14:43:00	BASE	31.90	28	38.43	28	1.4	100	1.4	143	0	977.4	NA	0.0000	-SN BR	1500	0	0	0	3080
2019/10/21 14:44:00	BASE	30.96	26	38.43	28	1.4	100	1.4	135	0	977.2	NA	0.0000	-SN BR	1600	0	0	0	3080
2019/10/21 14:45:00	BASE	30.53	25	38.43	28	1.4	100	1.4	136	0	977.3	NA	0.0000	-SN BR	1700	300	0	0	0
2019/10/21 14:46:00	BASE	31.01	28	36.63	31	1.4	100	1.4	134	0	977.2	NA	0.0000	-SN BR	1900	330	0	0	0
2019/10/21 14:47:00	BASE	30.89	29	36.63	31	1.4	100	1.4	135	0	977.3	NA	0.2540	-SN BR	1800	330	0	0	0
2019/10/21 14:48:00	BASE	31.06	29	36.63	31	1.4	100	1.4	142	0	977.2	NA	0.0000	-SN BR	1700	360	0	0	0
2019/10/21 14:49:00	BASE	32.40	30	36.63	31	1.4	100	1.4	143	0	977.1	NA	0.0000	-SN BR	1800	300	0	0	0
2019/10/21 14:50:00	BASE	31.93	30	36.63	31	1.4	100	1.4	144	0	977.1	NA	0.0000	-SN BR	1600	330	0	0	0
2019/10/21 14:51:00	BASE	31.57	29	36.63	31	1.4	100	1.4	139	0	977.1	NA	0.0000	-SN BR	1600	330	0	0	0
2019/10/21 14:52:00	BASE	31.43	29	35.45	35	1.4	100	1.4	135	0	977.1	NA	0.0000	-SN BR	2000	330	0	0	0
2019/10/21 14:53:00	BASE	31.54	29	38.02	30	1.4	100	1.4	133	0	977.1	NA	0.0000	-SN BR	1700	330	20110	0	0
2019/10/21 14:54:00	BASE	31.48	28	38.69	24	1.4	100	1.4	138	0	977.0	NA	0.0000	-SN BR	1700	300	0	0	0
2019/10/21 14:55:00	BASE	31.54	27	38.69	24	1.4	100	1.4	144	0	976.9	NA	0.0000	-SN BR	1600	260	0	0	0
2019/10/21 14:56:00	BASE	32.54	29	38.69	24	1.4	100	1.4	150	0	977.0	NA	0.0000	-SN BR	1300	300	0	0	0
2019/10/21 14:57:00	BASE	33.21	31	38.69	24	1.4	100	1.4	157	0	977.1	NA	0.2540	-SN BR	1200	260	0	0	0
2019/10/21 14:58:00	BASE	31.43	30	38.69	24	1.4	100	1.4	162	0	977.1	NA	0.0000	-SN BR	1200	300	0	0	0
2019/10/21 14:59:00	BASE	30.86	30	38.69	24	1.4	100	1.4	170	0	977.0	NA	0.0000	-SN BR	1300	260	0	0	0
2019/10/21 15:00:00	BASE	30.88	28	38.69	24	1.4	100	1.4	168	0	977.0	NA	0.0000	-SN BR	1100	260	0	0	0
2019/10/21 15:01:00	BASE	30.78	27	38.69	24	1.4	100	1.4	160	0	976.9	NA	0.0000	-SN BR	1100	300	0	0	0
2019/10/21 15:02:00	BASE	32.67	26	38.69	24	1.4	100	1.4	150	0	976.7	NA	0.0000	-SN BR	1400	330	0	0	0
2019/10/21 15:03:00	BASE	32.41	24	38.69	24	1.4	100	1.4	148	0	976.8	NA	0.0000	-SN BR	1300	330	0	0	0
2019/10/21 15:04:00	BASE	31.60	26	37.97	32	1.4	100	1.4	153	0	976.8	NA	0.0000	-SN BR	1600	330	0	0	0
2019/10/21 15:05:00	BASE	33.36	27	38.27	23	1.5	100	1.5	158	0	976.5	NA	0.0000	-SN BR	1700	330	0	0	0
2019/10/21 15:06:00	BASE	34.43	26	38.27	23	1.5	100	1.5	159	0	976.5	NA	0.2540	-SN BR	1300	330	0	0	0
2019/10/21 15:07:00	BASE	34.48	26	41.67	29	1.5	100	1.5	158	0	976.3	NA	0.0000	-SN BR	1500	390	0	0	0
2019/10/21 15:08:00	BASE	35.18	26	41.67	29	1.5	100	1.5	159	0	976.4	NA	0.0000	-SN BR	1700	430	0	0	0
2019/10/21 15:09:00	BASE	35.48	25	41.67	29	1.5	100	1.5	151	0	976.3	NA	0.0000	-SN BR	1900	0	0	0	2920
2019/10/21 15:10:00	BASE	34.95	26	41.67	29	1.5	100	1.5	155	0	976.5	NA	0.0000	-SN BR	1900	390	0	0	0
2019/10/21 15:11:00	BASE	32.67	29	41.67	29	1.6	100	1.6	158	0	976.6	NA	0.0000	-SN BR	1800	330	24280	0	0
2019/10/21 15:12:00	BASE	31.05	26	41.67	29	1.6	100	1.6	162	0	976.6	NA	0.0000	-SN BR	2000	330	19360	0	0
2019/10/21 15:13:00	BASE	32.86	24	41.67	29	1.6	100	1.6	175	0	976.4	NA	0.0000	-SN BR	1900	300	0	0	0
2019/10/21 15:14:00	BASE	33.96	28	41.67	29	1.5	100	1.5	179	0	976.5	NA	0.0000	-SN BR	1800	330	0	0	0
2019/10/21 15:15:00	BASE	33.26	29	41.67	29	1.5	100	1.5	177	0	976.4	NA	0.0000	-SN BR	1700	22740	0	0	0
2019/10/21 15:16:00	BASE	33.19	27	41.67	29	1.5	100	1.5	178	0	976.5	NA	0.0000	-SN BR	1700	1350	0	0	0
2019/10/21 15:17:00	BASE	33.45	29	39.51	31	1.5	100	1.5	180	0	976.4	NA	0.2540	-SN BR	1700	0	0	0	2490
2019/10/21 15:18:00	BASE	33.64	29	39.51	31	1.5	100	1.5	176	0	976.4	NA	0.0000	-SN BR	1900	0	0	0	2850
2019/10/21 15:19:00	BASE	34.56	27	39.66	27	1.5	100	1.5	176	0	976.2	NA	0.0000	-SN BR	1700	0	0	0	2430
2019/10/21 15:20:00	BASE	35.25	27	39.66	27	1.5	100	1.5	168	0	976.3	NA	0.0000	-SN BR	1700	390	0	0	0
2019/10/21 15:21:00	BASE	33.85	26	39.66	27	1.5	100	1.5	162	0	976.4	NA	0.0000	-SN BR	1600	330	0	0	0
2019/10/21 15:22:00	BASE	32.78	26	39.66	27	1.5	100	1.5	173	0	976.4	NA	0.0000	-SN BR	2000	330	0	0	0
2019/10/21 15:23:00	BASE	32.70	27	39.66	27	1.5	100	1.5	167	0	976.4	NA	0.0000	-SN BR	1500	330	0	0	0
2019/10/21 15:24:00	BASE	31.27	28	39.66	27	1.5	100	1.5	170	0	976.6	NA	0.0000	-SN BR	1500	330	0	0	0
2019/10/21 15:25:00	BASE	30.72	30	39.66	27	1.5	100	1.5	173	0	976.4	NA	0.0000	-SN BR	1700	330	0	0	0
2019/10/21 15:26:00	BASE	32.65	28	39.66	27	1.5	100	1.5	170	0	976.2	NA	0.0000	-SN BR	1600	360	0	0	0
2019/10/21 15:27:00	BASE	32.63	27	39.66	27	1.5	100	1.5	153	0	976.3	NA	0.0000	-SN BR	2200	390	0	0	0
2019/10/21 15:28:00	BASE	31.35	27	39.66	27	1.5	100	1.5	157	0	976.4	NA	0.2540	-SN BR	1900	360	0	0	0
2019/10/21 15:29:00	BASE	31.85	27	38.27	21	1.5	100	1.5	140	0	976.3	NA	0.0000	-SN BR	2000	390	0	0	0
2019/10/21 15:30:00	BASE	32.37	27	37.76	19	1.5	100	1.5	133	0	976.3	NA	0.0000	-SN BR	2400	390	0	0	0
2019/10/21 15:31:00	BASE	32.56	27	37.76	19	1.5	100	1.5	138	0	976.3	NA	0.0000	-SN BR	2000	360	0	0	0
2019/10/21 15:32:00	BASE	33.34	27	37.76	19	1.5	100	1.5	127	0	976.3	NA	0.0000	-SN BR	2300	360	0	0	0
2019/10/21 15:33:00	BASE	32.47	25	37.76	19	1.5	100	1.5	116	0	976.4	NA	0.0000	-SN BR	2100	360	0	0	0
2019/10/21 15:34:00	BASE	31.07	26	37.76	19	1.5	100	1.5	122	0	976.4	NA	0.0000	-SN BR	2200	0	0	0	2130
2019/10/21 15:35:00	BASE	30.07	26	37.76	19	1.5	100	1.5	131	0	976.3	NA	0.0000	-SN BR	2200	430	0	0	0
2019/10/21 15:36:00	BASE	31.98	26	36.94	28	1.5	100	1.5	129	0	976.1	NA	0.0000	-SN BR	2300	0	0	0	2620
2019/10/21 15:37:00	BASE	35.01	27	40.59	28	1.5	100	1.5	111	0	976.0	NA	0.0000	-SN BR	2100	0	0	0	2400
2019/10/21 15:38:00	BASE	34.37	26	40.59	28	1.5	100	1.5	113	0	976.1	NA	0.2540	-SN BR	1600	360	0	0	0
2019/10/21 15:39:00	BASE	33.48	28	40.59	28	1.5	100	1.5	109	0	976.0	NA	0.0000	-SN BR	1600	390	0	0	0
2019/10/21 15:40:00	BASE	33.42	27	40.59	28	1.6	100	1.6	102	0	975.9	NA	0.0000	-SN BR	1800	360	0	0	0
2019/10/21 15:41:01	BASE	32.42	26	40.59	28	1.6	100	1.6	112	0	976.1	NA	0.0000	-SN BR	1700	360	0	0	0
2019/10/21 15:42:01	BASE	31.47	28	40.59	28	1.6	100	1.6	103	0	976.2	NA	0.2540	-SN BR	1900	460	0	0	0
2019/10/21 15:43:01	BASE	31.20	28	40.59	28	1.6	100	1.6	98	0	976.1	NA	0.0000	-SN BR	2100	390	0	0	0
2019/10/21 15:44:01	BASE	31.49	25	40.59	28	1.6	100	1.6	95	0	976.1	NA	0.0000	-SN BR	2200	430	0	0	0
2019/10/21 15:45:01	BASE	32.54	24	40.59	28	1.6	100	1.6	91	0	976.0	NA	0.0000	-SN BR	2200	390	0	0	0
2019/10/21 15:46:01	BASE	33.37	25	40.59	28	1.6	100	1.6	92	0	975.9	NA	0.0000	-SN BR	2200	0	0	0	2000
2019/10/21 15:47:01	BASE	33.75	23	39.46	20	1.6	100	1.6	92	0	975.8	NA	0.0000	-SN BR	2300	0	0	0	1670
2019/10/21 15:48:01	BASE	36.71	21	42.90	24	1.6	100	1.6	90	0	975.5	NA	0.0000	-SN BR	2100	430	0	0	0
2019/10/21 15:49:00	BASE	37.76	20	42.90	24	1.6	100	1.6	89	0	975.7	NA	0.0000	-SN BR	1800	430	0	0	0
2019/10/21 15:50:00	BASE	36.36	21	42.90	24	1.6	100	1.6	85	0	975.7	NA	0.0000	-SN BR	2000	460	0	0	0
2019/10/21 15:51:00	BASE	37.09	23	42.90	24	1.6	100	1.6	97	0	975.6	NA	0.0000	-SN BR	1900	390	0	0	0
2019/10/21 15:52:00	BASE	37.29	25	42.90	24	1.7	100	1.7	107	0	975.7	NA	0.2540	-SN BR	1700	430	0	0	0
2019/10/21 15:53:00	BASE	36.87	25	42.90	24	1.7	100	1.7	106	0	975.6	NA	0.0000	-SN BR	2100	520	0	0	0
2019/10/21 15:54:00	BASE	36.74	22	42.90	24	1.7	100	1.7	110	0	975.7	NA	0.0000	-SN BR	2100	390	0	0	0
2019/10/21 15:55:00	BASE	37.29	20	42.90	24	1.7	100	1.7	106	0	975.5	NA	0.0000	-SN BR	1600	430	0	0	0
2019/10/21 15:56:00	BASE	36.73	19	42.90	24	1.7	100	1.7	99	0	975.7	NA	0.0000	-SN BR	1000	430	0	0	0
2019/10/21 15:57:00	BASE	36.05	19	42.90	24	1.7	100	1.7	100	0	975.6	NA	0.0000	-SN BR	2200	360	0	0	0
2019/10/21 15:58:00	BASE	35.78	20	42.80	26	1.7	100	1.7	98	0	975.7	NA	0.0000	-SN BR	2000	360	0	0	0
2019/10/21 15:59:00	BASE	36.48	20	42.80	26	1.7	100	1.7	98	0	975.4	NA	0.0000	-SN BR	2100	360	0	0	0
2019/10/21 16:00:00	BASE	36.51	20	42.13	21	1.7	100	1.7	102	0	975.6	NA	0.0000	-SN BR	2300	360	0	0	0
2019/10/21 16:01:00	BASE	36.45	21	42.13	21	1.6	100	1.6	109	0	975.4	NA	0.0000	-SN BR	2100	0	0	0	2100
2019/10/21 16:02:00	BASE	38.58	24	43.16	32	1.6	100	1.6	105	0	975.2	NA	0.2540	-SN BR	1400	0	0	0	2130
2019/10/21 16:03:00	BASE	39.38	24	43.16	32	1.6	100	1.6	102	0	975.0	NA	0.0000	-SN BR	0700	390	0	0	0
2019/10/21 16:04:00	BASE	39.98	22	44.29	20	1.7	100	1.7	105	0	975.0	NA	0.0000	-SN BR	1700	360	22150	0	0
2019/10/21 16:05:00	BASE	39.44	21	44.29	20	1.7	100	1.7	99	0	975.3	NA	0.0000	-SN BR	1900	390	0	0	0
2019/10/21 16:06:00	BASE	37.99	22	44.29	20	1.7	100	1.7	102	0	975.2	NA	0.0000	-SN BR	2100	390	0	0	0
2019/10/21 16:07:00	BASE	37.94	23	44.29	20	1.7	100	1.7	102	0	975.2	NA	0.0000	-SN BR	1800	360	0	0	0
2019/10/21 16:08:00	BASE	39.01	25	44.86	29	1.7	100	1.7	107	0	975.0	NA	0.0000	-SN BR	1700	390	0	0	0
2019/10/21 16:09:00	BASE	39.77	24	44.86	29	1.7	100	1.7	107	0	975.0	NA	0.0000	-SN BR	1700	360	0	0	0
2019/10/21 16:10:00	BASE	38.75	23	44.86	29	1.7	100	1.7	108	0	975.0	NA	0.2540	-SN BR	1900	0	0	0	1840
2019/10/21 16:11:00	BASE	37.54	21	44.86	29	1.7	100	1.7	122	0	975.2	NA	0.0000	-SN BR	1900	390	0	0	0
2019/10/21 16:12:00	BASE	36.97	20	44.86	29	1.7	100	1.7	129	0	975.2	NA	0.0000	-SN BR	1900	360	0	0	0
2019/10/21 16:13:00	BASE	38.58	22	44.86	29	1.7	100	1.7	123	0	975.0	NA	0.0000	-SN BR	1800	360	0	0	0
2019/10/21 16:14:00	BASE	41.57	24	46.87	24	1.7	100	1.7	112	0	974.7	NA	0.0000	-SN BR	1600	360	0	0	0
2019/10/21 16:15:00	BASE	42.05	24	46.87	24	1.7	100	1.7	108	0	974.9	NA	0.2540	-SN BR	1400	330	0	0	0
2019/10/21 16:16:00	BASE	40.05	25	46.87	24	1.8	100	1.8	107	0	975.0	NA	0.0000	-SN BR	1300	330	0	0	0
2019/10/21 16:17:00	BASE	39.24	27	46.87	24	1.7	100	1.7	103	0	974.9	NA	0.0000	-SN BR	1400	330	0	0	0
2019/10/21 16:18:00	BASE	39.35	26	46.87	24	1.7	100	1.7	103	0	975.1	NA	0.0000	-SN BR	1400	330	0	0	0
2019/10/21 16:19:00	BASE	38.75	25	46.87	24	1.7	100	1.7	93	0	975.0	NA	0.0000	-SN BR	1400	0	0	0	1870
2019/10/21 16:20:00	BASE	39.28	24	46.87	24	1.7	100	1.7	83	0	974.9	NA	0.2540	-SN BR	1400	330	0	0	0
2019/10/21 16:21:00	BASE	39.42	25	46.87	24	1.6	100	1.6	90	0	974.9	NA	0.0000	-SN BR	1300	330	0	0	0
2019/10/21 16:22:00	BASE	39.01	27	46.87	24	1.6	100	1.6	97	0	974.8	NA	0.0000	-SN BR	1200	360	0	0	0
2019/10/21 16:23:00	BASE	39.32	27	46.87	24	1.6	100	1.6	92	0	974.8	NA	0.0000	-SN BR	1300	330	0	0	0
2019/10/21 16:24:00	BASE	38.50	27	46.40	24	1.7	100	1.7	90	0	974.9	NA	0.2540	-SN BR	1500	0	0	0	2100
2019/10/21 16:25:00	BASE	37.89	28	44.19	30	1.7	100	1.7	90	0	974.9	NA	0.0000	-SN BR	1800	390	0	0	0
2019/10/21 16:26:00	BASE	38.53	26	43.62	24	1.7	100	1.7	89	0	974.8	NA	0.0000	-SN BR	1600	0	0	0	2070
2019/10/21 16:27:00	BASE	39.01	22	43.62	24	1.7	100	1.7	90	0	974.8	NA	0.0000	-SN BR	1400	330	0	0	0
2019/10/21 16:28:00	BASE	36.94	19	43.11	22	1.6	100	1.6	87	0	975.1	NA	0.0000	-SN BR	1300	300	0	0	0
2019/10/21 16:29:00	BASE	33.70	17	43.11	22	1.6	100	1.6	82	0	975.3	NA	0.0000	-SN BR	1700	330	0	0	0
2019/10/21 16:30:00	BASE	33.45	18	43.11	22	1.5	100	1.5	74	0	975.2	NA	0.0000	-SN BR	2100	360	0	0	0
2019/10/21 16:31:00	BASE	33.91	15	43.11	22	1.5	100	1.5	70	0	975.2	NA	0.0000	-SN BR	1900	330	0	0	0
2019/10/21 16:32:00	BASE	32.55	13	43.11	22	1.4	100	1.4	71	0	975.3	NA	0.0000	-SN BR	1800	360	0	0	0
2019/10/21 16:33:00	BASE	33.32	11	43.11	22	1.4	100	1.4	68	0	975.0	NA	0.2540	-SN BR	2100	330	0	0	0
2019/10/21 16:34:00	BASE	35.73	7	43.11	22	1.3	100	1.3	64	0	974.9	NA	0.0000	-SN BR	1900	360	0	0	0
2019/10/21 16:35:00	BASE	34.30	10	43.11	22	1.3	100	1.3	64	0	975.2	NA	0.0000	-SN BR	2200	360	0	0	0
2019/10/21 16:36:00	BASE	33.75	18	42.24	23	1.3	100	1.3	69	0	974.9	NA	0.0000	-SN BR	2100	360	0	0	0
2019/10/21 16:37:00	BASE	36.74	23	41.72	30	1.3	100	1.3	69	0	974.7	NA	0.0000	-SN BR	1500	300	0	0	0
2019/10/21 16:38:00	BASE	39.82	25	44.04	22	1.3	100	1.3	64	0	974.4	NA	0.0000	-SN BR	1300	0	0	0	1770
2019/10/21 16:39:00	BASE	39.61	26	44.04	22	1.3	100	1.3	79	0	974.7	NA	0.0000	-SN BR	1300	750	0	0	0
2019/10/21 16:40:00	BASE	37.52	26	44.04	22	1.3	100	1.3	81	0	974.5	NA	0.2540	-SN BR	1400	330	0	0	0
2019/10/21 16:41:00	BASE	37.82	26	44.04	22	1.4	100	1.4	84	0	974.4	NA	0.0000	-SN BR	1400	360	0	0	0
2019/10/21 16:42:00	BASE	36.72	26	44.04	22	1.4	100	1.4	86	0	974.6	NA	0.0000	-SN BR	1900	360	0	0	0
2019/10/21 16:43:00	BASE	37.13	26	44.65	26	1.4	100	1.4	84	0	974.1	NA	0.0000	-SN BR	2100	430	0	0	0
2019/10/21 16:44:00	BASE	38.88	27	44.65	26	1.4	100	1.4	79	0	974.3	NA	0.0000	-SN BR	1800	430	0	0	0
2019/10/21 16:45:00	BASE	37.77	26	44.65	26	1.5	100	1.5	80	0	974.5	NA	0.0000	-SN BR	0900	390	0	0	0
2019/10/21 16:46:00	BASE	36.74	24	44.65	26	1.5	100	1.5	74	0	974.4	NA	0.2540	-SN BR	1800	390	0	0	0
2019/10/21 16:47:00	BASE	37.58	24	44.65	26	1.5	100	1.5	66	0	974.4	NA	0.0000	-SN BR	1700	1310	0	0	0
2019/10/21 16:48:00	BASE	38.83	21	44.65	26	1.5	100	1.5	68	0	974.4	NA	0.0000	-SN BR	1600	390	0	0	0
2019/10/21 16:49:00	BASE	36.92	16	44.65	26	1.5	100	1.5	66	0	974.7	NA	0.0000	-SN BR	1700	360	0	0	0
2019/10/21 16:50:00	BASE	34.83	15	44.65	26	1.4	100	1.4	68	0	974.6	NA	0.0000	-SN BR	1900	390	0	0	0
2019/10/21 16:51:00	BASE	37.54	18	44.65	26	1.4	100	1.4	66	0	974.2	NA	0.0000	-SN BR	2000	360	0	0	0
2019/10/21 16:52:00	BASE	39.84	21	44.65	26	1.4	100	1.4	68	0	974.2	NA	0.2540	-SN BR	1500	330	0	0	0
2019/10/21 16:53:00	BASE	39.68	22	44.71	16	1.4	100	1.4	69	0	974.1	NA	0.0000	-SN BR	1500	330	0	0	0
2019/10/21 16:54:00	BASE	39.01	22	44.71	16	1.4	100	1.4	69	0	974.4	NA	0.0000	-SN BR	1500	330	0	0	0
2019/10/21 16:55:00	BASE	38.02	22	44.71	16	1.4	100	1.4	71	0	974.3	NA	0.0000	-SN BR	1400	330	0	0	0
2019/10/21 16:56:00	BASE	36.75	22	44.71	16	1.4	100	1.4	71	0	974.4	NA	0.0000	-SN BR	1500	330	0	0	0
2019/10/21 16:57:00	BASE	37.12	20	44.71	16	1.4	100	1.4	71	0	974.3	NA	0.0000	-SN BR	1700	360	0	0	0
2019/10/21 16:58:00	BASE	38.45	20	44.71	16	1.3	100	1.3	71	0	974.4	NA	0.0000	-SN BR	1700	360	0	0	0
2019/10/21 16:59:00	BASE	38.53	19	44.71	16	1.3	100	1.3	71	0	974.2	NA	0.2540	-SN BR	1700	360	0	0	0
2019/10/21 17:00:00	BASE	38.32	19	44.71	16	1.3	100	1.3	67	0	974.2	NA	0.0000	-SN BR	1600	0	0	0	1970
2019/10/21 17:01:00	BASE	38.95	18	44.71	16	1.3	100	1.3	65	0	974.0	NA	0.0000	-SN BR	1300	360	0	0	0
2019/10/21 17:02:00	BASE	41.63	19	46.30	21	1.3	100	1.3	68	0	973.9	NA	0.0000	-SN BR	1300	330	0	0	0
2019/10/21 17:03:00	BASE	42.68	21	46.30	21	1.3	100	1.3	68	0	973.9	NA	0.0000	-SN BR	1100	330	0	0	0
2019/10/21 17:04:00	BASE	41.89	23	46.30	21	1.4	100	1.4	65	0	973.8	NA	0.0000	-SN BR	1300	300	0	0	0
2019/10/21 17:05:00	BASE	42.29	22	50.47	22	1.4	100	1.4	67	0	973.7	NA	0.0000	-SN BR	1200	300	0	0	0
2019/10/21 17:06:00	BASE	41.78	22	50.47	22	1.4	100	1.4	71	0	973.8	NA	0.2540	-SN BR	1100	300	0	0	0
2019/10/21 17:07:00	BASE	42.28	23	50.47	22	1.4	100	1.4	75	0	973.6	NA	0.0000	-SN BR	1300	300	0	0	0
2019/10/21 17:08:00	BASE	43.03	24	50.47	22	1.4	100	1.4	77	0	973.7	NA	0.0000	-SN BR	1200	300	0	0	0
2019/10/21 17:09:00	BASE	43.38	24	50.47	22	1.5	100	1.5	79	0	973.5	NA	0.0000	-SN BR	1200	300	0	0	0
2019/10/21 17:10:00	BASE	44.67	24	51.44	23	1.5	100	1.5	81	0	973.5	NA	0.0000	-SN BR	1100	300	0	0	0
2019/10/21 17:11:00	BASE	45.18	25	51.44	23	1.5	100	1.5	80	0	973.3	NA	0.0000	-SN BR	1400	330	0	0	0
2019/10/21 17:12:00	BASE	44.26	25	51.44	23	1.5	100	1.5	82	0	973.5	NA	0.0000	-SN BR	1300	300	0	0	0
2019/10/21 17:13:00	BASE	44.11	24	51.44	23	1.5	100	1.5	83	0	973.3	NA	0.0000	-SN BR	1200	300	0	0	0
2019/10/21 17:14:00	BASE	43.27	26	51.44	23	1.5	100	1.5	81	0	973.6	NA	0.0000	-SN BR	1100	330	0	0	0
2019/10/21 17:15:00	BASE	42.18	26	51.44	23	1.5	100	1.5	80	0	973.4	NA	0.2540	-SN BR	1300	330	0	0	0
2019/10/21 17:16:00	BASE	43.87	26	51.44	23	1.5	100	1.5	83	0	973.2	NA	0.0000	-SN BR	1000	300	0	0	0
2019/10/21 17:17:00	BASE	44.48	27	51.44	23	1.5	100	1.5	86	0	972.9	NA	0.0000	-SN BR	1100	330	0	0	0
2019/10/21 17:18:00	BASE	45.32	26	51.44	23	1.5	100	1.5	83	0	973.1	NA	0.0000	-SN BR	1100	330	0	0	0
2019/10/21 17:19:00	BASE	43.69	27	51.44	23	1.5	100	1.5	77	0	973.4	NA	0.0000	-SN BR	1000	300	0	0	0
2019/10/21 17:20:00	BASE	41.19	29	50.36	28	1.5	100	1.5	73	0	973.5	NA	0.0000	-SN BR	1200	330	0	0	0
2019/10/21 17:21:00	BASE	41.14	27	50.36	28	1.5	100	1.5	72	0	973.4	NA	0.0000	-SN BR	1200	330	0	0	0
2019/10/21 17:22:00	BASE	41.23	26	50.36	28	1.4	100	1.4	69	0	973.5	NA	0.2540	-SN BR	1100	300	19060	0	0
2019/10/21 17:23:00	BASE	41.25	28	49.23	29	1.4	100	1.4	67	0	973.4	NA	0.0000	-SN BR	1000	260	0	0	0
2019/10/21 17:24:00	BASE	41.21	29	49.23	29	1.4	100	1.4	65	0	973.5	NA	0.0000	-SN BR	1000	300	0	0	0
2019/10/21 17:25:00	BASE	40.72	27	49.23	29	1.3	100	1.3	69	0	973.5	NA	0.0000	-SN BR	1200	330	23200	0	0
2019/10/21 17:26:00	BASE	41.38	27	49.23	29	1.3	100	1.3	72	0	973.2	NA	0.0000	-SN BR	1200	300	0	0	0
2019/10/21 17:27:00	BASE	42.11	28	48.51	24	1.3	100	1.3	73	0	973.3	NA	0.2540	-SN BR	1300	330	22740	0	0
2019/10/21 17:28:00	BASE	40.64	29	47.89	32	1.3	100	1.3	73	0	973.3	NA	0.0000	-SN BR	1300	300	0	0	0
2019/10/21 17:29:00	BASE	38.47	27	47.89	32	1.3	100	1.3	77	0	973.6	NA	0.0000	-SN BR	1400	330	0	0	0
2019/10/21 17:30:00	BASE	39.04	27	47.89	32	1.2	100	1.2	73	0	973.3	NA	0.0000	-SN BR	1500	330	0	0	0
2019/10/21 17:31:00	BASE	40.05	28	47.23	29	1.2	100	1.2	77	0	973.3	NA	0.0000	-SN BR	1500	330	0	0	0
2019/10/21 17:32:00	BASE	39.98	27	47.23	29	1.2	100	1.2	75	0	973.2	NA	0.2540	-SN BR	1400	300	0	0	0
2019/10/21 17:33:00	BASE	41.28	27	47.23	29	1.2	100	1.2	73	0	973.1	NA	0.0000	-SN BR	1500	330	0	0	0
2019/10/21 17:34:00	BASE	40.72	27	47.23	29	1.2	100	1.2	77	0	973.3	NA	0.0000	-SN BR	1500	330	0	0	0
2019/10/21 17:35:00	BASE	39.71	25	47.23	29	1.2	100	1.2	79	0	973.2	NA	0.0000	-SN BR	1600	330	0	0	0
2019/10/21 17:36:00	BASE	39.05	26	47.23	29	1.2	100	1.2	82	0	973.3	NA	0.0000	-SN BR	1600	300	0	0	0
2019/10/21 17:37:00	BASE	39.24	27	47.23	29	1.2	100	1.2	80	0	973.3	NA	0.0000	-SN BR	1600	300	0	0	0
2019/10/21 17:38:00	BASE	41.31	24	51.29	17	1.2	100	1.2	73	0	973.0	NA	0.2540	-SN BR	1500	300	0	0	0
2019/10/21 17:39:00	BASE	41.00	24	51.29	17	1.2	100	1.2	72	0	973.3	NA	0.0000	-SN BR	1400	300	0	0	0
2019/10/21 17:40:00	BASE	40.59	27	51.29	17	1.2	100	1.2	74	0	973.1	NA	0.0000	-SN BR	1400	300	0	0	0
2019/10/21 17:41:00	BASE	42.01	26	51.29	17	1.2	100	1.2	74	0	973.1	NA	0.0000	-SN BR	1500	330	0	0	0
2019/10/21 17:42:00	BASE	41.68	23	51.29	17	1.2	100	1.2	74	0	973.0	NA	0.0000	-SN BR	1400	300	0	0	0
2019/10/21 17:43:00	BASE	41.89	23	51.29	17	1.2	100	1.2	77	0	973.0	NA	0.0000	-SN BR	1600	330	0	0	0
2019/10/21 17:44:00	BASE	42.62	23	51.29	17	1.2	100	1.2	78	0	973.0	NA	0.0000	-SN BR	1400	300	0	0	0
2019/10/21 17:45:00	BASE	40.97	25	51.29	17	1.2	100	1.2	75	0	973.2	NA	0.2540	-SN BR	1400	330	0	0	0
2019/10/21 17:46:00	BASE	40.29	25	51.29	17	1.2	100	1.2	75	0	973.1	NA	0.0000	-SN BR	1500	360	0	0	0
2019/10/21 17:47:00	BASE	41.71	25	51.29	17	1.2	100	1.2	75	0	973.1	NA	0.0000	-SN BR	1300	360	0	0	0
2019/10/21 17:48:00	BASE	41.57	22	48.31	22	1.2	100	1.2	76	0	973.1	NA	0.0000	-SN BR	1400	330	0	0	0
2019/10/21 17:49:00	BASE	41.53	20	48.31	22	1.2	100	1.2	76	0	973.0	NA	0.0000	-SN BR	1600	330	17880	0	0
2019/10/21 17:50:00	BASE	41.57	20	48.31	22	1.2	100	1.2	77	0	973.1	NA	0.0000	-SN BR	1400	300	0	0	0
2019/10/21 17:51:00	BASE	42.71	19	50.16	19	1.2	100	1.2	75	0	972.9	NA	0.0000	-SN BR	1500	300	0	0	0
2019/10/21 17:52:00	BASE	43.15	19	50.16	19	1.2	100	1.2	71	0	973.0	NA	0.0000	-SN BR	1400	360	0	0	0
2019/10/21 17:53:00	BASE	41.37	20	50.16	19	1.2	100	1.2	66	0	973.0	NA	0.0000	-SN BR	1300	300	0	0	0
2019/10/21 17:54:00	BASE	39.70	22	50.16	19	1.2	100	1.2	70	0	973.3	NA	0.2540	-SN BR	1500	330	0	0	0
2019/10/21 17:55:00	BASE	39.14	21	50.16	19	1.2	100	1.2	81	0	973.1	NA	0.0000	-SN BR	1500	330	0	0	0
2019/10/21 17:56:00	BASE	40.35	19	50.16	19	1.1	100	1.1	88	0	973.0	NA	0.0000	-SN BR	1400	330	0	0	0
2019/10/21 17:57:00	BASE	40.74	20	50.16	19	1.1	100	1.1	95	0	972.8	NA	0.0000	-SN BR	1400	300	0	0	0
2019/10/21 17:58:00	BASE	41.50	21	50.16	19	1.1	100	1.1	98	0	972.8	NA	0.0000	-SN BR	1600	300	0	0	0
2019/10/21 17:59:00	BASE	41.44	20	50.16	19	1.1	100	1.1	99	0	972.8	NA	0.0000	-SN BR	1700	330	0	0	0
2019/10/21 18:00:00	BASE	41.60	19	50.16	19	1.1	100	1.1	88	0	972.8	NA	0.0000	-SN BR	1700	360	0	0	0
2019/10/21 18:01:00	BASE	41.95	20	46.97	14	1.1	100	1.1	88	0	972.9	NA	0.0000	-SN BR	1800	360	0	0	0
2019/10/21 18:02:00	BASE	41.93	19	49.34	18	1.2	100	1.2	87	0	972.8	NA	0.0000	-SN BR	1800	330	0	0	0
2019/10/21 18:03:00	BASE	40.58	18	49.34	18	1.2	100	1.2	87	0	973.1	NA	0.0000	-SN BR	1700	330	0	0	0
2019/10/21 18:04:00	BASE	39.48	18	49.34	18	1.2	100	1.2	84	0	973.0	NA	0.0000	-SN BR	1600	300	0	0	0
2019/10/21 18:05:00	BASE	39.50	17	49.34	18	1.2	100	1.2	83	0	973.1	NA	0.2540	-SN BR	1200	260	0	0	0
2019/10/21 18:06:00	BASE	38.32	14	49.34	18	1.2	100	1.2	82	0	973.2	NA	0.0000	-SN BR	1400	300	0	0	0
2019/10/21 18:07:00	BASE	36.86	13	49.34	18	1.1	100	1.1	81	0	973.3	NA	0.0000	-SN BR	1500	300	0	0	0
2019/10/21 18:08:00	BASE	36.41	15	49.34	18	1.1	100	1.1	79	0	973.3	NA	0.0000	-SN BR	1600	330	0	0	0
2019/10/21 18:09:00	BASE	37.20	15	49.34	18	1.0	100	1.0	78	0	973.1	NA	0.0000	-SN BR	1700	300	0	0	0
2019/10/21 18:10:00	BASE	36.07	16	49.34	18	1.0	100	1.0	80	0	973.3	NA	0.0000	-SN BR	1700	300	0	0	0
2019/10/21 18:11:00	BASE	35.52	16	49.34	18	1.0	100	1.0	82	0	973.1	NA	0.0000	-SN BR	1800	300	0	0	0
2019/10/21 18:12:00	BASE	34.97	16	43.16	21	1.0	100	1.0	91	0	973.3	NA	0.0000	-SN BR	1800	300	0	0	0
2019/10/21 18:13:00	BASE	35.61	17	43.16	21	1.0	100	1.0	96	0	973.1	NA	0.0000	-SN BR	1900	300	22180	0	0
2019/10/21 18:14:00	BASE	37.71	17	43.01	17	1.0	100	1.0	97	0	973.0	NA	0.0000	-SN BR	1900	300	0	0	0
2019/10/21 18:15:00	BASE	37.01	16	43.01	17	1.0	100	1.0	96	0	973.1	NA	0.0000	-SN BR	1700	300	0	0	0
2019/10/21 18:16:00	BASE	37.10	17	43.26	17	1.0	100	1.0	93	0	972.9	NA	0.0000	-SN BR	1600	300	0	0	0
2019/10/21 18:17:00	BASE	38.96	18	48.05	23	1.0	100	1.0	91	0	972.8	NA	0.2540	-SN BR	1600	260	0	0	0
2019/10/21 18:18:00	BASE	39.66	17	48.05	23	1.0	100	1.0	83	0	972.8	NA	0.0000	-SN BR	1500	300	0	0	0
2019/10/21 18:19:00	BASE	37.81	16	48.05	23	1.0	100	1.0	82	0	973.0	NA	0.0000	-SN BR	1600	300	0	0	0
2019/10/21 18:20:00	BASE	36.74	17	48.05	23	1.0	100	1.0	79	0	972.9	NA	0.0000	-SN BR	1800	300	0	0	0
2019/10/21 18:21:00	BASE	39.30	20	48.05	23	1.0	100	1.0	79	0	972.7	NA	0.0000	-SN BR	1600	330	0	0	0
2019/10/21 18:22:00	BASE	40.41	19	48.05	23	1.0	100	1.0	81	0	972.7	NA	0.0000	-SN BR	1400	300	0	0	0
2019/10/21 18:23:00	BASE	39.20	18	48.05	23	1.0	100	1.0	86	0	972.7	NA	0.0000	-SN BR	1400	260	0	0	0
2019/10/21 18:24:00	BASE	39.16	18	48.05	23	1.0	100	1.0	95	0	972.6	NA	0.0000	-SN BR	1300	300	0	0	0
2019/10/21 18:25:00	BASE	39.55	17	48.05	23	1.0	100	1.0	98	0	972.5	NA	0.0000	-SN BR	1200	300	0	0	0
2019/10/21 18:26:00	BASE	40.10	17	48.05	23	1.0	100	1.0	101	0	972.4	NA	0.2540	-SN BR	1200	820	22180	0	0
2019/10/21 18:27:00	BASE	40.31	17	47.53	18	1.0	100	1.0	102	0	972.4	NA	0.0000	-SN BR	1400	330	0	0	0
2019/10/21 18:28:00	BASE	39.58	15	47.53	18	1.0	100	1.0	100	0	972.6	NA	0.0000	-SN BR	1500	330	0	0	0
2019/10/21 18:29:00	BASE	39.39	15	47.53	18	1.0	100	1.0	102	0	972.6	NA	0.0000	-SN BR	1500	330	0	0	0
2019/10/21 18:30:00	BASE	41.08	14	47.53	18	1.0	100	1.0	96	0	972.3	NA	0.0000	-SN BR	1400	300	0	0	0
2019/10/21 18:31:00	BASE	41.10	13	47.53	18	1.0	100	1.0	94	0	972.7	NA	0.0000	-SN BR	1500	300	0	0	0
2019/10/21 18:32:00	BASE	39.08	13	47.53	18	1.0	100	1.0	94	0	972.6	NA	0.0000	-SN BR	1400	300	0	0	0
2019/10/21 18:33:00	BASE	38.65	12	47.53	18	1.0	100	1.0	93	0	972.6	NA	0.0000	-SN BR	1600	330	0	0	0
2019/10/21 18:34:00	BASE	38.62	12	47.02	17	1.0	100	1.0	91	0	972.6	NA	0.0000	-SN BR	1600	330	0	0	0
2019/10/21 18:35:00	BASE	38.87	13	46.51	13	1.0	100	1.0	89	0	972.4	NA	0.0000	-SN BR	1600	330	0	0	0
2019/10/21 18:36:00	BASE	39.31	13	46.51	13	1.0	100	1.0	86	0	972.5	NA	0.0000	-SN BR	1700	330	0	0	0
2019/10/21 18:37:00	BASE	39.05	14	46.51	13	1.0	100	1.0	84	0	972.5	NA	0.0000	-SN BR	1700	330	0	0	0
2019/10/21 18:38:00	BASE	38.16	15	46.51	13	1.0	100	1.0	82	0	972.5	NA	0.0000	-SN BR	1800	330	0	0	0
2019/10/21 18:39:00	BASE	37.12	15	46.51	13	1.0	100	1.0	82	0	972.5	NA	0.0000	-SN BR	1900	360	0	0	0
2019/10/21 18:40:00	BASE	37.42	14	43.26	15	1.0	100	1.0	81	0	972.5	NA	0.0000	-SN BR	2000	360	0	0	0
2019/10/21 18:41:00	BASE	38.06	15	43.26	15	1.0	100	1.0	82	0	972.4	NA	0.2540	-SN BR	1800	360	0	0	0
2019/10/21 18:42:00	BASE	37.40	14	43.26	15	1.0	100	1.0	84	0	972.5	NA	0.0000	-SN BR	1900	360	21720	0	0
2019/10/21 18:43:00	BASE	36.81	13	43.26	15	1.0	100	1.0	88	0	972.5	NA	0.0000	-SN BR	1800	330	0	0	0
2019/10/21 18:44:00	BASE	37.83	13	43.26	15	1.0	100	1.0	92	0	972.3	NA	0.0000	-SN BR	1700	330	0	0	0
2019/10/21 18:45:00	BASE	38.74	15	43.26	15	1.0	100	1.0	95	0	972.3	NA	0.0000	-SN BR	1700	330	0	0	0
2019/10/21 18:46:00	BASE	38.00	16	43.26	15	1.0	100	1.0	98	0	972.2	NA	0.0000	-SN BR	1700	0	0	0	1940
2019/10/21 18:47:00	BASE	37.60	16	42.80	19	1.0	100	1.0	100	0	972.2	NA	0.0000	-SN BR	1600	360	0	0	0
2019/10/21 18:48:00	BASE	39.07	15	43.78	7	1.0	100	1.0	102	0	971.9	NA	0.0000	-SN BR	1600	330	0	0	0
2019/10/21 18:49:00	BASE	42.12	15	47.79	20	1.0	100	1.0	103	0	971.7	NA	0.0000	-SN BR	1500	360	0	0	0
2019/10/21 18:50:00	BASE	42.10	16	47.79	20	1.0	100	1.0	104	0	971.9	NA	0.0000	-SN BR	1500	360	0	0	0
2019/10/21 18:51:00	BASE	40.16	13	47.79	20	1.1	100	1.1	100	0	972.0	NA	0.0000	-SN BR	1800	360	0	0	0
2019/10/21 18:52:00	BASE	40.03	14	47.79	20	1.1	100	1.1	94	0	972.0	NA	0.0000	-SN BR	1700	360	0	0	0
2019/10/21 18:53:00	BASE	39.15	15	47.79	20	1.1	100	1.1	93	0	972.1	NA	0.0000	-SN BR	1800	330	0	0	0
2019/10/21 18:54:00	BASE	39.96	16	47.79	20	1.1	100	1.1	91	0	971.8	NA	0.0000	-SN BR	1700	330	0	0	0
2019/10/21 18:55:00	BASE	41.20	16	47.79	20	1.0	100	1.0	91	0	971.9	NA	0.0000	-SN BR	1600	330	0	0	0
2019/10/21 18:56:00	BASE	40.51	16	47.79	20	1.0	100	1.0	90	0	971.9	NA	0.2540	-SN BR	1500	330	0	0	0
2019/10/21 18:57:00	BASE	40.38	15	47.79	20	1.0	100	1.0	93	0	971.9	NA	0.0000	-SN BR	1400	330	0	0	0
2019/10/21 18:58:00	BASE	40.79	16	47.79	20	1.0	100	1.0	97	0	971.8	NA	0.0000	-SN BR	1400	330	0	0	0
2019/10/21 18:59:00	BASE	41.46	16	46.35	17	1.0	100	1.0	100	0	971.7	NA	0.0000	-SN BR	1400	330	0	0	0
2019/10/21 19:00:00	BASE	39.61	15	46.35	17	1.0	100	1.0	99	0	972.0	NA	0.0000	-SN BR	1300	330	0	0	0
2019/10/21 19:01:00	BASE	39.34	14	46.35	17	1.0	100	1.0	100	0	971.8	NA	0.0000	-SN BR	1500	330	0	0	0
2019/10/21 19:02:00	BASE	40.67	14	46.35	17	1.0	100	1.0	96	0	971.7	NA	0.0000	-SN BR	1500	360	0	0	0
2019/10/21 19:03:00	BASE	39.82	16	46.35	17	1.0	100	1.0	94	0	971.8	NA	0.0000	-SN BR	1600	330	0	0	0
2019/10/21 19:04:00	BASE	39.60	16	46.35	17	1.0	100	1.0	90	0	971.8	NA	0.0000	-SN BR	1500	330	0	0	0
2019/10/21 19:05:00	BASE	39.35	13	46.35	17	1.1	100	1.1	85	0	971.9	NA	0.0000	-SN BR	1500	330	0	0	0
2019/10/21 19:06:00	BASE	39.47	15	46.35	17	1.1	100	1.1	78	0	971.9	NA	0.0000	-SN BR	1600	330	0	0	0
2019/10/21 19:07:00	BASE	38.94	17	46.35	17	1.1	100	1.1	79	0	971.9	NA	0.0000	-SN BR	1600	300	0	0	0
2019/10/21 19:08:00	BASE	38.71	15	45.58	18	1.1	100	1.1	80	0	971.8	NA	0.0000	-SN BR	1900	300	0	0	0
2019/10/21 19:09:00	BASE	39.50	14	45.58	18	1.0	100	1.0	74	0	971.8	NA	0.0000	-SN BR	1900	300	0	0	0
2019/10/21 19:10:00	BASE	39.05	14	45.58	18	1.0	100	1.0	70	0	971.8	NA	0.0000	-SN BR	1800	0	0	0	2790
2019/10/21 19:11:00	BASE	37.72	13	45.58	18	1.0	100	1.0	73	0	972.0	NA	0.2540	-SN BR	1900	0	0	0	2690
2019/10/21 19:12:00	BASE	36.41	13	45.58	18	1.0	100	1.0	79	0	972.1	NA	0.0000	-SN BR	1900	330	0	0	0
2019/10/21 19:13:00	BASE	36.82	16	45.58	18	1.0	100	1.0	78	0	971.9	NA	0.0000	-SN BR	1900	330	0	0	0
2019/10/21 19:14:00	BASE	37.72	18	45.58	18	1.0	100	1.0	83	0	971.9	NA	0.0000	-SN BR	1600	0	0	0	2330
2019/10/21 19:15:00	BASE	37.44	17	45.58	18	1.0	100	1.0	86	0	972.0	NA	0.0000	-SN BR	1800	330	0	0	0
2019/10/21 19:16:00	BASE	36.04	15	43.98	8	1.0	100	1.0	86	0	971.9	NA	0.0000	-SN BR	2000	330	0	0	0
2019/10/21 19:17:00	BASE	36.23	16	43.98	8	1.0	100	1.0	83	0	971.9	NA	0.0000	-SN BR	1900	360	0	0	0
2019/10/21 19:18:00	BASE	38.30	17	43.98	8	1.0	100	1.0	81	0	971.8	NA	0.0000	-SN BR	1700	360	0	0	0
2019/10/21 19:19:00	BASE	38.70	16	43.98	8	1.0	100	1.0	84	0	971.8	NA	0.0000	-SN BR	1800	300	0	0	0
2019/10/21 19:20:00	BASE	38.63	15	43.06	22	1.0	100	1.0	85	0	971.8	NA	0.0000	-SN BR	1700	330	0	0	0
2019/10/21 19:21:00	BASE	38.22	15	43.06	22	1.0	100	1.0	90	0	971.9	NA	0.0000	-SN BR	1600	330	0	0	0
2019/10/21 19:22:00	BASE	37.18	14	43.06	22	1.0	100	1.0	91	0	972.0	NA	0.0000	-SN BR	1800	330	0	0	0
2019/10/21 19:23:00	BASE	36.53	13	43.06	22	0.9	100	0.9	85	0	971.9	NA	0.0000	-SN BR	1700	300	0	0	0
2019/10/21 19:24:00	BASE	36.95	14	43.06	22	0.9	100	0.9	81	0	971.9	NA	0.0000	-SN BR	1500	330	0	0	0
2019/10/21 19:25:00	BASE	38.44	15	43.62	17	0.9	100	0.9	85	0	971.7	NA	0.0000	-SN BR	1600	0	0	0	2460
2019/10/21 19:26:00	BASE	37.97	14	43.62	17	0.9	100	0.9	97	0	971.8	NA	0.0000	-SN BR	1800	0	0	0	2430
2019/10/21 19:27:00	BASE	37.89	12	43.62	17	0.9	100	0.9	103	0	971.7	NA	0.0000	-SN BR	2200	0	0	0	2760
2019/10/21 19:28:00	BASE	39.07	14	49.39	21	0.9	100	0.9	107	0	971.6	NA	0.0000	-SN BR	2300	300	0	0	0
2019/10/21 19:29:00	BASE	39.96	19	49.39	21	0.9	100	0.9	113	0	971.4	NA	0.2540	-SN BR	2300	360	0	0	0
2019/10/21 19:30:00	BASE	42.07	19	49.39	21	0.9	100	0.9	103	0	971.2	NA	0.0000	-SN BR	2200	0	0	0	4630
2019/10/21 19:31:00	BASE	41.30	16	49.39	21	1.0	100	1.0	90	0	971.5	NA	0.0000	-SN BR	2600	0	0	0	4590
2019/10/21 19:32:00	BASE	38.88	13	49.39	21	1.0	100	1.0	80	0	971.6	NA	0.0000	-SN BR	3300	0	0	0	4530
2019/10/21 19:33:00	BASE	40.32	13	49.39	21	1.0	100	1.0	73	0	971.3	NA	0.0000	-SN BR	2000	330	0	0	0
2019/10/21 19:34:00	BASE	43.13	15	49.39	21	1.0	100	1.0	68	0	971.1	NA	0.0000	-SN BR	1500	300	0	0	0
2019/10/21 19:35:00	BASE	42.12	17	49.39	21	1.0	100	1.0	67	0	971.5	NA	0.0000	-SN BR	1500	0	0	0	2620
2019/10/21 19:36:00	BASE	41.11	15	49.39	21	1.0	100	1.0	61	0	971.3	NA	0.0000	-SN BR	2200	390	0	0	0
2019/10/21 19:37:00	BASE	41.97	11	49.39	21	1.0	100	1.0	58	0	971.3	NA	0.0000	-SN BR	1900	330	0	0	0
2019/10/21 19:38:00	BASE	41.54	12	49.03	18	1.0	100	1.0	58	0	971.4	NA	0.0000	-SN BR	1800	0	0	0	2400
2019/10/21 19:39:00	BASE	40.11	13	49.03	18	1.0	100	1.0	58	0	971.6	NA	0.0000	-SN BR	1800	330	0	0	0
2019/10/21 19:40:00	BASE	38.49	11	49.03	18	1.0	100	1.0	53	0	971.8	NA	0.0000	-SN BR	1800	0	0	0	2360
2019/10/21 19:41:00	BASE	39.35	9	49.03	18	1.0	100	1.0	52	0	971.7	NA	0.0000	-SN BR	2200	330	0	0	0
2019/10/21 19:42:00	BASE	39.81	9	49.03	18	1.0	100	1.0	52	0	971.8	NA	0.0000	-SN BR	1900	300	0	0	0
2019/10/21 19:43:00	BASE	39.65	8	49.03	18	1.0	100	1.0	53	0	971.6	NA	0.0000	-SN BR	1700	300	0	0	0
2019/10/21 19:44:00	BASE	39.45	6	45.99	15	1.0	100	1.0	57	0	971.9	NA	0.0000	-SN BR	2000	300	0	0	0
2019/10/21 19:45:00	BASE	39.78	10	45.99	15	1.0	100	1.0	57	0	971.6	NA	0.2540	-SN BR	2200	300	21690	0	0
2019/10/21 19:46:00	BASE	40.17	13	45.17	8	0.9	100	0.9	65	0	971.7	NA	0.0000	-SN BR	1600	260	0	0	0
2019/10/21 19:47:00	BASE	38.77	11	45.17	8	0.9	100	0.9	74	0	971.7	NA	0.0000	-SN BR	1500	260	0	0	0
2019/10/21 19:48:00	BASE	38.34	12	45.17	8	0.9	100	0.9	77	0	971.8	NA	0.0000	-SN BR	1600	300	0	0	0
2019/10/21 19:49:00	BASE	38.69	13	45.17	8	0.9	100	0.9	72	0	971.7	NA	0.0000	-SN BR	1800	330	0	0	0
2019/10/21 19:50:00	BASE	38.47	12	45.17	8	0.9	100	0.9	80	0	971.8	NA	0.0000	-SN BR	2200	0	0	0	2590
2019/10/21 19:51:00	BASE	38.89	13	45.17	8	0.9	100	0.9	86	0	971.6	NA	0.0000	-SN BR	2100	330	0	0	0
2019/10/21 19:52:00	BASE	38.69	11	45.17	8	0.9	100	0.9	87	0	971.9	NA	0.0000	-SN BR	1800	330	0	0	0
2019/10/21 19:53:00	BASE	35.97	11	45.17	8	0.9	100	0.9	92	0	972.0	NA	0.0000	-SN BR	1700	300	0	0	0
2019/10/21 19:54:00	BASE	35.86	13	44.19	13	0.9	100	0.9	98	0	971.8	NA	0.0000	-SN BR	1800	300	21850	0	0
2019/10/21 19:55:00	BASE	39.02	14	43.62	14	0.9	100	0.9	95	0	971.5	NA	0.0000	-SN BR	1700	300	0	0	0
2019/10/21 19:56:00	BASE	40.86	14	45.12	2	0.9	100	0.9	91	0	971.4	NA	0.0000	-SN BR	1900	330	0	0	0
2019/10/21 19:57:00	BASE	39.52	13	45.12	2	0.9	100	0.9	85	0	971.6	NA	0.0000	-SN BR	1900	330	0	0	0
2019/10/21 19:58:00	BASE	38.62	11	45.12	2	0.9	100	0.9	80	0	971.7	NA	0.0000	-SN BR	2100	0	0	0	2200
2019/10/21 19:59:00	BASE	37.93	10	45.12	2	0.9	100	0.9	74	0	971.8	NA	0.0000	-SN BR	2100	300	0	0	0
2019/10/21 20:00:00	BASE	37.74	12	45.12	2	0.9	100	0.9	72	0	971.7	NA	0.2540	-SN BR	1900	0	0	0	2070
2019/10/21 20:01:00	BASE	38.12	11	45.12	2	0.9	100	0.9	69	0	971.8	NA	0.0000	-SN BR	1900	330	0	0	0
2019/10/21 20:02:00	BASE	37.04	10	45.12	2	0.9	100	0.9	67	0	971.8	NA	0.0000	-SN BR	2100	300	0	0	0
2019/10/21 20:03:00	BASE	37.77	11	45.12	2	0.9	100	0.9	59	0	971.8	NA	0.0000	-SN BR	1900	330	0	0	0
2019/10/21 20:04:00	BASE	35.92	11	45.12	2	0.9	100	0.9	55	0	972.1	NA	0.0000	-SN BR	1400	330	0	0	0
2019/10/21 20:05:00	BASE	35.12	10	45.12	2	0.8	100	0.8	52	0	971.9	NA	0.0000	-SN BR	1900	360	0	0	0
2019/10/21 20:06:00	BASE	37.85	10	43.88	10	0.8	100	0.8	49	0	971.7	NA	0.0000	-SN BR	2000	330	0	0	0
2019/10/21 20:07:00	BASE	38.92	10	43.88	10	0.8	100	0.8	44	0	971.7	NA	0.0000	-SN BR	1900	300	0	0	0
2019/10/21 20:08:00	BASE	39.20	9	43.88	10	0.8	100	0.8	39	0	971.7	NA	0.0000	-SN BR	1700	300	0	0	0
2019/10/21 20:09:00	BASE	38.91	9	43.88	10	0.8	100	0.8	36	0	971.6	NA	0.0000	-SN BR	1700	300	0	0	0
2019/10/21 20:10:00	BASE	39.15	8	43.88	10	0.8	100	0.8	32	0	971.7	NA	0.0000	-SN BR	1600	300	0	0	0
2019/10/21 20:11:00	BASE	39.45	11	43.26	18	0.8	100	0.8	31	0	971.6	NA	0.0000	-SN BR	1500	330	0	0	0
2019/10/21 20:12:00	BASE	39.47	13	43.26	18	0.8	100	0.8	31	0	971.7	NA	0.0000	-SN BR	1400	0	0	0	1740
2019/10/21 20:13:00	BASE	40.62	12	43.57	10	0.8	100	0.8	31	0	971.4	NA	0.2540	-SN BR	1400	330	0	0	0
2019/10/21 20:14:00	BASE	40.87	13	43.57	10	0.8	100	0.8	30	0	971.5	NA	0.0000	-SN BR	1500	0	0	0	1900
2019/10/21 20:15:00	BASE	39.48	13	43.57	10	0.9	100	0.9	32	0	971.7	NA	0.0000	-SN BR	1600	300	0	0	0
2019/10/21 20:16:00	BASE	38.45	14	43.57	10	0.9	100	0.9	36	0	971.7	NA	0.0000	-SN BR	1400	300	0	0	0
2019/10/21 20:17:00	BASE	38.02	16	43.57	10	0.9	100	0.9	42	0	971.7	NA	0.0000	-SN BR	1300	0	0	0	1800
2019/10/21 20:18:00	BASE	38.84	14	43.57	10	0.8	100	0.8	44	0	971.7	NA	0.0000	-SN BR	1200	230	0	0	0
2019/10/21 20:19:00	BASE	38.44	12	43.57	10	0.8	100	0.8	44	0	971.8	NA	0.0000	-SN BR	1200	230	0	0	0
2019/10/21 20:20:00	BASE	37.30	11	43.57	10	0.8	100	0.8	46	0	971.8	NA	0.0000	-SN BR	1600	260	0	0	0
2019/10/21 20:21:00	BASE	37.52	13	43.57	10	0.8	100	0.8	48	0	971.8	NA	0.0000	-SN BR	1600	0	0	0	1840
2019/10/21 20:22:00	BASE	36.06	10	43.57	10	0.8	100	0.8	50	0	972.1	NA	0.0000	-SN BR	1400	230	0	0	0
2019/10/21 20:23:00	BASE	34.64	10	43.42	18	0.7	100	0.7	50	0	972.0	NA	0.0000	-SN BR	1500	230	0	0	0
2019/10/21 20:24:00	BASE	35.43	12	42.75	12	0.7	100	0.7	49	0	971.9	NA	0.0000	-SN BR	1600	300	0	0	0
2019/10/21 20:25:00	BASE	36.58	13	42.75	12	0.7	100	0.7	51	0	971.8	NA	0.0000	-SN BR	1400	950	0	0	0
2019/10/21 20:26:00	BASE	37.16	12	42.75	12	0.7	100	0.7	57	0	971.8	NA	0.2540	-SN BR	1400	0	0	0	2300
2019/10/21 20:27:00	BASE	36.63	12	42.75	12	0.7	100	0.7	60	0	972.0	NA	0.0000	-SN BR	1200	300	0	0	0
2019/10/21 20:28:00	BASE	36.70	10	41.16	12	0.7	100	0.7	62	0	971.9	NA	0.0000	-SN BR	1100	0	0	0	2820
2019/10/21 20:29:00	BASE	37.20	9	42.18	11	0.8	100	0.8	68	0	971.8	NA	0.0000	-SN BR	2000	0	0	0	2820
2019/10/21 20:30:00	BASE	37.89	10	42.18	11	0.8	100	0.8	75	0	971.6	NA	0.0000	-SN BR	2200	0	0	0	2760
2019/10/21 20:31:00	BASE	38.42	12	42.39	12	0.8	100	0.8	85	0	971.6	NA	0.0000	-SN BR	2500	430	0	0	0
2019/10/21 20:32:00	BASE	38.54	12	42.70	4	0.8	100	0.8	91	0	971.4	NA	0.0000	-SN BR	2700	360	0	0	0
2019/10/21 20:33:00	BASE	40.29	8	45.53	10	0.9	100	0.9	92	0	971.2	NA	0.0000	-SN BR	2400	330	0	0	0
2019/10/21 20:34:00	BASE	42.11	7	46.76	9	0.9	100	0.9	92	0	971.2	NA	0.0000	-SN BR	3200	330	0	0	0
2019/10/21 20:35:00	BASE	41.07	10	46.76	9	1.0	100	1.0	92	0	971.5	NA	0.0000	-SN BR	3000	330	0	0	0
2019/10/21 20:36:00	BASE	39.70	11	46.76	9	1.0	100	1.0	93	0	971.5	NA	0.0000	-SN BR	3300	330	0	0	0
2019/10/21 20:37:00	BASE	40.65	10	46.76	9	1.1	100	1.1	89	0	971.5	NA	0.2540	-SN BR	3200	300	0	0	0
2019/10/21 20:38:00	BASE	42.07	9	46.76	9	1.1	100	1.1	86	0	971.6	NA	0.0000	-SN BR	2700	300	0	0	0
2019/10/21 20:39:00	BASE	41.33	8	46.76	9	1.2	100	1.2	86	0	971.7	NA	0.0000	-SN BR	2400	300	0	0	0
2019/10/21 20:40:00	BASE	39.22	7	46.76	9	1.2	100	1.2	92	0	971.9	NA	0.0000	-SN BR	3200	300	0	0	0
2019/10/21 20:41:00	BASE	37.21	8	46.76	9	1.2	100	1.2	93	0	972.0	NA	0.0000	-SN BR	3200	330	0	0	0
2019/10/21 20:42:00	BASE	39.32	4	46.76	9	1.2	100	1.2	99	0	971.6	NA	0.0000	-SN BR	4200	300	0	0	0
2019/10/21 20:43:00	BASE	40.38	4	46.76	9	1.3	100	1.3	104	0	971.9	NA	0.0000	-SN BR	3700	300	0	0	0
2019/10/21 20:44:00	BASE	38.19	5	46.30	3	1.2	100	1.2	102	0	972.1	NA	0.0000	-SN BR	5000	330	0	0	0
2019/10/21 20:45:00	BASE	37.85	4	46.30	3	1.2	100	1.2	116	0	972.1	NA	0.0000	-SN BR	4400	300	0	0	0
2019/10/21 20:46:00	BASE	37.20	4	46.30	3	1.2	100	1.2	131	0	972.1	NA	0.0000	-SN BR	3100	330	0	0	0
2019/10/21 20:47:00	BASE	38.77	6	46.30	3	1.2	100	1.2	139	0	971.8	NA	0.0000	-SN BR	5000	360	0	0	0
2019/10/21 20:48:00	BASE	40.09	5	46.30	3	1.2	100	1.2	141	0	971.9	NA	0.0000	-SN BR	7000	360	0	0	0
2019/10/21 20:49:00	BASE	39.45	3	46.30	3	1.3	100	1.3	133	0	972.0	NA	0.0000	-SN BR	9999	360	0	0	0
2019/10/21 20:50:00	BASE	39.81	4	46.30	3	1.3	100	1.3	134	0	971.9	NA	0.0000	-SN BR	9999	360	0	0	0
2019/10/21 20:51:00	BASE	40.67	4	46.30	3	1.4	100	1.4	140	0	971.9	NA	0.0000	-SN BR	9999	360	0	0	0
2019/10/21 20:52:00	BASE	39.05	0	45.63	360	1.5	100	1.5	140	0	972.3	NA	0.0000	-SN BR	9999	330	0	0	0
2019/10/21 20:53:00	BASE	37.91	1	45.63	360	1.5	100	1.5	135	0	972.2	NA	0.0000	-SN BR	9999	360	0	0	0
2019/10/21 20:54:00	BASE	38.50	6	45.63	360	1.5	100	1.5	118	0	972.3	NA	0.0000	-SN BR	9999	390	0	0	0
2019/10/21 20:55:00	BASE	36.93	8	45.63	360	1.5	100	1.5	120	0	972.5	NA	0.0000	-SN BR	9000	790	0	0	0
2019/10/21 20:56:00	BASE	36.46	6	45.63	360	1.5	100	1.5	121	0	972.4	NA	0.0000	-SN BR	9999	460	0	0	0
2019/10/21 20:57:00	BASE	37.59	3	44.24	5	1.5	100	1.5	140	0	972.3	NA	0.0000	-SN	9999	430	0	0	0
2019/10/21 20:58:00	BASE	39.41	359	47.02	4	1.5	100	1.5	161	0	972.0	NA	0.0000	-SN	9999	360	0	0	0
2019/10/21 20:59:00	BASE	40.43	358	47.02	4	1.5	100	1.5	176	0	972.1	NA	0.0000	-SN	9999	330	0	0	0
2019/10/21 21:00:00	BASE	39.77	2	47.02	4	1.6	100	1.6	185	0	972.0	NA	0.0000	-SN	9999	330	0	0	0
2019/10/21 21:01:00	BASE	41.23	2	47.02	4	1.7	100	1.7	183	0	971.9	NA	0.0000	-SN	9000	330	0	0	0
2019/10/21 21:02:00	BASE	40.90	359	47.02	4	1.7	100	1.7	173	0	972.2	NA	0.0000	-SN	8000	330	0	0	0
2019/10/21 21:03:00	BASE	39.38	360	47.02	4	1.8	100	1.8	159	0	972.2	NA	0.0000	-SN	7000	330	0	0	0
2019/10/21 21:04:00	BASE	39.84	4	47.02	4	1.8	100	1.8	147	0	972.1	NA	0.0000	-SN BR	5000	300	0	0	0
2019/10/21 21:05:00	BASE	39.76	358	47.33	1	1.8	100	1.8	140	0	972.1	NA	0.0000	-SN BR	6000	360	0	0	0
2019/10/21 21:06:00	BASE	39.57	356	47.33	1	1.8	100	1.8	115	0	972.1	NA	0.0000	-SN BR	9999	390	0	0	0
2019/10/21 21:07:00	BASE	38.55	1	47.33	1	1.8	100	1.8	103	0	972.3	NA	0.0000	-SN BR	9999	390	0	0	0
2019/10/21 21:08:00	BASE	36.71	1	47.33	1	1.8	100	1.8	87	0	972.4	NA	0.0000	-SN BR	9999	390	0	0	0
2019/10/21 21:09:00	BASE	37.85	3	47.33	1	1.8	100	1.8	87	0	972.1	NA	0.0000	-SN BR	9999	330	0	0	0
2019/10/21 21:10:00	BASE	39.19	4	47.33	1	1.9	100	1.9	79	0	972.3	NA	0.0000	-SN BR	9999	330	0	0	0
2019/10/21 21:11:00	BASE	38.39	4	47.33	1	1.9	100	1.9	82	0	972.2	NA	0.0000	-SN BR	8000	300	0	0	0
2019/10/21 21:12:00	BASE	38.69	6	47.33	1	1.8	100	1.8	70	0	972.1	NA	0.0000	-SN BR	5000	260	0	0	0
2019/10/21 21:13:00	BASE	38.80	3	47.33	1	1.8	100	1.8	73	0	972.2	NA	0.0000	-SN BR	3400	260	0	0	0
2019/10/21 21:14:00	BASE	38.27	2	47.33	1	1.8	100	1.8	68	0	972.3	NA	0.0000	-SN BR	5000	300	0	0	0
2019/10/21 21:15:00	BASE	38.51	4	44.40	360	1.7	100	1.7	63	0	972.3	NA	0.0000	-SN BR	5000	300	0	0	0
2019/10/21 21:16:00	BASE	38.87	3	43.83	4	1.6	100	1.6	62	0	972.3	NA	0.0000	-SN BR	3300	300	0	0	0
2019/10/21 21:17:00	BASE	38.35	360	43.83	4	1.6	100	1.6	63	0	972.4	NA	0.0000	-SN BR	4900	300	0	0	0
2019/10/21 21:18:00	BASE	37.53	0	43.83	4	1.6	100	1.6	62	0	972.5	NA	0.0000	-SN BR	6000	330	0	0	0
2019/10/21 21:19:00	BASE	36.40	2	43.47	3	1.6	100	1.6	61	0	972.5	NA	0.0000	-SN BR	9999	330	0	0	0
2019/10/21 21:20:00	BASE	36.47	2	43.47	3	1.7	100	1.7	60	0	972.3	NA	0.0000	-SN BR	8000	300	0	0	0
2019/10/21 21:21:00	BASE	37.24	359	43.47	3	1.7	100	1.7	59	0	972.3	NA	0.0000	-SN BR	5000	300	0	0	0
2019/10/21 21:22:00	BASE	36.22	357	43.32	1	1.8	100	1.8	57	0	972.6	NA	0.0000	-SN BR	5000	260	0	0	0
2019/10/21 21:23:00	BASE	34.96	356	43.26	7	1.8	100	1.8	55	0	972.7	NA	0.0000	-SN BR	5000	260	0	0	0
2019/10/21 21:24:00	BASE	34.53	355	43.26	7	1.8	100	1.8	52	0	972.8	NA	0.0000	-SN BR	6000	260	0	0	0
2019/10/21 21:25:00	BASE	36.12	0	43.26	7	1.7	100	1.7	53	0	972.5	NA	0.0000	-SN BR	6000	300	0	0	0
2019/10/21 21:26:00	BASE	39.04	3	45.73	354	1.7	100	1.7	53	0	972.3	NA	0.0000	-SN BR	4800	260	0	0	0
2019/10/21 21:27:00	BASE	39.41	357	45.73	354	1.7	100	1.7	56	0	972.5	NA	0.0000	-SN BR	3500	260	0	0	0
2019/10/21 21:28:00	BASE	36.97	355	45.73	354	1.7	100	1.7	55	0	972.7	NA	0.0000	-SN BR	3500	230	0	0	0
2019/10/21 21:29:00	BASE	35.14	353	45.73	354	1.7	100	1.7	57	0	972.7	NA	0.0000	-SN BR	4900	260	0	0	0
2019/10/21 21:30:00	BASE	36.47	356	45.73	354	1.7	100	1.7	57	0	972.5	NA	0.0000	-SN BR	4500	260	0	0	0
2019/10/21 21:31:00	BASE	37.34	3	45.73	354	1.7	100	1.7	55	0	972.6	NA	0.0000	-SN BR	3000	260	0	0	0
2019/10/21 21:32:00	BASE	34.49	3	45.73	354	1.6	100	1.6	57	0	972.9	NA	0.0000	-SN BR	3000	260	0	0	0
2019/10/21 21:33:00	BASE	34.12	2	45.73	354	1.6	100	1.6	57	0	972.7	NA	0.0000	-SN BR	3900	300	0	0	0
2019/10/21 21:34:00	BASE	35.40	0	45.73	354	1.6	100	1.6	53	0	972.8	NA	0.0000	-SN BR	3700	260	0	0	0
2019/10/21 21:35:00	BASE	35.73	5	45.73	354	1.5	100	1.5	53	0	972.7	NA	0.2540	-SN BR	3000	260	0	0	0
2019/10/21 21:36:00	BASE	37.14	7	42.70	360	1.5	100	1.5	51	0	972.6	NA	0.0000	-SN BR	2700	230	0	0	0
2019/10/21 21:37:00	BASE	37.28	5	40.90	2	1.5	100	1.5	49	0	972.6	NA	0.0000	-SN BR	2600	260	0	0	0
2019/10/21 21:38:00	BASE	37.51	5	40.90	2	1.4	100	1.4	52	0	972.6	NA	0.0000	-SN BR	3000	330	1840	0	0
2019/10/21 21:39:00	BASE	36.94	5	40.90	2	1.4	100	1.4	55	0	972.7	NA	0.0000	-SN BR	4000	330	0	0	0
2019/10/21 21:40:00	BASE	35.93	3	40.90	2	1.4	100	1.4	57	0	972.8	NA	0.0000	-SN BR	6000	300	0	0	0
2019/10/21 21:41:00	BASE	35.67	3	40.90	2	1.4	100	1.4	53	0	972.8	NA	0.0000	-SN BR	4400	300	0	0	0
2019/10/21 21:42:00	BASE	34.14	359	40.90	2	1.5	100	1.5	60	0	973.0	NA	0.0000	-SN BR	5000	330	0	0	0
2019/10/21 21:43:00	BASE	33.38	358	40.90	2	1.5	100	1.5	56	0	973.0	NA	0.0000	-SN BR	6000	330	0	0	0
2019/10/21 21:44:00	BASE	33.51	1	40.90	2	1.5	100	1.5	48	0	973.0	NA	0.0000	-SN BR	9000	0	0	0	3050
2019/10/21 21:45:00	BASE	35.10	3	40.90	2	1.4	100	1.4	42	0	972.8	NA	0.0000	-SN BR	5000	330	0	0	0
2019/10/21 21:46:00	BASE	36.48	3	40.90	2	1.4	100	1.4	30	0	972.9	NA	0.0000	-SN BR	3100	330	0	0	0
2019/10/21 21:47:00	BASE	37.01	359	44.60	360	1.4	100	1.4	27	0	972.8	NA	0.0000	-SN BR	3400	300	0	0	0
2019/10/21 21:48:00	BASE	37.46	3	44.60	360	1.4	100	1.4	26	0	972.8	NA	0.0000	-SN BR	3000	330	0	0	0
2019/10/21 21:49:00	BASE	35.14	4	44.60	360	1.4	100	1.4	34	0	973.1	NA	0.0000	-SN BR	2100	300	0	0	0
2019/10/21 21:50:00	BASE	34.05	1	44.60	360	1.4	100	1.4	35	0	973.0	NA	0.0000	-SN BR	2200	300	0	0	0
2019/10/21 21:51:00	BASE	33.70	357	44.60	360	1.4	100	1.4	33	0	973.2	NA	0.2540	-SN BR	3200	360	0	0	0
2019/10/21 21:52:00	BASE	28.99	357	44.60	360	1.4	100	1.4	30	0	973.7	NA	0.0000	-SN BR	3200	330	0	0	0
2019/10/21 21:53:00	BASE	26.70	354	44.60	360	1.4	100	1.4	25	0	973.6	NA	0.0000	-SN BR	9999	330	0	0	0
2019/10/21 21:54:00	BASE	29.81	356	44.60	360	1.4	100	1.4	21	0	973.3	NA	0.0000	-SN BR	5000	300	1540	0	0
2019/10/21 21:55:00	BASE	32.33	3	44.60	360	1.4	100	1.4	22	0	973.3	NA	0.0000	-SN BR	3300	330	0	0	0
2019/10/21 21:56:00	BASE	31.84	358	44.60	360	1.3	100	1.3	23	0	973.6	NA	0.0000	-SN BR	3900	660	0	0	0
2019/10/21 21:57:00	BASE	29.19	356	40.08	360	1.3	100	1.3	27	0	973.7	NA	0.0000	-SN BR	4500	390	0	0	0
2019/10/21 21:58:00	BASE	29.81	355	39.66	1	1.3	100	1.3	29	0	973.4	NA	0.0000	-SN BR	9999	390	0	0	0
2019/10/21 21:59:00	BASE	33.14	355	39.66	1	1.4	100	1.4	37	0	973.3	NA	0.0000	-SN BR	7000	360	0	0	0
2019/10/21 22:00:00	BASE	31.64	357	39.51	1	1.4	100	1.4	38	0	973.5	NA	0.0000	-SN BR	9999	430	0	0	0
2019/10/21 22:01:00	BASE	29.86	358	39.51	1	1.5	100	1.5	33	0	973.5	NA	0.0000	-SN BR	9999	430	0	0	0
2019/10/21 22:02:00	BASE	31.35	359	39.66	345	1.5	100	1.5	25	0	973.4	NA	0.0000	-SN BR	9999	330	0	0	0
2019/10/21 22:03:00	BASE	33.44	357	39.66	345	1.5	100	1.5	18	0	973.3	NA	0.0000	-SN BR	8000	360	0	0	0
2019/10/21 22:04:00	BASE	32.78	354	39.66	345	1.5	100	1.5	17	0	973.6	NA	0.0000	-SN BR	4900	360	0	0	0
2019/10/21 22:05:00	BASE	31.49	351	39.66	345	1.4	100	1.4	19	0	973.6	NA	0.0000	-SN BR	5000	360	1510	0	0
2019/10/21 22:06:00	BASE	31.29	355	39.66	345	1.4	100	1.4	17	0	973.7	NA	0.0000	-SN BR	4000	360	1310	0	0
2019/10/21 22:07:00	BASE	29.71	359	39.66	345	1.4	100	1.4	19	0	973.8	NA	0.0000	-SN BR	5000	430	0	0	0
2019/10/21 22:08:00	BASE	28.91	359	39.66	345	1.4	100	1.4	17	0	973.7	NA	0.0000	-SN BR	9999	460	0	0	0
2019/10/21 22:09:00	BASE	28.00	356	39.66	345	1.4	100	1.4	17	0	973.8	NA	0.0000	-SN BR	9999	490	0	0	0
2019/10/21 22:10:00	BASE	27.53	356	39.66	345	1.4	100	1.4	14	0	973.8	NA	0.0000	-SN BR	9999	430	0	0	0
2019/10/21 22:11:00	BASE	27.90	354	39.66	345	1.4	100	1.4	17	0	973.8	NA	0.0000	-SN BR	9999	390	0	0	0
2019/10/21 22:12:00	BASE	28.83	353	37.97	360	1.4	100	1.4	22	0	973.7	NA	0.0000	-SN BR	9999	390	0	0	0
2019/10/21 22:13:00	BASE	29.77	353	35.65	353	1.4	100	1.4	23	0	973.7	NA	0.0000	-SN BR	8000	890	0	0	0
2019/10/21 22:14:00	BASE	29.37	352	35.65	353	1.4	100	1.4	20	0	973.8	NA	0.0000	-SN BR	9999	1120	2760	0	0
2019/10/21 22:15:00	BASE	28.13	353	34.57	3	1.4	100	1.4	15	0	974.0	NA	0.0000	-SN BR	9999	1020	0	0	0
2019/10/21 22:16:00	BASE	27.33	355	34.57	3	1.4	100	1.4	17	0	974.0	NA	0.0000	-SN	9999	590	0	0	0
2019/10/21 22:17:00	BASE	31.21	354	40.54	1	1.4	100	1.4	16	0	973.5	NA	0.0000	-SN	9999	430	1250	0	0
2019/10/21 22:18:00	BASE	33.35	356	40.54	1	1.4	100	1.4	12	0	973.7	NA	0.0000	-SN	9999	980	0	0	0
2019/10/21 22:19:00	BASE	29.98	354	40.54	1	1.4	100	1.4	9	0	974.0	NA	0.0000	-SN	9999	460	0	0	0
2019/10/21 22:20:00	BASE	29.50	354	40.54	1	1.4	100	1.4	11	0	973.9	NA	0.0000	-SN	9999	360	0	0	0
2019/10/21 22:21:00	BASE	29.21	357	40.54	1	1.4	100	1.4	11	0	974.1	NA	0.0000	-SN	6000	360	0	0	0
2019/10/21 22:22:00	BASE	28.12	358	40.54	1	1.4	100	1.4	12	0	974.1	NA	0.0000	-SN BR	3200	360	0	0	0
2019/10/21 22:23:00	BASE	27.35	2	40.54	1	1.4	100	1.4	13	0	974.1	NA	0.0000	-SN BR	2900	390	0	0	0
2019/10/21 22:24:00	BASE	27.31	0	40.54	1	1.4	100	1.4	14	0	974.1	NA	0.0000	-SN BR	4400	850	0	0	0
2019/10/21 22:25:00	BASE	28.74	357	40.54	1	1.4	100	1.4	14	0	974.0	NA	0.0000	-SN BR	9999	890	0	0	0
2019/10/21 22:26:00	BASE	28.76	355	40.54	1	1.4	100	1.4	12	0	974.0	NA	0.0000	-SN BR	9999	950	0	0	0
2019/10/21 22:27:00	BASE	28.50	357	35.24	355	1.4	100	1.4	12	0	974.0	NA	0.0000	-SN BR	9999	980	0	0	0
2019/10/21 22:28:00	BASE	28.12	359	33.85	1	1.4	100	1.4	13	0	974.2	NA	0.0000	-SN BR	9999	890	0	0	0
2019/10/21 22:29:00	BASE	27.26	353	33.85	1	1.4	100	1.4	14	0	974.3	NA	0.0000	-SN BR	9999	820	0	0	0
2019/10/21 22:30:00	BASE	26.83	350	33.03	352	1.4	100	1.4	16	0	974.4	NA	0.0000	-SN BR	9999	820	0	0	0
2019/10/21 22:31:00	BASE	25.66	351	33.03	352	1.4	100	1.4	17	0	974.5	NA	0.0000	-SN BR	9999	850	0	0	0
2019/10/21 22:32:00	BASE	26.62	345	33.03	352	1.4	100	1.4	14	0	974.4	NA	0.0000	-SN BR	9999	750	0	0	0
2019/10/21 22:33:00	BASE	28.22	343	33.34	348	1.4	100	1.4	15	0	974.4	NA	0.0000	-SN	9999	820	0	0	0
2019/10/21 22:34:00	BASE	28.19	344	34.31	350	1.4	100	1.4	15	0	974.4	NA	0.0000		9999	750	0	0	0
2019/10/21 22:35:00	BASE	26.70	345	34.31	350	1.3	100	1.3	13	0	974.6	NA	0.0000		9999	820	0	0	0
2019/10/21 22:36:00	BASE	24.34	347	34.31	350	1.3	100	1.3	13	0	974.6	NA	0.0000		9999	790	0	0	0
2019/10/21 22:37:00	BASE	23.06	348	34.31	350	1.3	100	1.3	13	0	974.7	NA	0.0000		9999	850	0	0	0
2019/10/21 22:38:00	BASE	23.97	351	34.31	350	1.3	100	1.3	14	0	974.5	NA	0.0000		9999	790	0	0	0
2019/10/21 22:39:00	BASE	26.78	359	34.31	350	1.3	100	1.3	14	0	974.4	NA	0.0000		9999	720	0	0	0
2019/10/21 22:40:00	BASE	30.00	2	40.44	360	1.3	100	1.3	15	0	974.1	NA	0.0000		9999	750	0	0	0
2019/10/21 22:41:00	BASE	32.28	356	40.44	360	1.4	100	1.4	15	0	974.1	NA	0.0000		9999	660	0	0	0
2019/10/21 22:42:00	BASE	32.12	355	40.44	360	1.4	100	1.4	15	0	974.2	NA	0.0000		9999	820	0	0	0
2019/10/21 22:43:00	BASE	32.36	0	40.44	360	1.4	100	1.4	16	0	974.2	NA	0.0000		9999	850	0	0	0
2019/10/21 22:44:00	BASE	30.51	357	40.44	360	1.5	100	1.5	16	0	974.4	NA	0.0000		9999	890	0	0	0
2019/10/21 22:45:00	BASE	28.96	347	40.44	360	1.5	100	1.5	18	0	974.3	NA	0.0000		9999	980	0	0	0
2019/10/21 22:46:00	BASE	32.15	354	40.44	360	1.5	100	1.5	20	0	974.1	NA	0.0000		9999	950	0	0	0
2019/10/21 22:47:00	BASE	34.30	359	40.44	360	1.5	100	1.5	21	0	974.1	NA	0.0000		9999	980	0	0	0
2019/10/21 22:48:00	BASE	32.75	359	40.44	360	1.5	100	1.5	25	0	974.3	NA	0.0000		9999	980	0	0	0
2019/10/21 22:49:00	BASE	31.85	3	40.44	360	1.5	100	1.5	23	0	974.3	NA	0.0000		9999	980	0	0	0
2019/10/21 22:50:00	BASE	31.54	4	37.86	360	1.5	100	1.5	25	0	974.4	NA	0.0000		9999	1020	0	0	0
2019/10/21 22:51:00	BASE	30.76	0	37.86	360	1.5	100	1.5	24	0	974.4	NA	0.0000		9999	1050	0	0	0
2019/10/21 22:52:00	BASE	31.02	353	37.86	360	1.5	100	1.5	24	0	974.3	NA	0.0000		9999	890	0	0	0
2019/10/21 22:53:00	BASE	30.49	358	37.86	360	1.6	100	1.6	22	0	974.5	NA	0.0000		9999	1020	0	0	0
2019/10/21 22:54:00	BASE	30.72	4	37.86	360	1.6	100	1.6	18	0	974.4	NA	0.0000		9999	850	0	0	0
2019/10/21 22:55:00	BASE	29.65	357	37.86	360	1.6	100	1.6	18	0	974.6	NA	0.0000		9999	950	0	0	0
2019/10/21 22:56:00	BASE	29.48	352	37.86	360	1.6	100	1.6	21	0	974.4	NA	0.0000		9999	820	0	0	0
2019/10/21 22:57:00	BASE	30.05	353	36.27	360	1.7	100	1.7	20	0	974.6	NA	0.0000		9999	1050	0	0	0
2019/10/21 22:58:00	BASE	28.70	354	35.50	8	1.7	100	1.7	18	0	974.6	NA	0.0000		9999	1020	0	0	0
2019/10/21 22:59:00	BASE	28.04	358	35.50	8	1.7	100	1.7	18	0	974.7	NA	0.0000		9999	1080	0	0	0
2019/10/21 23:00:00	BASE	28.65	2	35.50	8	1.7	100	1.7	18	0	974.6	NA	0.0000		9999	1120	0	0	0
2019/10/21 23:01:00	BASE	29.85	1	35.50	8	1.7	100	1.7	20	0	974.5	NA	0.0000		9999	850	0	0	0
2019/10/21 23:02:00	BASE	29.57	3	35.50	8	1.6	100	1.6	21	0	974.7	NA	0.0000		9999	0	0	0	1020
2019/10/21 23:03:00	BASE	29.05	4	35.50	8	1.6	100	1.6	23	0	974.7	NA	0.0000		9999	0	0	0	0
2019/10/21 23:04:00	BASE	28.00	2	34.21	360	1.5	100	1.5	24	0	974.8	NA	0.0000		9999	0	0	0	0
2019/10/21 23:05:00	BASE	27.52	0	34.21	360	1.5	100	1.5	25	0	974.7	NA	0.0000		9999	0	0	0	0
2019/10/21 23:06:00	BASE	27.87	360	34.21	360	1.4	100	1.4	24	0	974.8	NA	0.0000		9999	0	0	0	0
2019/10/21 23:07:00	BASE	28.00	359	34.21	360	1.4	100	1.4	25	0	974.8	NA	0.0000		9999	0	0	0	750
2019/10/21 23:08:00	BASE	27.98	8	34.21	360	1.4	100	1.4	25	0	974.9	NA	0.0000		9999	0	0	0	620
2019/10/21 23:09:00	BASE	28.27	7	34.21	360	1.4	100	1.4	25	0	974.8	NA	0.0000		9999	0	0	0	850
2019/10/21 23:10:00	BASE	28.21	1	32.51	350	1.4	100	1.4	24	0	974.8	NA	0.0000		9999	0	0	0	460
2019/10/21 23:11:00	BASE	27.88	1	31.74	360	1.4	100	1.4	24	0	974.8	NA	0.0000		9999	0	0	0	560
2019/10/21 23:12:01	BASE	28.04	0	31.07	353	1.4	100	1.4	24	0	974.8	NA	0.0000		9999	0	0	0	0
2019/10/21 23:13:01	BASE	28.65	2	32.56	7	1.4	100	1.4	24	0	974.7	NA	0.0000		9999	0	0	0	660
2019/10/21 23:14:01	BASE	30.23	5	33.44	3	1.3	100	1.3	25	0	974.6	NA	0.0000		9999	0	0	0	0
2019/10/21 23:15:01	BASE	30.89	5	33.44	3	1.3	100	1.3	22	0	974.6	NA	0.0000		9999	0	0	0	0
2019/10/21 23:16:01	BASE	29.21	4	33.44	3	1.3	100	1.3	20	0	974.7	NA	0.0000		9999	0	0	0	430
2019/10/21 23:17:01	BASE	28.50	1	33.44	3	1.2	100	1.2	20	0	974.7	NA	0.0000		9999	0	0	0	590
2019/10/21 23:18:01	BASE	29.52	358	33.44	3	1.2	100	1.2	18	0	974.6	NA	0.0000		9999	0	0	0	460
2019/10/21 23:19:01	BASE	30.22	360	33.44	3	1.3	100	1.3	17	0	974.6	NA	0.0000		9999	0	0	0	520
2019/10/21 23:20:01	BASE	30.76	2	33.44	3	1.3	100	1.3	15	0	974.6	NA	0.0000		9999	0	0	0	620
2019/10/21 23:21:01	BASE	30.61	1	33.44	3	1.3	100	1.3	14	0	974.7	NA	0.0000		9999	0	0	0	920
2019/10/21 23:22:01	BASE	30.21	2	33.44	3	1.3	100	1.3	12	0	974.7	NA	0.0000		9999	750	0	0	0
2019/10/21 23:23:01	BASE	29.75	4	33.44	3	1.3	100	1.3	10	0	974.7	NA	0.0000		9999	1180	0	0	0
2019/10/21 23:24:01	BASE	28.37	5	33.13	360	1.3	100	1.3	9	0	974.8	NA	0.0000		9999	15360	0	0	0
2019/10/21 23:25:01	BASE	27.80	5	33.13	360	1.3	100	1.3	7	0	974.7	NA	0.0000		9999	15320	0	0	0
2019/10/21 23:26:01	BASE	28.23	2	33.13	360	1.3	100	1.3	5	0	974.8	NA	0.0000		9999	15320	0	0	0
2019/10/21 23:27:01	BASE	27.81	2	33.13	360	1.3	100	1.3	4	0	974.8	NA	0.0000		9999	1540	14900	0	0
2019/10/21 23:28:01	BASE	28.02	3	33.13	360	1.3	100	1.3	2	0	974.7	NA	0.0000		9999	15060	0	0	0
2019/10/21 23:29:01	BASE	28.53	3	32.82	360	1.3	100	1.3	1	0	974.7	NA	0.0000		9999	15290	0	0	0
2019/10/21 23:30:01	BASE	27.42	1	32.05	8	1.3	100	1.3	0	0	974.8	NA	0.0000		9999	15420	0	0	0
2019/10/21 23:31:01	BASE	27.83	3	32.05	8	1.4	100	1.4	0	0	974.7	NA	0.0000		9999	15550	0	0	0
2019/10/21 23:32:01	BASE	27.81	360	33.34	208	1.4	100	1.4	0	0	974.8	NA	0.0000		9999	15390	0	0	0
2019/10/21 23:33:01	BASE	25.31	356	33.34	208	1.5	100	1.5	0	0	974.9	NA	0.0000		9999	15420	0	0	0
2019/10/21 23:34:01	BASE	25.42	351	33.34	208	1.5	100	1.5	0	0	974.8	NA	0.0000		9999	14570	15680	0	0
2019/10/21 23:35:01	BASE	28.13	347	33.34	208	1.5	100	1.5	0	0	974.6	NA	0.0000		9999	14440	0	0	0
2019/10/21 23:36:01	BASE	30.16	359	36.53	2	1.5	100	1.5	2	0	974.6	NA	0.0000		9999	14370	0	0	0
2019/10/21 23:37:01	BASE	30.59	5	36.53	2	1.5	100	1.5	2	0	974.6	NA	0.0000		9999	14310	0	0	0
2019/10/21 23:38:01	BASE	30.18	6	36.53	2	1.5	100	1.5	2	0	974.6	NA	0.0000		9999	6730	14310	0	0
2019/10/21 23:39:01	BASE	30.13	7	36.53	2	1.6	100	1.6	2	0	974.6	NA	0.0000		9999	1310	14310	0	0
2019/10/21 23:40:01	BASE	30.23	7	36.53	2	1.5	100	1.5	2	0	974.6	NA	0.0000		9999	6690	14240	0	0
2019/10/21 23:41:01	BASE	29.68	7	36.53	2	1.5	100	1.5	1	0	974.6	NA	0.0000		9999	6690	14140	0	0
2019/10/21 23:42:01	BASE	29.74	7	36.53	2	1.5	100	1.5	1	0	974.5	NA	0.0000		9999	14110	0	0	0
2019/10/21 23:43:01	BASE	30.36	8	36.53	2	1.5	100	1.5	1	0	974.5	NA	0.0000		9999	1570	2760	0	0
2019/10/21 23:44:01	BASE	31.20	8	36.53	2	1.4	100	1.4	0	0	974.4	NA	0.0000		9999	1610	2890	0	0
2019/10/21 23:45:01	BASE	30.18	8	36.53	2	1.4	100	1.4	1	0	974.6	NA	0.0000		9999	2690	14080	0	0
2019/10/21 23:46:01	BASE	30.66	6	34.57	6	1.4	100	1.4	1	0	974.5	NA	0.0000		9999	2620	3380	0	0
2019/10/21 23:47:01	BASE	31.35	7	34.36	6	1.4	100	1.4	2	0	974.6	NA	0.0000		9999	2490	3540	0	0
2019/10/21 23:48:01	BASE	29.70	9	34.36	6	1.4	100	1.4	2	0	974.6	NA	0.0000		9999	2620	0	0	0
2019/10/21 23:49:00	BASE	29.06	8	34.36	6	1.4	100	1.4	2	0	974.6	NA	0.0000		9999	2790	0	0	0
2019/10/21 23:50:00	BASE	28.90	9	34.36	6	1.4	100	1.4	1	0	974.6	NA	0.0000		9999	2760	0	0	0
2019/10/21 23:51:00	BASE	28.23	12	34.36	6	1.4	100	1.4	1	0	974.6	NA	0.0000		9999	2850	0	0	0
2019/10/21 23:52:00	BASE	29.14	11	34.36	6	1.4	100	1.4	0	0	974.5	NA	0.0000		9999	980	2720	0	0
2019/10/21 23:53:00	BASE	30.33	10	34.36	6	1.3	100	1.3	0	0	974.6	NA	0.0000		9999	2950	0	0	0
2019/10/21 23:54:00	BASE	29.34	11	34.36	6	1.3	100	1.3	0	0	974.6	NA	0.0000		9999	2990	0	0	0
2019/10/21 23:55:00	BASE	29.75	11	34.36	6	1.3	100	1.3	0	0	974.6	NA	0.0000		9999	430	0	0	0
2019/10/21 23:56:00	BASE	29.49	13	33.34	14	1.3	100	1.3	0	0	974.6	NA	0.0000		9999	2820	0	0	0
2019/10/21 23:57:00	BASE	29.48	13	34.21	7	1.3	100	1.3	0	0	974.5	NA	0.0000		9999	13780	0	0	0
2019/10/21 23:58:00	BASE	29.78	11	34.21	7	1.3	100	1.3	0	0	974.6	NA	0.0000		9999	1250	3410	0	0
2019/10/21 23:59:00	BASE	29.86	13	34.21	7	1.3	100	1.3	0	0	974.5	NA	0.0000		9999	3350	6920	0	0